[[{"header":{"parameterUnit":"m.s-1","parameterCategory":1,"la1":30.6,"la2":29.2853,"lo1":-89.7004,"lo2":-87.6739,"dy":0.0162,"dx":0.0183,"nx":112,"ny":82,"refTime":"2023-07-12T06:00:00:Z","depth":0,"parameterNumber":2,"parameterNumberName":"U-component_of_WINDS"},"data":[0.0,0.0,0.0,0.0,0.0,0.0,0.0,0.0,0.0,0.0,0.0,0.0,0.0,0.0,0.0,0.0,0.0,0.0,0.0,0.0,0.0,0.0,0.0,0.0,0.0,0.0,0.0,0.0,0.0,0.0,0.0,0.0,0.0,0.0,0.0,0.0,0.0,0.0,0.0,0.0,0.0,0.0,0.0,0.0,0.0,0.0,0.0,0.0,0.0,0.0,0.0,0.0,0.0,0.0,0.0,0.0,0.0,0.0,0.0,0.0,0.0,0.0,0.0,0.0,0.0,0.0,0.0,0.0,0.0,0.0,0.0,0.0,0.0,0.0,0.0,0.0,0.0,0.0,0.0,0.0,0.0,0.0,0.0,0.0,0.0,0.0,0.0,0.0,0.0,0.0,-2.2756,-2.412,-2.5487,-2.5779,-2.4541,-2.5004,-2.4659,-2.3287,0.0,0.0,0.0,0.0,0.0,0.0,0.0,0.0,0.0,0.0,0.0,0.0,0.0,0.0,0.0,0.0,0.0,0.0,0.0,0.0,0.0,0.0,0.0,0.0,0.0,0.0,0.0,0.0,0.0,0.0,0.0,0.0,0.0,0.0,0.0,0.0,0.0,0.0,0.0,0.0,0.0,0.0,0.0,0.0,0.0,0.0,0.0,0.0,0.0,0.0,0.0,0.0,0.0,0.0,0.0,0.0,0.0,0.0,0.0,0.0,0.0,0.0,0.0,0.0,0.0,0.0,0.0,0.0,0.0,0.0,0.0,0.0,0.0,0.0,0.0,0.0,0.0,0.0,0.0,0.0,0.0,0.0,0.0,0.0,0.0,0.0,0.0,0.0,0.0,0.0,0.0,0.0,0.0,0.0,0.0,0.0,0.0,0.0,0.0,0.0,0.0,0.0,0.0,0.0,-2.3423,-2.4945,-2.53,-2.5652,-2.5988,-2.5581,-2.4933,-2.3975,0.0,0.0,0.0,0.0,0.0,0.0,0.0,0.0,0.0,0.0,0.0,0.0,0.0,0.0,0.0,0.0,0.0,0.0,0.0,0.0,0.0,0.0,0.0,0.0,0.0,0.0,0.0,0.0,0.0,0.0,0.0,0.0,0.0,0.0,0.0,0.0,0.0,0.0,0.0,0.0,0.0,0.0,0.0,0.0,0.0,0.0,0.0,0.0,0.0,0.0,0.0,0.0,0.0,0.0,0.0,0.0,0.0,0.0,0.0,0.0,0.0,0.0,0.0,0.0,0.0,0.0,0.0,0.0,0.0,0.0,0.0,0.0,0.0,0.0,0.0,0.0,0.0,0.0,0.0,0.0,0.0,0.0,0.0,0.0,0.0,0.0,0.0,0.0,0.0,0.0,0.0,0.0,0.0,0.0,0.0,0.0,0.0,0.0,0.0,0.0,0.0,0.0,0.0,-2.4131,-2.5134,-2.5791,-2.6277,-2.6483,-2.6427,-2.5721,-2.4933,-2.412,-2.3423,0.0,0.0,0.0,0.0,0.0,0.0,0.0,0.0,0.0,0.0,0.0,0.0,0.0,0.0,0.0,0.0,0.0,0.0,0.0,0.0,0.0,0.0,0.0,0.0,0.0,0.0,0.0,0.0,0.0,0.0,0.0,0.0,0.0,0.0,0.0,0.0,0.0,0.0,0.0,0.0,0.0,0.0,0.0,0.0,0.0,0.0,0.0,0.0,0.0,0.0,0.0,0.0,0.0,0.0,0.0,0.0,0.0,0.0,0.0,0.0,0.0,0.0,0.0,0.0,0.0,0.0,0.0,0.0,0.0,0.0,0.0,0.0,0.0,0.0,0.0,0.0,0.0,0.0,0.0,0.0,0.0,0.0,0.0,0.0,0.0,0.0,0.0,0.0,0.0,0.0,0.0,0.0,0.0,0.0,0.0,0.0,0.0,0.0,0.0,0.0,0.0,0.0,-2.5475,-2.6414,-2.6414,-2.704,-2.7255,-2.6701,-2.6111,-2.5349,-2.442,-2.3857,0.0,0.0,0.0,0.0,0.0,0.0,0.0,0.0,0.0,0.0,0.0,0.0,0.0,0.0,0.0,0.0,0.0,0.0,0.0,0.0,0.0,0.0,0.0,0.0,0.0,0.0,0.0,0.0,0.0,0.0,0.0,0.0,0.0,0.0,0.0,0.0,0.0,0.0,0.0,0.0,0.0,0.0,0.0,0.0,0.0,0.0,0.0,0.0,0.0,0.0,0.0,0.0,0.0,0.0,0.0,0.0,0.0,0.0,0.0,0.0,0.0,0.0,0.0,0.0,0.0,0.0,0.0,0.0,0.0,0.0,0.0,0.0,0.0,0.0,0.0,0.0,0.0,0.0,0.0,0.0,0.0,0.0,0.0,0.0,0.0,0.0,0.0,0.0,0.0,0.0,0.0,0.0,0.0,0.0,0.0,0.0,0.0,0.0,0.0,0.0,0.0,0.0,-2.5475,-2.6414,-2.6414,-2.704,-2.7469,-2.7456,-2.7145,-2.6436,-2.5265,-2.509,0.0,0.0,0.0,0.0,0.0,0.0,0.0,0.0,0.0,0.0,0.0,0.0,0.0,0.0,0.0,0.0,0.0,0.0,0.0,0.0,0.0,0.0,0.0,0.0,0.0,0.0,0.0,0.0,0.0,0.0,0.0,0.0,0.0,0.0,0.0,0.0,0.0,0.0,0.0,0.0,0.0,0.0,0.0,0.0,0.0,0.0,0.0,0.0,0.0,0.0,0.0,0.0,0.0,0.0,0.0,0.0,0.0,0.0,0.0,0.0,0.0,0.0,0.0,0.0,0.0,0.0,0.0,0.0,0.0,0.0,0.0,0.0,0.0,0.0,0.0,0.0,0.0,0.0,0.0,0.0,0.0,0.0,0.0,0.0,0.0,0.0,0.0,0.0,0.0,0.0,0.0,0.0,0.0,0.0,0.0,0.0,0.0,0.0,0.0,0.0,0.0,0.0,-2.6471,-2.7121,-2.7121,-2.7323,-2.7667,-2.8033,-2.7538,-2.6912,-2.6103,0.0,0.0,0.0,0.0,0.0,0.0,0.0,0.0,0.0,0.0,0.0,0.0,0.0,0.0,0.0,0.0,0.0,0.0,0.0,0.0,0.0,0.0,0.0,0.0,0.0,0.0,0.0,0.0,0.0,0.0,0.0,0.0,0.0,0.0,0.0,0.0,0.0,0.0,0.0,0.0,0.0,0.0,0.0,0.0,0.0,0.0,0.0,0.0,0.0,0.0,0.0,0.0,0.0,0.0,0.0,0.0,0.0,0.0,0.0,0.0,0.0,0.0,0.0,0.0,0.0,0.0,0.0,0.0,0.0,0.0,0.0,0.0,0.0,0.0,0.0,0.0,0.0,0.0,0.0,0.0,0.0,0.0,0.0,0.0,0.0,0.0,0.0,0.0,0.0,0.0,0.0,0.0,0.0,0.0,0.0,0.0,0.0,0.0,0.0,0.0,0.0,0.0,-2.6527,-2.7477,-2.8085,-2.8085,-2.8085,-2.8242,-2.8634,-2.8086,-2.7311,-2.6526,0.0,0.0,0.0,0.0,0.0,0.0,0.0,0.0,0.0,0.0,0.0,0.0,0.0,0.0,0.0,0.0,0.0,0.0,0.0,0.0,0.0,0.0,0.0,0.0,0.0,0.0,0.0,0.0,0.0,0.0,0.0,0.0,0.0,0.0,0.0,0.0,0.0,0.0,0.0,0.0,0.0,0.0,0.0,0.0,0.0,0.0,0.0,0.0,0.0,0.0,0.0,0.0,0.0,0.0,0.0,0.0,0.0,0.0,0.0,0.0,0.0,0.0,0.0,0.0,0.0,0.0,0.0,0.0,0.0,0.0,0.0,0.0,0.0,0.0,0.0,0.0,0.0,0.0,0.0,0.0,0.0,0.0,0.0,0.0,0.0,0.0,0.0,0.0,0.0,0.0,0.0,0.0,0.0,0.0,0.0,0.0,0.0,0.0,0.0,0.0,0.0,0.0,-2.716,-2.8473,-2.9274,-2.9274,-2.9274,-2.9274,-2.9287,-2.8796,-2.7949,0.0,0.0,0.0,0.0,0.0,0.0,0.0,0.0,0.0,0.0,0.0,0.0,0.0,0.0,0.0,0.0,0.0,0.0,0.0,0.0,0.0,0.0,0.0,0.0,0.0,0.0,0.0,0.0,0.0,0.0,0.0,0.0,0.0,0.0,0.0,0.0,0.0,0.0,0.0,0.0,0.0,0.0,0.0,0.0,0.0,0.0,0.0,0.0,0.0,0.0,0.0,0.0,0.0,0.0,0.0,0.0,0.0,0.0,0.0,0.0,0.0,0.0,0.0,0.0,0.0,0.0,0.0,0.0,0.0,0.0,0.0,0.0,0.0,0.0,0.0,0.0,0.0,0.0,0.0,0.0,0.0,0.0,0.0,0.0,0.0,0.0,0.0,0.0,0.0,0.0,0.0,0.0,0.0,0.0,0.0,0.0,0.0,0.0,0.0,0.0,0.0,0.0,0.0,-2.8109,-2.8549,-2.8808,-2.8808,-2.8808,-2.8975,-2.94,-2.8712,-2.7948,-2.7238,0.0,0.0,0.0,0.0,0.0,0.0,0.0,0.0,0.0,0.0,0.0,0.0,0.0,0.0,0.0,0.0,0.0,0.0,0.0,0.0,0.0,0.0,0.0,0.0,0.0,0.0,0.0,0.0,0.0,0.0,0.0,0.0,0.0,0.0,0.0,0.0,0.0,0.0,0.0,0.0,0.0,0.0,0.0,0.0,0.0,0.0,0.0,0.0,0.0,0.0,0.0,0.0,0.0,0.0,0.0,0.0,0.0,0.0,0.0,0.0,0.0,0.0,0.0,0.0,0.0,0.0,0.0,0.0,0.0,0.0,0.0,0.0,0.0,0.0,0.0,0.0,0.0,0.0,0.0,0.0,0.0,0.0,0.0,0.0,0.0,0.0,0.0,0.0,0.0,0.0,0.0,0.0,0.0,0.0,0.0,0.0,0.0,0.0,0.0,0.0,0.0,0.0,-2.8851,-2.9202,-2.933,-2.933,-2.933,-2.9471,-2.983,-2.8986,-2.8168,-2.7533,0.0,0.0,0.0,0.0,0.0,0.0,0.0,0.0,0.0,0.0,0.0,0.0,0.0,0.0,0.0,0.0,0.0,0.0,0.0,0.0,0.0,0.0,0.0,0.0,0.0,0.0,0.0,0.0,0.0,0.0,0.0,0.0,0.0,0.0,0.0,0.0,0.0,0.0,0.0,0.0,0.0,0.0,0.0,0.0,0.0,0.0,0.0,0.0,0.0,0.0,0.0,0.0,0.0,0.0,0.0,0.0,0.0,0.0,0.0,0.0,0.0,0.0,0.0,0.0,0.0,0.0,0.0,0.0,0.0,0.0,0.0,0.0,0.0,0.0,0.0,0.0,0.0,0.0,0.0,0.0,0.0,0.0,0.0,0.0,0.0,0.0,0.0,0.0,0.0,0.0,0.0,0.0,0.0,0.0,0.0,0.0,0.0,0.0,0.0,0.0,0.0,0.0,-2.9389,-2.9985,-3.0368,-3.0368,-3.0368,-3.0292,-3.0203,-2.9263,-2.8303,-2.7383,0.0,0.0,0.0,0.0,0.0,0.0,0.0,0.0,0.0,0.0,0.0,0.0,0.0,0.0,0.0,0.0,0.0,0.0,0.0,0.0,0.0,0.0,0.0,0.0,0.0,0.0,0.0,0.0,0.0,0.0,0.0,0.0,0.0,0.0,0.0,0.0,0.0,0.0,0.0,0.0,0.0,0.0,0.0,0.0,0.0,0.0,0.0,0.0,0.0,0.0,0.0,0.0,0.0,0.0,0.0,0.0,0.0,0.0,0.0,0.0,-2.5728,-2.5644,0.0,0.0,0.0,0.0,0.0,0.0,0.0,0.0,0.0,0.0,0.0,0.0,0.0,0.0,0.0,0.0,0.0,0.0,0.0,0.0,0.0,0.0,0.0,0.0,0.0,0.0,0.0,0.0,0.0,0.0,0.0,0.0,0.0,0.0,0.0,0.0,0.0,0.0,0.0,0.0,-2.968,-2.9871,-2.9934,-2.9934,-2.9934,-2.9689,-2.8937,-2.8039,-2.7058,-2.6235,-2.5263,0.0,0.0,0.0,0.0,0.0,0.0,0.0,0.0,0.0,0.0,0.0,0.0,0.0,0.0,0.0,0.0,0.0,0.0,0.0,0.0,0.0,0.0,0.0,0.0,0.0,0.0,0.0,0.0,0.0,0.0,0.0,0.0,0.0,0.0,0.0,0.0,0.0,0.0,0.0,0.0,0.0,0.0,0.0,0.0,0.0,0.0,0.0,0.0,0.0,0.0,0.0,0.0,0.0,0.0,0.0,0.0,0.0,0.0,0.0,-2.5895,-2.5895,0.0,0.0,0.0,0.0,0.0,0.0,0.0,0.0,0.0,0.0,0.0,0.0,0.0,0.0,0.0,0.0,0.0,0.0,0.0,0.0,0.0,0.0,0.0,0.0,0.0,0.0,0.0,0.0,0.0,0.0,0.0,0.0,0.0,0.0,0.0,0.0,0.0,0.0,0.0,0.0,-2.9792,-2.9792,-2.9624,-2.9209,-2.9209,-2.8791,-2.7891,-2.6987,-2.6318,-2.5819,-2.4935,0.0,0.0,0.0,0.0,0.0,0.0,0.0,0.0,0.0,0.0,0.0,0.0,0.0,0.0,0.0,0.0,0.0,0.0,0.0,0.0,0.0,0.0,0.0,0.0,0.0,0.0,0.0,0.0,0.0,0.0,0.0,0.0,0.0,0.0,0.0,0.0,0.0,0.0,0.0,0.0,0.0,0.0,0.0,0.0,0.0,0.0,0.0,0.0,0.0,0.0,0.0,0.0,0.0,-2.6135,-2.6146,-2.6146,-2.6146,-2.6146,-2.6146,-2.5979,-2.5895,-2.5895,-2.5895,0.0,0.0,0.0,0.0,0.0,0.0,0.0,0.0,0.0,0.0,0.0,0.0,0.0,0.0,0.0,0.0,0.0,0.0,0.0,0.0,0.0,0.0,-2.454,-2.454,-2.454,-2.454,-2.454,0.0,0.0,0.0,0.0,0.0,0.0,0.0,0.0,0.0,0.0,0.0,-2.93,-2.93,-2.904,-2.8291,-2.8291,-2.7879,-2.6976,-2.6235,-2.5746,-2.5579,-2.4946,-2.454,0.0,0.0,0.0,0.0,0.0,0.0,0.0,0.0,0.0,0.0,0.0,0.0,0.0,0.0,0.0,0.0,0.0,0.0,0.0,0.0,0.0,0.0,0.0,0.0,0.0,0.0,0.0,0.0,0.0,0.0,0.0,0.0,-2.296,-2.3057,0.0,0.0,0.0,0.0,0.0,0.0,0.0,0.0,0.0,0.0,0.0,0.0,0.0,-2.6846,-2.7476,-2.6445,-2.6456,-2.7313,-2.7092,-2.7021,-2.7021,-2.7021,-2.7021,-2.7021,-2.6218,0.0,-2.5895,-2.5895,0.0,0.0,0.0,0.0,0.0,0.0,0.0,0.0,0.0,0.0,0.0,0.0,0.0,0.0,0.0,0.0,0.0,0.0,0.0,0.0,0.0,0.0,-2.454,-2.454,-2.454,-2.454,-2.454,-2.454,-2.454,-2.454,-2.454,-2.4786,0.0,0.0,0.0,0.0,0.0,0.0,-2.7476,-2.7476,-2.7395,-2.7313,-2.7313,-2.6905,-2.6069,-2.5902,-2.5505,-2.47,-2.454,-2.454,-2.454,-2.454,0.0,0.0,0.0,0.0,0.0,0.0,0.0,0.0,0.0,0.0,0.0,0.0,0.0,0.0,0.0,0.0,0.0,0.0,0.0,0.0,0.0,0.0,0.0,0.0,0.0,0.0,0.0,0.0,0.0,-2.2784,-2.3309,-2.381,-2.4659,-2.5579,0.0,0.0,0.0,0.0,0.0,0.0,0.0,0.0,0.0,-2.8912,-2.8426,-2.8347,-2.8743,-2.8039,-2.7879,-2.8164,-2.8096,-2.7947,-2.7879,-2.7476,-2.7336,-2.7185,-2.6302,-2.5895,-2.5895,-2.5895,-2.5895,-2.5895,0.0,0.0,0.0,0.0,-2.5464,-2.4935,-2.485,-2.4231,-2.3434,-2.3464,0.0,0.0,0.0,0.0,0.0,0.0,0.0,-2.4003,-2.4358,-2.454,-2.454,-2.454,-2.454,-2.454,-2.454,-2.454,-2.454,-2.454,-2.454,-2.4786,-2.5663,-2.5819,0.0,0.0,0.0,-2.7069,-2.7069,-2.7069,-2.6894,-2.64,-2.64,-2.5997,-2.5105,-2.5105,-2.4946,-2.454,-2.454,-2.454,-2.454,-2.454,-2.454,0.0,0.0,0.0,0.0,0.0,0.0,0.0,0.0,0.0,0.0,0.0,0.0,0.0,0.0,0.0,0.0,0.0,0.0,0.0,0.0,0.0,0.0,0.0,0.0,0.0,0.0,0.0,0.0,-2.3309,-2.3734,-2.4413,-2.5495,-2.6412,0.0,0.0,0.0,0.0,0.0,0.0,-2.9419,-2.9639,-2.9858,-3.0165,-2.9691,-2.9614,-2.9858,-2.9303,-2.8978,-2.902,-2.8954,-2.873,-2.8347,-2.7947,-2.7568,-2.7185,-2.6302,-2.5895,-2.5895,-2.5895,-2.5895,-2.5895,-2.5895,-2.5895,-2.5895,-2.5895,-2.5728,-2.5475,-2.485,-2.4317,-2.38,-2.3917,-2.3734,-2.3551,-2.4272,0.0,0.0,0.0,0.0,-2.454,-2.454,-2.454,-2.454,-2.454,-2.454,-2.454,-2.454,-2.454,-2.454,-2.454,-2.454,-2.47,-2.5337,-2.5505,0.0,-2.6329,-2.6412,-2.6412,-2.6412,-2.6412,-2.6163,-2.5505,-2.5505,-2.5179,-2.454,-2.454,-2.454,-2.454,-2.454,-2.454,-2.454,-2.454,-2.454,-2.454,0.0,0.0,0.0,0.0,0.0,0.0,0.0,0.0,0.0,0.0,0.0,0.0,0.0,0.0,0.0,0.0,0.0,0.0,0.0,0.0,0.0,0.0,0.0,0.0,0.0,0.0,0.0,0.0,0.0,-2.4498,-2.6091,0.0,0.0,0.0,0.0,-2.851,-2.8895,-2.9197,-2.9419,-2.9806,-2.9871,-2.9704,-2.9704,-2.9858,-3.0254,-2.9279,-2.911,-2.9909,-2.9768,-2.9213,-2.8426,-2.8347,-2.7959,-2.7185,-2.6302,-2.5895,-2.5895,-2.5895,-2.5895,-2.5895,-2.5895,-2.5895,-2.5895,-2.5895,-2.5728,-2.5559,-2.5285,-2.5031,-2.4775,-2.4529,-2.4454,-2.4454,-2.4454,-2.454,0.0,0.0,-2.454,-2.454,-2.454,-2.454,-2.454,-2.454,-2.454,-2.454,-2.454,-2.454,-2.454,-2.454,-2.454,-2.454,-2.454,0.0,-2.4625,-2.4615,-2.4615,-2.4615,-2.4615,-2.4615,-2.4625,-2.454,-2.454,-2.454,-2.454,-2.454,-2.454,-2.454,-2.454,-2.454,-2.454,-2.454,-2.454,-2.454,-2.4454,0.0,0.0,0.0,0.0,0.0,0.0,0.0,0.0,0.0,0.0,0.0,0.0,0.0,0.0,0.0,0.0,0.0,0.0,0.0,0.0,0.0,0.0,0.0,0.0,0.0,0.0,0.0,0.0,-2.5242,-2.6423,0.0,-2.8007,-2.8351,-2.851,-2.851,-2.9341,-2.9871,-2.9947,-3.0872,-3.1334,-3.111,-3.096,-3.0973,-3.1123,-3.0482,-3.0406,-3.0872,-3.0797,-3.0241,-2.9225,-2.8809,-2.8108,-2.7185,-2.6302,-2.5895,-2.5895,-2.5895,-2.5895,-2.5895,-2.5895,-2.5895,-2.5895,-2.5728,-2.5644,-2.5559,-2.5115,-2.4946,-2.4861,-2.4625,-2.454,-2.454,-2.454,-2.454,-2.454,-2.454,-2.454,-2.454,-2.454,-2.454,-2.454,-2.454,-2.454,-2.454,-2.454,-2.454,-2.454,-2.454,-2.454,-2.47,-2.5263,-2.4861,-2.47,-2.5263,-2.4861,-2.454,-2.454,-2.454,-2.454,-2.454,-2.454,-2.454,-2.454,-2.454,-2.454,-2.454,-2.454,-2.454,-2.454,-2.454,-2.409,-2.3367,-2.2736,-2.2385,0.0,0.0,0.0,0.0,0.0,0.0,0.0,0.0,0.0,0.0,0.0,0.0,0.0,0.0,0.0,0.0,0.0,0.0,0.0,0.0,0.0,0.0,0.0,0.0,0.0,-2.381,-2.4734,-2.5663,-2.6588,-2.751,-2.8431,-2.851,-2.8578,-2.8816,-2.9651,-3.033,-3.062,-3.1556,-3.2036,-3.2036,-3.1817,-3.1683,-3.1609,-3.1299,-3.1123,-3.1198,-3.1198,-3.0495,-2.9225,-2.8809,-2.7947,-2.6704,-2.6146,-2.5895,-2.5895,-2.5895,-2.5895,-2.5895,-2.5895,-2.5895,-2.5906,-2.5644,-2.5559,-2.5391,-2.4956,-2.4786,-2.47,-2.4176,-2.4272,-2.4454,-2.409,-2.4272,-2.454,-2.454,-2.454,-2.454,-2.454,-2.454,-2.454,-2.454,-2.454,-2.454,-2.454,-2.454,-2.454,-2.454,-2.454,-2.47,-2.5263,-2.4861,-2.47,-2.5253,-2.4861,-2.454,-2.454,-2.454,-2.454,-2.454,-2.454,-2.454,-2.454,-2.454,-2.454,-2.454,-2.4186,-2.4003,-2.4003,-2.4003,-2.3637,-2.2824,-2.1836,-2.1302,-2.1409,0.0,0.0,0.0,0.0,0.0,0.0,0.0,0.0,0.0,0.0,0.0,0.0,0.0,0.0,0.0,0.0,0.0,0.0,0.0,0.0,0.0,0.0,0.0,-2.2715,-2.3551,-2.4563,-2.5652,-2.667,-2.7592,-2.8431,-2.851,-2.8736,-2.9341,-2.9806,-3.033,-3.1145,-3.1643,-3.2036,-3.2182,-3.2036,-3.1817,-3.1596,-3.136,-3.1198,-3.0986,-3.0986,-3.0101,-2.8426,-2.8426,-2.7476,-2.5895,-2.5895,-2.5895,-2.5895,-2.5895,-2.5895,-2.5895,-2.5895,-2.5895,-2.5895,-2.5644,-2.538,-2.5031,-2.4615,-2.4454,-2.4272,-2.3367,-2.3637,-2.4272,-2.3367,-2.3724,-2.4454,-2.4454,-2.4454,-2.4454,-2.4454,-2.4454,-2.454,-2.454,-2.454,-2.454,-2.454,-2.454,-2.454,-2.454,-2.454,-2.454,-2.454,-2.454,-2.454,-2.454,-2.454,0.0,-2.454,-2.454,-2.454,-2.454,-2.454,-2.454,-2.454,-2.4454,-2.4454,-2.4454,-2.3551,-2.3008,-2.3008,-2.3008,-2.3008,-2.3008,-2.1836,-2.0584,-1.9438,0.0,0.0,0.0,0.0,0.0,0.0,0.0,0.0,0.0,0.0,0.0,0.0,0.0,0.0,0.0,0.0,0.0,0.0,0.0,0.0,0.0,-2.183,-2.2008,-2.2715,-2.4145,-2.5316,-2.5746,-2.7174,-2.8259,-2.851,-2.851,-2.859,-2.8736,-2.9639,-3.0317,-3.0545,-3.1569,-3.2109,-3.1963,-3.1817,-3.1596,-3.1347,-3.1211,-3.1061,-3.0986,-3.0986,-3.0419,-2.9303,-2.8664,-2.7799,-2.6787,-2.6135,-2.5895,-2.5895,-2.5895,-2.5895,-2.5895,-2.5895,-2.5895,-2.5812,-2.5464,-2.4584,-2.3531,-2.2755,-2.2492,-2.2403,-2.2138,-2.2227,-2.258,-2.3008,-2.2833,-2.258,-2.328,-2.3454,-2.3454,-2.3454,-2.4003,-2.454,-2.454,-2.454,-2.454,-2.454,-2.454,-2.454,-2.454,-2.454,-2.454,-2.454,-2.454,-2.454,-2.454,-2.454,-2.454,-2.454,-2.454,-2.454,-2.454,-2.454,-2.454,-2.454,-2.3907,-2.3454,-2.3454,-2.257,-2.2031,-2.1836,-2.1826,-2.1293,-2.0215,-1.977,-1.8964,0.0,0.0,0.0,0.0,0.0,0.0,0.0,0.0,0.0,0.0,0.0,0.0,0.0,0.0,0.0,0.0,0.0,0.0,0.0,0.0,0.0,0.0,-2.1741,-2.1919,-2.2451,-2.3377,-2.4467,-2.5568,-2.6577,-2.7498,-2.8119,-2.8174,-2.8168,-2.8236,-2.8887,-2.9401,-2.9638,-3.0377,-3.0816,-3.0903,-3.0904,-3.0973,-3.1061,-3.0986,-3.0986,-3.0986,-3.0659,-3.0024,-2.9147,-2.8267,-2.7406,-2.6622,-2.6146,-2.5895,-2.5895,-2.5895,-2.5895,0.0,0.0,0.0,0.0,0.0,-2.3617,-2.2394,-2.1872,-2.1695,-2.1606,-2.1248,-2.1427,-2.1695,-2.1854,-2.1863,-2.1784,-2.2394,-2.2482,-2.257,-2.3008,-2.3193,-2.356,-2.4272,-2.4186,-2.4003,-2.4454,-2.454,-2.454,-2.454,-2.4176,0.0,-2.3907,-2.4272,-2.454,-2.454,-2.454,-2.4358,-2.3993,-2.3907,-2.3734,-2.3387,-2.3299,-2.3299,-2.3299,-2.2843,0.0,0.0,0.0,-2.097,-2.0683,-2.0593,0.0,0.0,0.0,-1.8419,-1.7326,0.0,0.0,0.0,-1.7792,-1.8319,0.0,0.0,0.0,0.0,0.0,0.0,0.0,0.0,0.0,0.0,0.0,0.0,0.0,0.0,0.0,0.0,-2.1516,-2.1569,-2.1933,-2.1985,-2.2824,-2.5146,-2.5449,-2.6065,-2.7436,-2.7633,-2.7657,-2.7681,-2.7791,-2.8122,-2.8767,-2.8921,0.0,0.0,0.0,-3.0165,-3.0533,-3.0672,-3.0748,-3.0659,-2.9947,-2.9147,-2.8347,-2.7568,-2.6787,-2.6063,-2.5895,-2.5895,-2.5895,-2.5895,-2.5812,-2.5717,-2.5717,-2.5464,-2.5031,-2.3607,-2.2473,-2.1516,-2.1427,0.0,0.0,-2.043,-2.0709,-2.1248,-2.052,-2.0791,-2.1427,-2.1516,-2.1516,-2.1686,-2.2561,-2.2217,-2.2138,-2.3831,-2.3551,-2.3193,-2.4003,-2.4186,-2.4186,-2.4186,-2.3551,-2.2921,-2.2921,-2.3637,-2.4186,-2.4186,-2.4186,-2.3917,-2.3008,-2.2921,-2.2658,-2.1784,0.0,0.0,-2.1695,-2.1606,-2.1516,-2.1516,-2.061,-1.9886,-1.9621,-1.9347,-1.9155,-1.8864,-1.8864,-1.8411,-1.7326,-1.7326,-1.7347,-1.7384,-1.8303,-1.8832,0.0,0.0,0.0,0.0,0.0,0.0,0.0,0.0,0.0,0.0,0.0,0.0,0.0,0.0,0.0,-2.0439,-2.0277,-2.0351,-2.114,-2.1038,-2.1786,-2.4541,-2.5212,-2.5888,-2.694,-2.7079,-2.7043,-2.7085,-2.7496,-2.8051,-2.8575,-2.9136,-2.9615,-3.015,-2.9705,-2.9524,-2.9614,-2.9147,-2.89,-2.89,-2.8743,0.0,-2.8347,-2.7568,-2.7103,-2.694,-2.6229,-2.5895,-2.5895,-2.5895,-2.5369,-2.4488,-2.4488,-2.3704,-2.2561,-2.1569,-2.0872,-2.0439,-1.9629,-1.9363,-1.9363,-1.9188,-1.918,-1.9455,-2.0076,-1.9903,0.0,-2.0348,-2.061,-2.061,-2.0791,-2.1239,-2.1784,-2.2138,-2.2138,-2.205,-2.2227,-2.2227,-2.2227,-2.2227,-2.205,-2.1961,-2.1961,-2.2138,-2.2227,-2.2227,-2.2227,-2.2138,-2.1952,-2.1961,-2.1872,-2.1695,-2.1695,-2.1695,-2.1695,-2.0979,-2.061,-2.061,-1.9263,-1.845,-1.8179,-1.7885,-1.7692,-1.7692,-1.7692,-1.7505,-1.7326,-1.7326,-1.7465,-1.7721,-1.7904,-1.8037,0.0,0.0,0.0,0.0,0.0,0.0,0.0,0.0,0.0,0.0,0.0,-1.6192,-1.7749,0.0,-1.8162,-1.9159,-1.9394,-1.9592,-2.011,-2.0289,-2.1167,-2.3381,-2.378,-2.4425,-2.5553,-2.5831,-2.5875,-2.5872,-2.6505,-2.7054,-2.7323,-2.7748,-2.824,-2.8996,-2.8542,-2.8518,-2.8912,-2.8585,-2.8426,-2.8426,-2.7959,-2.7799,-2.7799,-2.694,-2.6539,-2.6539,-2.6063,-2.5728,-2.538,-2.4765,-2.379,-2.2648,-2.2454,-2.1924,-2.1221,-2.0692,-2.0068,-1.9455,-1.9004,-1.8827,-1.8827,-1.8827,-1.8827,-1.892,-1.9363,-1.9188,-1.8912,-1.9455,-1.9538,-1.9629,-2.0167,-2.0257,-2.0529,-2.1427,-2.1338,-2.1159,-2.1606,-2.1695,-2.1695,-2.1695,-2.1338,-2.097,-2.097,-2.0619,-2.0619,-2.1516,-2.1695,-2.1516,-2.106,-2.097,-2.0799,-2.0257,-2.0266,-2.0266,-2.0266,-1.9729,-1.9371,-1.9371,-1.8458,-1.7815,-1.7729,-1.7426,-1.7326,-1.7326,-1.7326,-1.7326,-1.7326,-1.7326,-1.7494,-1.7816,-1.7984,-1.8145,0.0,0.0,0.0,0.0,0.0,0.0,0.0,-1.1843,-1.2579,-1.4313,-1.4787,-1.5307,-1.6579,-1.6649,-1.6823,-1.7803,-1.8303,-1.8675,-1.911,-1.954,-2.0304,-2.1828,-2.211,-2.2687,-2.3895,-2.4521,-2.4865,-2.4809,-2.5682,-2.6298,-2.6406,-2.6523,-2.696,-2.7795,-2.7301,-2.7418,-2.8223,-2.8039,-2.7867,-2.7879,-2.7255,-2.694,-2.694,-2.6218,-2.5812,-2.5728,-2.5549,-2.52,-2.4594,-2.327,-2.2217,-2.1239,-2.0512,-2.024,-2.024,-2.0076,-1.9546,-1.8827,-1.8827,-1.8827,-1.8827,-1.8827,-1.8827,-1.8827,-1.8827,-1.8827,-1.8827,-1.8827,-1.8827,-1.9004,-1.9812,-1.9455,-1.9188,-2.0799,-2.0529,-2.0257,-2.0979,-2.1159,-2.1159,-2.1159,-2.0529,-1.9985,-1.9985,-1.9363,-1.9363,-2.0889,-2.1159,-2.0889,-2.0076,-1.9985,-1.972,-1.892,-1.8827,-1.8735,-1.8743,-1.8566,-1.8481,-1.8388,-1.7916,-1.7721,-1.7628,-1.7426,-1.7326,-1.7326,-1.7138,-1.7138,-1.7326,-1.7138,-1.7334,-1.7918,-1.8182,-1.8474,-0.7136,-0.7401,-0.7312,-0.6688,-0.7742,-0.9152,0.0,-1.1144,-1.2531,-1.3167,-1.3943,-1.4669,-1.5176,-1.521,-1.5535,-1.6477,-1.6379,-1.6854,-1.8705,-1.8551,-1.8727,-2.0065,-2.083,-2.164,-2.2713,-2.3921,-2.4694,-2.4872,-2.6056,-2.7043,-2.7512,-2.7167,-2.7451,-2.8402,-2.7244,-2.6857,-2.7336,-2.6539,-2.6218,-2.6218,-2.6063,-2.6063,-2.6063,-2.5895,-2.5549,-2.4946,-2.4327,-2.3973,-2.38,-2.2208,-2.1418,-2.1159,-1.9629,-1.9004,-1.9004,-1.9004,-1.892,-1.8827,-1.8827,-1.8827,-1.8827,-1.8827,-1.8827,-1.8827,-1.8827,-1.8827,-1.8827,-1.8827,-1.8827,-1.8827,-1.892,-1.892,-1.8827,-1.9096,-1.9004,-1.9012,-1.9096,-1.9096,-1.9096,-1.9096,-1.9004,-1.9004,-1.9004,-1.8827,-1.8827,-1.9096,-1.9096,-1.9096,-1.9004,-1.9004,-1.8912,-1.8827,-1.8827,-1.8743,-1.8574,-1.8481,-1.8295,-1.7822,-1.7721,-1.7628,-1.7333,-1.7333,-1.7326,-1.7326,-1.6466,-1.6372,-1.7326,-1.6372,-1.6766,-1.8247,-1.8284,-1.8474,-0.5356,-0.5894,-0.6251,-0.6157,-0.7136,-0.8372,-0.941,-1.0188,-1.1207,-1.2774,-1.3448,-1.3982,-1.4821,-1.4823,-1.4879,-1.521,-1.5612,-1.629,-1.7795,-1.8447,-1.9164,-2.009,-2.0814,-2.1341,-2.1937,-2.2867,-2.3926,-2.4867,-2.5807,-2.6757,-2.7627,-2.7364,-2.7542,-2.8498,-2.6951,-2.6456,-2.7185,-2.6302,-2.5895,-2.5895,-2.5895,-2.5895,-2.5906,-2.5464,-2.4946,-2.4241,-2.356,-2.3222,-2.3125,-2.1436,-2.0727,-2.0637,-1.9279,-1.8827,-1.8827,-1.8827,-1.8827,-1.8827,-1.8827,-1.8827,-1.8827,-1.8827,-1.8827,-1.8827,-1.8827,-1.8827,-1.8827,-1.8827,-1.8827,-1.8827,-1.8827,-1.8827,-1.8827,-1.8827,-1.8827,-1.8827,-1.8827,-1.8827,-1.8827,-1.8827,-1.8827,-1.8827,-1.8827,-1.8827,-1.8827,-1.8827,-1.8827,-1.8743,-1.8658,-1.8658,-1.8558,-1.8365,-1.8365,-1.8365,-1.828,-1.8102,-1.7916,-1.7721,-1.7527,-1.7426,-1.7326,-1.6756,-1.6466,-1.6466,-1.5412,-1.5127,-1.5507,-1.5127,-1.5422,-1.6487,-1.6487,-1.7049,-0.4022,-0.4559,-0.5272,-0.5267,-0.6248,-0.7492,-0.8619,-0.9231,-1.0149,-1.1893,-1.2458,-1.2961,-1.4141,-1.4252,-1.4167,-1.4429,-1.5099,-1.6001,-1.7102,-1.801,-1.9042,-2.0259,-2.0772,-2.1136,-2.1663,-2.2401,-2.34,-2.4607,-2.5436,-2.6279,-2.7032,-2.6723,-2.6928,-2.7672,-2.6102,-2.5779,-2.6846,-2.6041,-2.5644,-2.5644,-2.5644,-2.5549,-2.5285,-2.4605,-2.3993,-2.3464,-2.2784,-2.2539,-2.2353,-2.0925,-2.0292,-2.0201,-1.9196,-1.8827,-1.8827,-1.8827,-1.8827,-1.8827,-1.8827,-1.8827,-1.8827,-1.8827,-1.8827,-1.8827,-1.8827,-1.8827,-1.8827,-1.8827,-1.8827,-1.8827,-1.8827,-1.8827,-1.8827,-1.8827,-1.8827,-1.8827,-1.8827,-1.8827,-1.8827,-1.8827,-1.8827,-1.8827,-1.8827,-1.8827,-1.8827,-1.8827,-1.8735,-1.8651,-1.8566,-1.8574,-1.8388,-1.8087,-1.8087,-1.8087,-1.7994,-1.7815,-1.7535,-1.7239,-1.6951,-1.6756,-1.6466,-1.5798,-1.5412,-1.5412,-1.4364,-1.398,-1.4268,-1.398,-1.4252,-1.5077,-1.5077,-1.5881,-0.3224,-0.3667,-0.4198,-0.3487,-0.4905,-0.6505,-0.6776,-0.8448,-0.9946,-0.9951,-1.0733,-1.1682,-1.2558,-1.2928,-1.3448,-1.4342,-1.4756,-1.5473,-1.6778,-1.661,-1.7311,-1.9835,-2.0327,-2.0898,-2.2054,-2.2968,-2.3535,-2.3784,-2.5037,-2.5724,-2.5546,-2.5158,-2.5073,-2.5568,-2.4478,-2.4563,-2.5935,-2.5274,-2.4946,-2.4946,-2.4946,-2.4594,-2.38,-2.3135,-2.2891,-2.2794,-2.2087,-2.1731,-2.1651,-2.0744,-2.0292,-2.0201,-1.9196,-1.8827,-1.8827,-1.8827,-1.8827,-1.8827,-1.8827,-1.8827,-1.8827,-1.8827,-1.8827,-1.8827,-1.8827,-1.8827,-1.8827,-1.8827,-1.8827,-1.8827,-1.8827,-1.8827,-1.8827,-1.8827,-1.8827,-1.8827,-1.8827,-1.8827,-1.8827,-1.8827,-1.8827,-1.8827,-1.8827,-1.8827,-1.8827,-1.8827,-1.8658,-1.8574,-1.8735,-1.8658,-1.8388,-1.8087,-1.8087,-1.7994,-1.7721,-1.7721,-1.7145,-1.5893,-1.5893,-1.5412,-1.4459,-1.4364,-1.4364,-1.4364,-1.3307,-1.3307,-1.4268,-1.3307,-1.3565,-1.5077,-1.5077,-1.536,-0.1972,-0.2597,-0.3312,-0.322,-0.4374,-0.5528,-0.562,-0.6861,-0.8189,-0.8698,-0.9768,-1.0848,-1.1817,-1.2721,-1.344,-1.3715,-1.4592,-1.57,-1.6757,-1.6948,-1.7811,-2.013,-2.0687,-2.1307,-2.2495,-2.2843,-2.3342,-2.4176,-2.4555,-2.4893,-2.5484,-2.5073,-2.4999,-2.5495,-2.4392,-2.4221,-2.5168,-2.4498,-2.4155,-2.4155,-2.4155,-2.381,-2.3135,-2.2882,-2.2539,-2.2097,-2.183,-2.1741,-2.1651,-2.0654,-2.0292,-2.0201,-1.9196,-1.8827,-1.8735,-1.8257,-1.8071,-1.8164,-1.8635,-1.8827,-1.8827,-1.8827,-1.8827,-1.8827,-1.8827,-1.8827,-1.8735,-1.8164,-1.8071,-1.8071,-1.8071,-1.8071,-1.8164,-1.8635,-1.8827,-1.8827,-1.8827,-1.8827,-1.8827,-1.8827,-1.8827,-1.8827,-1.8827,-1.8827,-1.8542,-1.7692,-1.8087,-1.8388,-1.8094,-1.8001,-1.7908,-1.7613,-1.6943,-1.656,-1.6466,-1.5798,-1.5229,-1.4841,-1.4841,-1.4651,-1.4268,-1.3596,-1.321,-1.321,-1.2252,-1.1868,-1.2252,-1.1868,-1.2098,-1.2936,-1.2936,-1.3602,-0.0448,-0.1254,-0.206,-0.2058,-0.3217,-0.4374,-0.4374,-0.5356,-0.6508,-0.7112,-0.8217,-0.9332,-1.0404,-1.1919,-1.3158,-1.3525,-1.4692,-1.5824,-1.6551,-1.6729,-1.7498,-1.9604,-1.9861,-2.0593,-2.2246,-2.2432,-2.2862,-2.3897,-2.381,-2.3963,-2.4392,-2.4145,-2.4059,-2.4382,-2.3541,-2.3464,-2.4337,-2.3724,-2.3464,-2.3464,-2.3202,-2.2862,-2.2441,-2.2441,-2.2185,-2.1741,-2.1741,-2.1741,-2.1642,-2.0826,-2.0283,-1.982,-1.8996,-1.8357,-1.7986,-1.7512,-1.7326,-1.7412,-1.7893,-1.7986,-1.7986,-1.7986,-1.7986,-1.8079,-1.8357,-1.8265,-1.7986,-1.7785,-1.7505,-1.7326,-1.7326,-1.7326,-1.7419,-1.7893,-1.7986,-1.7986,-1.7986,-1.7986,-1.7986,-1.7986,-1.7986,-1.7986,-1.7986,-1.7885,-1.7404,-1.6452,-1.6842,-1.7131,-1.6662,-1.6567,-1.6473,-1.6278,-1.5609,-1.5222,-1.5222,-1.4651,-1.4172,-1.3788,-1.3692,-1.3596,-1.321,-1.2538,-1.2155,-1.2155,-1.1482,-1.1194,-1.1194,-1.1274,-1.1487,-1.1817,-1.1898,-1.2534,0.1253,0.0448,-0.0448,-0.0,-0.1522,-0.304,-0.304,-0.402,-0.4999,-0.527,-0.6253,-0.7343,-0.8525,-1.0745,-1.2736,-1.3602,-1.486,-1.5818,-1.6123,-1.5933,-1.648,-1.8149,-1.8141,-1.8948,-2.1418,-2.1606,-2.1961,-2.2872,-2.3047,-2.2872,-2.2441,-2.2441,-2.2441,-2.2441,-2.1909,-2.2264,-2.3416,-2.2979,-2.2715,-2.2715,-2.1998,-2.1741,-2.1741,-2.1741,-2.1741,-2.1741,-2.1741,-2.1651,-2.1553,-2.1087,-2.0167,-1.9063,-1.8519,-1.7598,-1.6588,-1.6588,-1.6581,-1.6487,-1.6494,-1.6487,-1.6588,-1.6588,-1.6588,-1.677,-1.7412,-1.7138,-1.677,-1.7412,-1.7044,-1.6581,-1.6581,-1.6581,-1.6588,-1.6581,-1.6588,-1.6588,-1.6588,-1.6588,-1.6588,-1.6588,-1.6588,-1.6588,-1.6588,-1.6183,-1.5697,-1.5406,-1.5108,-1.4823,-1.4651,-1.4555,-1.4555,-1.4364,-1.4268,-1.4172,-1.4172,-1.4172,-1.3692,-1.2732,-1.2635,-1.2155,-1.1194,-1.1194,-1.1194,-1.1194,-1.1194,-1.1194,-1.1194,-1.1411,-1.1619,-1.1822,-1.2039,-1.2247,0.0803,0.0896,0.0895,0.0985,-0.0,-0.1075,-0.0896,-0.2415,-0.3933,-0.4024,-0.5621,-0.7197,-0.787,-0.9718,-1.1475,-1.2767,-1.3779,-1.4816,-1.5798,-1.6028,-1.6581,-1.7948,-1.8234,-1.8872,-2.0413,-2.0593,-2.0683,-2.0962,-2.2325,-2.296,-2.2706,-2.253,-2.253,-2.2706,-2.2087,-2.1998,-2.2706,-2.2176,-2.2008,-2.2008,-2.182,-2.1741,-2.1741,-2.1741,-2.1741,-2.1741,-2.1741,-2.1186,-2.0348,-1.9886,-1.8964,-1.7762,-1.7225,-1.6864,-1.6487,-1.5913,-1.5724,-1.5629,-1.5057,-1.5629,-1.6588,-1.6588,-1.6588,-1.6676,-1.6864,-1.677,-1.6487,-1.6096,-1.5812,-1.5724,-1.5724,-1.5724,-1.5818,-1.6487,-1.6588,-1.6588,-1.6588,-1.6588,-1.6588,-1.6588,-1.6588,-1.6588,-1.6588,-1.5994,-1.5216,-1.4447,-1.3686,-1.359,-1.4268,-1.4555,-1.4555,-1.4364,-1.3596,-1.3113,-1.3113,-1.2441,-1.1868,-1.158,-1.158,-1.1482,-1.1194,-1.1194,-1.1194,-1.1194,-1.1194,-1.1194,-1.1194,-1.1411,-1.1619,-1.1822,-1.2039,-1.2247,0.185,0.1868,0.179,0.197,0.0896,-0.0179,-0.0179,-0.1523,-0.2867,-0.3047,-0.4901,-0.6456,-0.691,-0.8918,-1.0905,-1.1806,-1.3245,-1.4409,-1.523,-1.594,-1.6683,-1.7505,-1.7699,-1.8249,-1.9513,-1.9604,-1.9786,-2.0141,-2.1596,-2.2422,-2.2157,-2.2344,-2.2356,-2.236,-2.1729,-2.1461,-2.1547,-2.1286,-2.12,-2.12,-2.12,-2.1029,-2.0838,-2.0838,-2.0659,-2.0447,-2.0447,-1.9985,-1.9231,-1.8964,-1.8033,-1.6821,-1.6553,-1.6096,-1.5534,-1.5057,-1.4962,-1.4867,-1.449,-1.4867,-1.5629,-1.5629,-1.5629,-1.5629,-1.6008,-1.5825,-1.5534,-1.5439,-1.5146,-1.4962,-1.4962,-1.4962,-1.5057,-1.5439,-1.5629,-1.5629,-1.5629,-1.5629,-1.5629,-1.5629,-1.5439,-1.5255,-1.5255,-1.4472,-1.3692,-1.3119,-1.2446,-1.2252,-1.2829,-1.3022,-1.3022,-1.2926,-1.2446,-1.2058,-1.2058,-1.1482,-1.1194,-1.1194,-1.1194,-1.1194,-1.1194,-1.1194,-1.1194,-1.1194,-1.1194,-1.1194,-1.1194,-1.1501,-1.1709,-1.1827,-1.2129,-1.2332,0.3293,0.2903,0.2498,0.2955,0.1702,0.0269,-0.009,-0.0896,-0.1794,-0.2334,-0.4172,-0.5684,-0.5979,-0.8348,-1.049,-1.091,-1.2634,-1.4087,-1.4631,-1.5691,-1.6539,-1.6878,-1.6979,-1.7434,-1.8519,-1.8603,-1.8948,-1.9711,-2.0703,-2.1257,-2.1257,-2.1906,-2.2079,-2.1674,-2.1302,-2.0869,-2.0521,-2.0521,-2.0521,-2.0521,-2.0343,-2.009,-1.9624,-1.9536,-1.9198,-1.8716,-1.8716,-1.8548,-1.8118,-1.8118,-1.7274,-1.5974,-1.5974,-1.5229,-1.4298,-1.4298,-1.4298,-1.4298,-1.4298,-1.4298,-1.4298,-1.4298,-1.4298,-1.4394,-1.5057,-1.4771,-1.4388,-1.5057,-1.4771,-1.4298,-1.4298,-1.4298,-1.4298,-1.4298,-1.4298,-1.4298,-1.4298,-1.4298,-1.4298,-1.4298,-1.3823,-1.3539,-1.3539,-1.2662,-1.198,-1.198,-1.1585,-1.1194,-1.1194,-1.1194,-1.1194,-1.1194,-1.1194,-1.1194,-1.1194,-1.1194,-1.1194,-1.1194,-1.1194,-1.1194,-1.1194,-1.1194,-1.1194,-1.1194,-1.1194,-1.1208,-1.1241,-1.1628,-1.1831,-1.1869,-1.2257,-1.2441,0.2749,0.3132,0.3419,0.3924,0.3224,0.215,0.1074,0.009,-0.0987,-0.2243,-0.4037,-0.5594,-0.5965,-0.7638,-0.937,-1.0774,-1.1172,-1.2026,-1.4204,-1.4955,-1.5724,-1.6553,-1.7059,-1.7326,-1.7512,-1.7606,-1.7587,-1.7493,-1.8359,-1.9512,-2.1025,-2.1661,-2.1569,-2.0725,-2.0885,-2.0763,-2.0521,-2.0521,-2.0521,-2.0521,-1.9742,-1.9341,-1.923,-1.8539,-1.829,-1.8359,-1.8359,-1.7781,-1.6814,-1.6814,-1.5981,-1.4669,-1.4669,-1.4484,-1.4298,-1.4298,-1.4298,-1.4298,-1.4298,-1.4298,-1.4298,-1.4298,-1.4298,-1.4298,-1.4484,-1.4388,-1.4298,-1.4484,-1.4388,-1.4298,-1.4298,-1.4298,-1.4298,-1.4298,-1.4298,-1.4298,-1.4298,-1.4298,-1.4298,-1.4298,-1.3823,-1.3539,-1.3539,-1.2662,-1.198,-1.198,-1.1585,-1.1194,-1.1194,-1.1194,-1.1194,-1.1194,-1.1194,-1.1194,-1.1194,-1.1194,-1.1194,-1.1194,-1.1194,-1.1194,-1.1194,-1.1194,-1.1194,-1.1194,-1.1194,-1.1283,-1.1463,-1.1699,-1.1907,-1.2091,-1.2328,-1.2441,0.2586,0.2879,0.3349,0.4035,0.335,0.2208,0.116,0.0179,-0.0986,-0.2423,-0.4208,-0.5646,-0.579,-0.7368,-0.8882,-0.9763,-1.0508,-1.1389,-1.2711,-1.4138,-1.519,-1.5711,-1.6373,-1.6828,-1.6828,-1.6828,-1.6679,-1.6436,-1.73,-1.8345,-1.9297,-2.0077,-2.0225,-1.9534,-1.9404,-1.9124,-1.8545,-1.8545,-1.8545,-1.8545,-1.8121,-1.7717,-1.7383,-1.6954,-1.671,-1.6594,-1.6755,-1.6366,-1.5678,-1.5745,-1.5248,-1.449,-1.4394,-1.4298,-1.4298,-1.4298,-1.4298,-1.4298,-1.4298,-1.4298,-1.4298,-1.4298,-1.4298,-1.4298,-1.4298,-1.4298,-1.4298,-1.4298,-1.4298,-1.4298,-1.4298,-1.4298,-1.4298,-1.4298,-1.4106,-1.3919,-1.3919,-1.3727,-1.3528,-1.3528,-1.305,-1.2759,-1.2759,-1.2073,-1.1585,-1.1585,-1.1389,-1.1194,-1.1194,-1.1194,-1.1194,-1.1194,-1.1194,-1.1194,-1.1194,-1.1194,-1.1194,-1.1194,-1.1194,-1.1194,-1.1194,-1.1194,-1.1194,-1.1194,-1.1307,-1.1416,-1.152,-1.1831,-1.2039,-1.2143,-1.2346,-1.2441,0.2354,0.2554,0.2854,0.3776,0.3189,0.2078,0.0972,0.0089,-0.089,-0.2601,-0.4389,-0.5719,-0.5719,-0.7319,-0.8652,-0.8911,-0.9986,-1.0904,-1.141,-1.3266,-1.4678,-1.4923,-1.5828,-1.6367,-1.6367,-1.6367,-1.6257,-1.5934,-1.6548,-1.7125,-1.7792,-1.8464,-1.8607,-1.8211,-1.7916,-1.7432,-1.6698,-1.6698,-1.6698,-1.6698,-1.6535,-1.6186,-1.5682,-1.5511,-1.5266,-1.4883,-1.511,-1.5054,-1.495,-1.4967,-1.4797,-1.4607,-1.4376,-1.4298,-1.4298,-1.4298,-1.4298,-1.4298,-1.4298,-1.4298,-1.4298,-1.4298,-1.4298,-1.4298,-1.4298,-1.4298,-1.4298,-1.4298,-1.4298,-1.4298,-1.4298,-1.4298,-1.4298,-1.4298,-1.3919,-1.3539,-1.3539,-1.3152,-1.2764,-1.2764,-1.237,-1.198,-1.198,-1.1585,-1.1194,-1.1194,-1.1194,-1.1194,-1.1194,-1.1194,-1.1194,-1.1194,-1.1194,-1.1194,-1.1194,-1.1194,-1.1194,-1.1194,-1.1194,-1.1194,-1.1194,-1.1241,-1.1264,-1.1264,-1.1472,-1.1605,-1.1652,-1.1983,-1.2162,-1.2209,-1.2257,-1.2327,0.1939,0.2035,0.2294,0.3268,0.337,0.2794,0.1037,0.0521,-0.0175,-0.2413,-0.4389,-0.5719,-0.5719,-0.7319,-0.874,-0.9174,-0.9362,-0.9953,-1.1206,-1.2574,-1.3648,-1.4532,-1.5644,-1.6367,-1.6367,-1.6367,-1.6162,-1.572,-1.5241,-1.5767,-1.7652,-1.7409,-1.7139,-1.691,-1.6878,-1.678,-1.6698,-1.6698,-1.6698,-1.6698,-1.5884,-1.5492,-1.5438,-1.4621,-1.4368,-1.4563,-1.4589,-1.4573,0.0,-1.4673,-1.4509,-1.4247,-1.4303,-1.4298,-1.4298,-1.4298,-1.4298,-1.4298,-1.4298,-1.4298,-1.4298,-1.4298,-1.4298,-1.4298,-1.4298,-1.4298,-1.4298,-1.4298,-1.4298,-1.4298,-1.4298,-1.4298,-1.4298,-1.4298,-1.3919,-1.3539,-1.3539,-1.3152,-1.2764,-1.2764,-1.237,-1.198,-1.198,-1.1585,-1.1194,-1.1194,-1.1194,-1.1194,-1.1194,-1.1194,-1.1194,-1.1194,-1.1194,-1.1194,-1.1194,-1.1194,-1.1194,-1.1194,-1.1194,-1.1194,-1.1194,-1.1383,-1.1487,-1.1487,-1.169,-1.1888,-1.2082,-1.212,-1.2233,-1.2413,-1.2105,-1.2005,0.1825,0.175,0.1841,0.3028,0.2634,0.1738,0.0845,0.017,-0.077,-0.2455,-0.4303,-0.5632,-0.5706,-0.7319,-0.874,-0.8999,-0.9174,-0.9547,-1.0236,-1.1287,-1.236,-1.333,-1.4396,-1.5183,-1.5718,-1.5804,-1.5575,-1.5106,-1.4719,-1.4783,-1.5493,-1.5952,-1.6124,-1.5884,-1.5884,-1.5643,-1.5151,-1.5151,-1.5151,-1.5151,-1.4741,-1.4664,-1.458,-1.425,-1.4148,-1.4269,-1.4442,-1.4408,0.0,-1.4372,-1.4314,-1.4297,-1.4115,-1.4159,-1.4298,-1.4298,-1.4298,-1.4298,-1.4298,-1.4298,-1.4298,-1.4298,-1.4298,-1.4298,-1.4298,-1.4298,-1.4298,-1.4298,-1.4298,-1.4298,-1.4298,-1.401,-1.3823,-1.3823,-1.3147,-1.2565,-1.2565,-1.2175,-1.1883,-1.1883,-1.1683,-1.1487,-1.1487,-1.1292,-1.1194,-1.1194,-1.1194,-1.1241,-1.1373,-1.1387,-1.1435,-1.1557,-1.1345,-1.1194,-1.1194,-1.1194,-1.1194,-1.1194,-1.1316,-1.1387,-1.1387,-1.1586,-1.1699,-1.1699,-1.1902,-1.2054,-1.2139,-1.2261,-1.2252,-1.2114,-1.2005,-1.1896,0.1725,0.1726,0.1735,0.2962,0.225,0.1131,0.0744,-0.0166,-0.1339,-0.2825,-0.4486,-0.5651,-0.5999,-0.7464,-0.8652,0.0,-0.9174,-0.9519,-1.0033,-1.1063,-1.2089,-1.3021,-1.3964,-1.4741,-1.5347,-1.5257,-1.4999,-1.465,-1.4398,-1.4243,-1.4088,-1.4831,-1.5159,-1.4985,-1.4985,-1.4741,-1.4088,-1.4088,-1.4088,-1.4088,-1.4088,-1.4088,-1.4088,-1.4088,-1.4088,-1.4095,-1.4302,-1.4303,0.0,-1.4078,-1.4038,-1.4062,-1.3938,-1.402,-1.4189,-1.4268,-1.4298,-1.4298,-1.4298,-1.41,-1.3806,-1.3806,-1.3613,-1.3414,-1.3414,-1.3811,-1.4298,-1.4298,-1.4298,-1.4298,-1.4298,-1.4016,-1.3732,-1.3539,-1.2856,-1.2175,-1.2078,-1.159,-1.1194,-1.1194,-1.1194,-1.1194,-1.1194,-1.1194,-1.1217,-1.1283,-1.1288,-1.1368,-1.1581,-1.1605,-1.1661,-1.1803,-1.1553,-1.1378,-1.1378,-1.1378,-1.1378,-1.1378,-1.1524,-1.1605,-1.1605,-1.1803,-1.1912,-1.1912,-1.212,-1.2228,-1.2228,-1.237,-1.2219,-1.2005,-1.1896,-1.1678,0.1647,0.1882,0.2117,0.2906,0.2353,0.142,0.0646,-0.0244,-0.1552,-0.3506,-0.4775,-0.5881,-0.6741,-0.7827,-0.874,-0.9262,-0.9262,-0.9777,-1.1068,-1.2083,-1.3021,-1.3971,-1.4831,-1.5431,-1.5431,-1.4999,-1.465,-1.4391,-1.4243,-1.4088,-1.4088,-1.4088,-1.4088,-1.4088,-1.4088,-1.4088,-1.4088,-1.4088,-1.4088,-1.4088,-1.4088,-1.4088,-1.4088,-1.4088,-1.4088,-1.4088,-1.4088,-1.3919,0.0,-1.3783,-1.3724,-1.3516,-1.3792,-1.3912,-1.3942,-1.4201,-1.4298,-1.4298,-1.4298,-1.3607,-1.2732,-1.2732,-1.2047,-1.1268,-1.1268,-1.2635,-1.4298,-1.4298,-1.4298,-1.4298,-1.4298,-1.4298,-1.4202,-1.3636,-1.3152,-1.2667,-1.2078,-1.159,-1.1194,-1.1194,-1.1194,-1.1194,-1.1194,-1.1194,-1.1269,-1.1482,-1.1515,-1.1586,-1.1789,-1.1813,-1.1813,-1.1817,-1.1813,-1.1808,-1.1808,-1.1808,-1.1808,-1.1808,-1.1813,-1.1813,-1.1813,-1.202,-1.2139,-1.2139,-1.2332,-1.2436,-1.2436,-1.2441,-1.2219,-1.2005,-1.1678,-1.124,0.0078,0.0157,0.0314,0.0862,0.0157,-0.0706,-0.1262,-0.2133,-0.3264,-0.4482,-0.5516,-0.6341,-0.679,-0.7733,-0.8504,-0.8978,-0.9689,-1.0376,-1.0722,-1.1912,-1.3021,-1.3704,-1.4741,-1.5347,-1.5173,-1.509,-1.4824,-1.4398,-1.4314,-1.4243,-1.4088,-1.4088,-1.4088,-1.4088,-1.4088,-1.4088,-1.4088,-1.4088,-1.4088,-1.4088,-1.4088,-1.4088,-1.4088,-1.4088,-1.4088,-1.4088,-1.4088,-1.3913,-1.3489,-1.3493,-1.338,-1.3221,-1.3302,-1.3592,-1.3918,-1.4002,-1.4141,-1.4298,-1.4298,-1.3613,-1.2727,-1.2727,-1.2047,-1.117,-1.117,-1.1658,-1.215,-1.215,-1.215,-1.215,-1.215,-1.195,-1.1663,-1.1878,-1.1487,-1.1194,-1.1389,-1.1292,-1.0998,-1.0511,-1.0413,-1.0212,-0.9616,-0.9513,-0.9577,-0.9758,-0.9786,-0.9895,-1.0188,-1.0225,-1.0269,-1.0385,-1.0401,-1.0839,-1.1737,-1.1817,-1.1817,-1.1817,-1.1954,-1.2039,-1.2039,-1.2233,-1.2346,-1.2346,-1.1755,-1.1782,-1.2441,-1.1782,-1.1122,-1.0457,-1.0798,-1.0468,-0.1487,-0.1096,-0.0782,-0.0703,-0.125,-0.1954,-0.2493,-0.3509,-0.4474,-0.5337,-0.6032,-0.6708,-0.7202,-0.7812,-0.852,-0.9309,-1.0033,-1.0804,-1.166,-1.251,-1.336,-1.4223,-1.4999,-1.5257,-1.4999,-1.4915,-1.4741,-1.4321,-1.4321,-1.4243,-1.4088,-1.4088,-1.4088,-1.4088,-1.4088,-1.4088,-1.4088,-1.4088,-1.4088,-1.4088,-1.4088,-1.4088,-1.4088,-1.4088,-1.4088,-1.4088,-1.4088,-1.3828,0.0,-1.3052,-1.2721,-1.2359,-1.2098,-1.2281,-1.2636,-1.2725,-1.2914,-1.3125,-1.3125,-1.2441,-1.156,-1.156,-1.0877,-0.9998,-0.9998,-1.0587,-1.117,-1.117,-1.117,-1.117,-1.117,-1.0974,-1.0685,-1.0694,-1.0502,-1.0306,-1.0306,-1.0306,-1.0109,-0.962,-0.9521,-0.9422,-0.8924,-0.8825,-0.8903,-0.913,-0.9164,-0.9283,-0.9608,-0.9649,-0.9686,-0.9786,-0.9798,-1.0151,-1.1005,-1.1089,-1.1089,-1.1089,-1.1206,-1.1276,-1.1276,-1.1385,-1.1446,-1.1446,-1.0903,-1.0789,-1.1114,-1.0233,-0.9688,-0.9688,-0.9467,-0.9471,0.0,-0.2256,-0.1557,-0.2019,-0.2255,-0.2572,-0.342,-0.4363,0.0,-0.6163,-0.6434,-0.6903,-0.7893,-0.8238,-0.8756,-1.0168,-1.0381,-1.1149,-1.3281,-1.3704,-1.4132,-1.5257,-1.5431,-1.5173,-1.4734,-1.465,-1.4489,-1.4166,-1.4088,-1.4088,-1.4088,-1.4088,-1.4088,-1.4088,-1.4088,-1.4088,-1.4088,-1.4088,-1.4088,-1.4088,-1.4088,-1.4088,-1.4088,-1.4004,-1.4004,-1.4004,-1.3913,-1.3652,-1.3137,-1.2272,-1.158,-1.117,-1.0504,-1.0443,-1.0643,-1.0853,-1.1063,-1.1151,-1.1165,-1.0489,-0.9608,-0.9509,-0.8825,-0.8038,-0.8038,-0.941,-1.0979,-1.0979,-1.0974,-1.0974,-1.0974,-1.0974,-1.0779,-0.9998,-0.9903,-0.9706,-0.892,-0.8825,-0.8825,-0.8726,-0.8722,-0.8726,-0.8627,-0.8627,-0.8729,-0.9038,-0.9093,-0.9213,-0.9519,-0.957,-0.9578,-0.9578,-0.9578,-0.9578,-0.9578,-0.9688,-0.9798,-0.9798,-0.9798,-0.9798,-0.9798,-0.9794,-0.9688,-0.9688,-0.9684,-0.935,-0.8796,-0.802,-0.8134,-0.9137,-0.7695,-0.8247,-0.8263,0.0,-0.4137,-0.4213,-0.4292,-0.4528,0.0,-0.577,-0.6163,-0.7015,-0.7204,-0.7638,-0.8837,-0.8535,-0.8765,-1.0742,-1.123,-1.174,-1.2778,-1.3802,-1.465,-1.509,-1.5347,-1.5173,-1.4566,-1.465,-1.4489,-1.4166,-1.4088,-1.4088,-1.4088,-1.4088,-1.4088,-1.4088,-1.4088,-1.4088,-1.4088,-1.4088,-1.4088,-1.4088,-1.4088,-1.4088,-1.4088,-1.3392,-1.3052,-1.296,-1.2089,-1.1574,-1.1241,-1.088,-1.0529,-1.0188,-1.0067,-1.013,-1.0438,-1.0639,-1.0843,-1.1048,-1.1113,-1.0489,-0.9509,-0.8627,-0.8237,-0.8038,-0.8038,-0.8333,-0.8726,-0.8726,-0.8627,-0.8432,-0.8432,-0.8326,-0.8226,-0.8428,-0.8432,-0.8531,-0.8726,-0.8825,-0.8623,-0.8028,-0.7928,-0.773,-0.7033,-0.6933,-0.6989,-0.7253,-0.7365,-0.749,-0.7654,-0.7758,-0.7817,-0.7817,-0.7817,-0.7817,-0.7817,-0.9027,-0.9798,-0.9798,-0.9798,-0.9798,-0.9798,-0.935,-0.9127,-0.9127,-0.8682,-0.802,-0.7254,-0.7467,-0.7246,-0.6697,-0.6919,-0.6919,-0.9895,-0.8362,-0.6758,-0.7145,-0.6988,-0.6912,-0.7685,-0.7918,-0.7995,-0.8537,-0.8613,-0.874,-0.9233,-0.8905,-0.9123,-1.0989,-1.1402,-1.2003,-1.3294,-1.4139,-1.4824,-1.509,-1.509,-1.4908,-1.4566,-1.4566,-1.4405,-1.4088,-1.3737,-1.3483,-1.3483,-1.3052,-1.279,-1.279,-1.279,-1.3222,-1.4088,-1.4088,-1.3913,-1.3483,-1.3913,-1.3652,-1.279,-1.2705,-1.2448,-1.2015,-1.1311,-1.088,-1.0549,-0.9932,-0.9492,-0.9231,-0.8794,-0.8734,-0.9005,-0.91,-0.9299,-0.954,-0.9639,-0.9343,-0.8726,-0.8237,-0.8038,-0.8038,-0.8038,-0.8038,-0.7942,-0.7842,-0.7743,-0.7547,-0.7444,-0.7341,-0.7238,-0.7441,-0.7441,-0.754,-0.763,-0.773,-0.7531,-0.7132,-0.7033,-0.6933,-0.6437,-0.6437,-0.6478,-0.66,-0.6722,-0.6844,-0.697,-0.7084,-0.7154,-0.7154,-0.7154,-0.7154,-0.7154,-0.8036,-0.8585,-0.8585,-0.8585,-0.8585,-0.8585,-0.8251,-0.8029,-0.7695,-0.6805,-0.6142,-0.5701,-0.5699,-0.5699,-0.5592,-0.5477,-0.5699,-1.0282,-0.9804,-0.9341,-0.9814,-0.9352,-0.9039,-0.9739,-0.9895,-0.9895,-0.9895,-0.9895,-0.9811,-0.948,-0.9399,-0.9863,-1.1246,-1.1666,-1.2351,-1.4139,-1.4566,-1.4734,-1.4999,-1.4824,-1.465,-1.4566,-1.4482,-1.4321,-1.4088,-1.3222,-1.2705,-1.2705,-1.1843,-1.1327,-1.1327,-1.1327,-1.21,-1.3659,-1.3652,-1.3307,-1.2534,-1.3307,-1.2875,-1.1322,-1.2015,-1.1843,-1.1063,-1.0707,0.0,-1.0115,-0.9065,-0.8452,-0.8193,-0.7404,-0.7221,-0.7339,-0.7363,-0.7543,-0.7784,-0.7831,-0.7929,-0.8038,-0.8038,-0.8038,-0.8038,-0.8038,-0.8038,-0.7939,-0.7646,-0.7547,-0.7444,-0.7238,-0.7138,-0.7039,-0.6842,-0.6742,-0.6642,-0.6437,-0.6437,-0.6437,-0.6437,-0.6437,-0.6437,-0.6437,-0.6437,-0.6472,-0.6575,-0.6695,-0.682,-0.6942,-0.7056,-0.7135,-0.7154,-0.7154,-0.7154,-0.7154,-0.7154,-0.7154,-0.7154,-0.7154,-0.7154,-0.7043,-0.6932,-0.6596,-0.604,-0.4925,-0.4369,-0.4369,-0.381,-0.4145,-0.5148,-0.4033,-0.47,-1.1993,-1.1842,-1.1465,-1.0196,-0.9814,-0.9739,-0.989,-0.9895,-0.9895,-0.9895,-0.9895,-0.9964,-1.0359,-1.0369,-1.0849,-1.2275,-1.3137,-1.3822,-1.4314,-1.4398,-1.4482,-1.4482,-1.465,-1.4573,-1.425,-1.4321,-1.4321,-1.4088,-1.3222,-1.2705,-1.2705,-1.1843,-1.1327,-1.1327,-1.1327,-1.1413,-1.1757,-1.1757,-1.1671,-1.1499,-1.1671,-1.1585,-1.1241,-1.0636,-1.0289,-1.0028,0.0,-0.8376,-0.8288,-0.7669,-0.7312,-0.7316,-0.7139,-0.7153,-0.719,-0.7322,-0.7482,-0.7668,-0.7919,-0.8021,-0.8038,-0.8038,-0.8038,-0.8038,-0.8038,-0.8038,-0.7939,-0.7646,-0.7444,-0.7238,-0.7238,-0.6836,-0.6537,-0.6437,-0.6437,-0.6437,-0.6437,-0.6437,-0.6437,-0.6437,-0.6437,-0.6437,-0.6437,-0.6437,-0.6442,-0.6461,-0.6567,-0.6692,-0.6815,-0.6937,-0.7048,-0.7143,-0.7154,-0.7154,-0.7154,-0.7154,-0.7154,-0.7154,-0.7154,-0.6932,-0.6485,-0.5929,-0.5371,-0.4814,-0.4145,-0.3699,-0.3699,-0.3699,-0.3699,-0.3921,-0.3699,-0.381,-1.3616,-1.3237,-1.2799,-1.205,-1.1539,-1.1174,-1.1174,-1.1174,-1.1174,-1.1174,-1.1364,-1.1431,-1.1272,-1.1375,-1.1752,-1.2553,-1.3483,-1.4166,-1.4243,-1.4243,-1.4237,-1.4398,-1.4405,-1.4328,-1.4243,-1.4243,-1.3984,-1.3392,-1.2443,-1.1757,-1.1235,-1.0294,-0.9864,-0.9864,-0.9864,-0.9864,-0.9864,-0.9864,-1.012,-1.0549,-1.1068,-1.0809,-0.9864,-0.9859,-0.9598,-0.8899,0.0,-0.7856,-0.768,-0.7231,-0.7139,-0.7139,-0.7139,-0.7139,-0.716,-0.7316,-0.7468,-0.7631,-0.7841,-0.797,-0.8038,-0.8038,-0.8038,-0.8038,-0.8038,-0.8038,-0.7939,-0.7646,-0.7441,-0.7138,-0.7039,-0.6739,-0.6437,-0.6437,-0.6437,-0.6437,-0.6437,-0.6437,-0.6437,-0.6437,-0.6437,-0.6437,-0.6437,-0.6437,-0.6437,-0.6437,-0.654,-0.6638,-0.6698,-0.6869,-0.7005,-0.7056,-0.7119,-0.7154,-0.7154,-0.7154,-0.7154,-0.7154,-0.693,-0.6596,-0.6262,-0.5371,-0.4814,-0.448,-0.3923,-0.3587,-0.3587,-0.3587,-0.3587,-0.3587,-0.3587,-0.3587,-1.4832,-1.424,-1.3745,-1.3745,-1.3025,-1.2305,-1.2305,-1.2305,-1.2305,-1.2305,-1.2485,-1.2523,-1.1933,-1.2098,-1.2553,-1.293,-1.3652,-1.4088,-1.4088,-1.4088,-1.4166,-1.4321,-1.4166,-1.4166,-1.4321,-1.4166,-1.3737,-1.279,-1.1843,-1.0895,-0.9946,-0.9087,-0.8548,-0.8503,-0.8503,-0.8483,-0.8438,-0.8438,-0.8822,-0.9602,-1.0294,-0.9946,-0.8656,-0.9257,-0.9078,-0.8201,-0.8028,-0.7768,-0.7507,-0.7231,-0.7139,-0.7139,-0.7139,-0.7139,-0.716,-0.7316,-0.7468,-0.7621,-0.7763,-0.7913,-0.8038,-0.8038,-0.8038,-0.8038,-0.8038,-0.8038,-0.7939,-0.7646,-0.7441,-0.7138,-0.6842,-0.6639,-0.6437,-0.6437,-0.6437,-0.6437,-0.6437,-0.6437,-0.6437,-0.6437,-0.6437,-0.6437,-0.6437,-0.6437,-0.6437,-0.6437,-0.6516,-0.6586,-0.6616,-0.6785,-0.6921,-0.698,-0.7062,-0.7124,-0.7041,-0.7043,-0.6932,-0.6821,-0.6374,-0.604,-0.604,-0.5037,-0.448,-0.448,-0.3923,-0.3587,-0.3587,-0.3587,-0.3587,-0.3587,-0.3587,-0.3587,-1.5279,-1.4863,-1.453,-1.453,-1.3382,-1.2305,-1.2305,-1.2305,-1.2305,-1.2305,-1.2318,-1.2205,-1.1897,-1.2248,-1.2942,-1.3822,-1.4088,-1.4088,-1.4088,-1.4088,-1.4088,-1.4088,-1.4088,-1.4088,-1.4088,-1.4088,-1.3737,-1.279,-1.1843,-1.0895,-0.9946,-0.9087,-0.8487,-0.8316,-0.8308,-0.8227,-0.8057,-0.8052,-0.8227,-0.8652,-0.874,-0.874,-0.8568,-0.8656,-0.8472,-0.8201,-0.8028,-0.7768,-0.7507,-0.7231,-0.7139,-0.7139,-0.7139,-0.7139,-0.716,-0.7316,-0.7468,-0.7621,-0.7763,-0.7913,-0.8038,-0.8038,-0.8038,-0.8038,-0.8038,-0.8038,-0.7939,-0.7646,-0.7441,-0.7138,-0.6842,-0.6639,-0.6437,-0.6437,-0.6437,-0.6437,-0.6437,-0.6437,-0.6437,-0.6437,-0.6437,-0.6437,-0.6437,-0.6437,-0.6437,-0.6437,-0.6442,-0.6491,-0.6605,-0.6635,-0.6733,-0.6961,-0.6991,-0.6819,-0.6366,-0.6374,-0.6151,-0.5594,-0.5483,-0.5483,-0.5483,-0.4814,-0.448,-0.448,-0.3923,-0.3587,-0.3587,-0.3587,-0.3587,-0.3587,-0.3587,-0.3587,-1.643,-1.5613,-1.4911,-1.4697,-1.397,-1.3317,-1.3098,-1.3025,-1.2879,-1.2224,-1.2377,-1.2682,-1.2879,-1.3304,-1.3659,-1.4004,-1.4088,-1.4088,-1.4088,-1.4088,-1.4088,-1.4088,-1.4088,-1.4088,-1.4088,-1.3568,-1.2808,-1.1696,-1.0847,-0.9856,-0.8809,-0.8388,-0.8191,-0.8117,-0.8117,-0.8085,-0.8012,-0.8012,-0.8085,-0.8223,-0.8223,-0.8223,-0.8223,-0.8058,-0.7889,-0.7724,-0.7572,-0.7357,-0.7107,-0.7105,-0.7139,-0.7139,-0.7139,-0.7139,-0.7146,-0.7207,-0.7326,-0.7478,-0.7628,-0.7777,-0.7913,-0.8007,-0.8038,-0.8038,-0.8038,-0.8038,-0.7939,-0.7441,-0.7238,-0.7138,-0.6842,-0.6639,-0.6437,-0.6437,-0.6437,-0.6437,-0.6437,-0.6437,-0.6437,-0.6437,-0.6437,-0.6437,-0.6437,-0.6437,-0.6437,-0.6437,-0.6437,-0.6453,-0.6499,-0.657,-0.6654,-0.6747,-0.6893,-0.6923,-0.6922,-0.6151,-0.5594,-0.5371,-0.5037,-0.4814,-0.4814,-0.4257,-0.3921,-0.3921,-0.3699,-0.3587,-0.3587,-0.3587,-0.3587,-0.3587,-0.3587,-0.3587,-1.724,-1.6283,-1.5338,-1.5062,-1.4625,-1.4186,-1.3673,-1.3455,-1.3171,-1.2224,-1.2467,-1.3019,-1.3434,-1.3828,-1.4088,-1.4088,-1.4088,-1.4088,-1.4088,-1.4088,-1.4055,-1.3955,-1.3948,-1.3908,-1.3821,-1.3048,-1.2034,-1.0941,-1.0103,-0.9137,-0.802,-0.8012,-0.7988,-0.7935,-0.7935,-0.7906,-0.7845,-0.7845,-0.7845,-0.7845,-0.7845,-0.7906,-0.8012,-0.7773,-0.7612,-0.7375,-0.7315,-0.7137,-0.6936,-0.7034,-0.7099,-0.7139,-0.7139,-0.7139,-0.7139,-0.7139,-0.7238,-0.7387,-0.7492,-0.7651,-0.7828,-0.7933,-0.8001,-0.8038,-0.8038,-0.7939,-0.7739,-0.7338,-0.7138,-0.7039,-0.6742,-0.6539,-0.6437,-0.6437,-0.6437,-0.6437,-0.6437,-0.6437,-0.6437,-0.6437,-0.6437,-0.6437,-0.6437,-0.6437,-0.6437,-0.6437,-0.6437,-0.6437,-0.6437,-0.651,-0.6575,-0.6616,-0.6839,-0.6907,-0.6541,-0.5799,-0.526,-0.4814,-0.448,-0.4257,-0.4257,-0.3811,-0.3587,-0.3587,-0.3587,-0.3587,-0.3587,-0.3587,-0.3587,-0.3587,-0.3587,-0.3587,-1.7486,-1.6628,-1.5762,-1.5762,-1.5338,-1.4681,-1.389,-1.3455,-1.2945,-1.215,-1.2626,-1.3206,-1.3206,-1.3687,-1.4082,-1.4082,-1.4082,-1.4082,-1.4082,-1.4082,-1.3968,-1.3674,-1.3641,-1.3527,-1.324,-1.2473,-1.1576,-1.0686,-0.9872,-0.8978,-0.8008,-0.8008,-0.7931,-0.7764,-0.7756,-0.7667,-0.7484,-0.7484,-0.7484,-0.7484,-0.7484,-0.7667,-0.8008,-0.7765,-0.7604,-0.7364,-0.7191,-0.7035,-0.6926,-0.6926,-0.701,-0.7139,-0.7139,-0.7139,-0.7139,-0.7139,-0.7238,-0.737,-0.737,-0.7563,-0.7811,-0.7811,-0.7916,-0.8038,-0.8038,-0.7842,-0.7543,-0.7238,-0.7042,-0.6742,-0.6437,-0.6437,-0.6437,-0.6437,-0.6437,-0.6437,-0.6437,-0.6437,-0.6437,-0.6437,-0.6437,-0.6437,-0.6437,-0.6437,-0.6437,-0.6437,-0.6437,-0.6437,-0.6437,-0.6437,-0.6483,-0.6605,-0.6836,-0.6547,-0.5354,-0.5322,-0.4925,-0.3699,-0.3587,-0.3587,-0.3587,-0.3587,-0.3587,-0.3587,-0.3587,-0.3587,-0.3587,-0.3587,-0.3587,-0.3587,-0.3587,-0.3587,-1.6885,-1.6237,-1.5599,-1.5056,-1.4705,-1.4266,-1.3324,-1.3317,-1.3382,-1.2746,-1.255,-1.2589,-1.2886,-1.3206,-1.3474,-1.3474,-1.3474,-1.3474,-1.3474,-1.3474,-1.3434,-1.3347,-1.334,-1.3307,-1.322,-1.1902,-1.0856,-1.0442,-0.9096,-0.8091,-0.7646,-0.7638,-0.7618,-0.7565,-0.7565,-0.7537,-0.7484,-0.7484,-0.7407,-0.7257,-0.7257,-0.7386,-0.7638,-0.7324,-0.7089,-0.7021,-0.6812,-0.6644,-0.6624,-0.6841,-0.701,-0.7139,-0.7139,-0.7139,-0.7139,-0.7139,-0.717,-0.7224,-0.7333,-0.7499,-0.7678,-0.778,-0.772,-0.7743,-0.7743,-0.754,-0.7241,-0.7042,-0.6842,-0.6742,-0.6437,-0.6437,-0.6437,-0.6437,-0.6437,-0.6437,-0.6437,-0.6437,-0.6437,-0.6437,-0.6437,-0.6437,-0.6437,-0.6437,-0.6437,-0.6437,-0.6437,-0.6437,-0.6437,-0.6437,-0.6483,-0.6605,-0.6373,-0.6056,-0.5884,-0.5154,-0.4533,-0.4254,-0.381,-0.3587,-0.3587,-0.3587,-0.3587,-0.3587,-0.3587,-0.3587,-0.3587,-0.3587,-0.3587,-0.3587,-0.3587,-0.3587,-1.6496,-1.5765,-1.5195,-1.4689,-1.4346,-1.3977,-1.3404,-1.3025,-1.2725,-1.2673,-1.247,-1.2376,-1.2606,-1.3006,-1.3213,-1.3213,-1.3213,-1.3213,-1.3213,-1.3213,-1.3166,-1.3039,-1.2707,-1.2505,-1.2396,-1.0807,-0.9802,-0.9658,-0.842,-0.7602,-0.7488,-0.7484,-0.7484,-0.7484,-0.7484,-0.7484,-0.7484,-0.7484,-0.7407,-0.7184,-0.7184,-0.7257,-0.7249,-0.6942,-0.6788,-0.6799,-0.6565,-0.6471,-0.6498,-0.6803,-0.698,-0.7061,-0.7119,-0.7139,-0.7139,-0.7139,-0.7139,-0.7153,-0.7248,-0.738,-0.7533,-0.7678,-0.7731,-0.7668,-0.763,-0.7441,-0.7138,-0.6842,-0.6742,-0.6639,-0.6437,-0.6437,-0.6437,-0.6437,-0.6437,-0.6437,-0.6437,-0.6437,-0.6437,-0.6437,-0.6437,-0.6437,-0.6437,-0.6437,-0.6437,-0.6437,-0.6437,-0.6437,-0.6437,-0.6234,-0.6163,-0.6233,-0.577,-0.5432,-0.5339,-0.4738,-0.4247,-0.4099,-0.3772,-0.3563,-0.3587,-0.3587,-0.3587,-0.3587,-0.3587,-0.3587,-0.3587,-0.3587,-0.3587,-0.3587,-0.3587,-0.3587,-1.6286,-1.5486,-1.4681,-1.4577,-1.4129,-1.376,-1.376,-1.2512,-1.1558,-1.2224,-1.2362,-1.24,-1.242,-1.2791,-1.3126,-1.3126,-1.3126,-1.3126,-1.3126,-1.3126,-1.3026,-1.2662,-1.1928,-1.1371,-1.0986,-0.9604,-0.8703,-0.8703,-0.794,-0.7484,-0.7484,-0.7484,-0.7484,-0.7484,-0.7484,-0.7484,-0.7484,-0.7484,-0.7407,-0.7184,-0.718,-0.7099,-0.6865,-0.6714,-0.6563,-0.657,-0.6476,-0.6461,-0.6495,-0.6773,-0.6905,-0.6943,-0.7071,-0.7129,-0.7139,-0.7139,-0.7139,-0.7139,-0.7139,-0.7241,-0.7394,-0.7533,-0.7685,-0.7741,-0.7585,-0.7431,-0.7138,-0.6842,-0.6639,-0.6437,-0.6437,-0.6437,-0.6437,-0.6437,-0.6437,-0.6437,-0.6437,-0.6437,-0.6437,-0.6437,-0.6437,-0.6437,-0.6437,-0.6437,-0.6437,-0.6437,-0.6437,-0.6437,-0.6437,-0.5937,-0.5636,-0.5636,-0.5213,-0.4654,-0.4147,-0.421,-0.3964,-0.3492,-0.3496,-0.3523,-0.3585,-0.3587,-0.3587,-0.3587,-0.3587,-0.3587,-0.3587,-0.3587,-0.3587,-0.3587,-0.3587,-0.3587,-1.6198,-1.5455,-1.4998,-1.4712,-1.384,-1.3185,-1.3688,-1.2439,-1.1484,-1.2746,-1.2277,-1.1727,-1.2032,-1.2153,-1.2348,-1.2498,-1.2498,-1.2498,-1.2498,-1.2498,-1.2247,-1.1577,-1.1271,-1.094,-1.0201,-0.9301,-0.8703,-0.8703,-0.794,-0.7484,-0.7484,-0.7484,-0.7484,-0.7484,-0.7484,-0.7484,-0.7484,-0.7484,-0.7407,-0.7184,-0.7022,-0.6868,-0.6637,-0.6637,-0.6486,-0.6338,-0.6373,-0.6369,-0.6478,-0.6542,-0.6712,-0.6932,-0.6963,-0.7041,-0.7139,-0.7139,-0.7139,-0.7139,-0.7139,-0.7241,-0.7377,-0.7411,-0.7506,-0.7434,-0.7466,-0.7159,-0.6842,-0.6845,-0.6639,-0.6437,-0.6437,-0.6437,-0.6437,-0.6437,-0.6437,-0.6437,-0.6437,-0.6437,-0.6437,-0.6437,-0.6437,-0.6437,-0.6437,-0.6437,-0.6437,-0.6437,-0.6437,-0.6437,-0.6437,-0.5937,-0.5636,-0.5636,-0.475,-0.4184,-0.4142,-0.3748,-0.3491,-0.3491,-0.3496,-0.3523,-0.3585,-0.3587,-0.3587,-0.3587,-0.3587,-0.3587,-0.3587,-0.3587,-0.3587,-0.3587,-0.3587,-0.3587,-1.6614,-1.5737,-1.5102,-1.4728,-1.3768,-1.3039,-1.3688,-1.2432,-1.1409,-1.2378,-1.2003,-1.1484,-1.1706,-1.1781,-1.1929,-1.215,-1.2157,-1.2077,-1.1781,-1.1706,-1.1403,-1.0651,-1.0207,-0.9755,-0.9372,-0.8623,-0.8093,-0.8093,-0.771,-0.7484,-0.7484,-0.7484,-0.7484,-0.7484,-0.7484,-0.7484,-0.7484,-0.7407,-0.7257,-0.7022,-0.6868,-0.6637,-0.649,-0.649,-0.6412,-0.6338,-0.6338,-0.6302,-0.6376,-0.6444,-0.6566,-0.6725,-0.6871,-0.6973,-0.7048,-0.7115,-0.7139,-0.7139,-0.7139,-0.7193,-0.7275,-0.7346,-0.7336,-0.7337,-0.7218,-0.7039,-0.6742,-0.6642,-0.6539,-0.6437,-0.6437,-0.6437,-0.6437,-0.6437,-0.6437,-0.6437,-0.6437,-0.6437,-0.6437,-0.6437,-0.6437,-0.6437,-0.6437,-0.6437,-0.6437,-0.6437,-0.6437,-0.6437,-0.6437,-0.5737,-0.5236,-0.5236,-0.4234,-0.3646,-0.3682,-0.338,-0.3316,-0.3407,-0.344,-0.3482,-0.3541,-0.3572,-0.3587,-0.3587,-0.3587,-0.3587,-0.3587,-0.3587,-0.3587,-0.3587,-0.3587,-0.3587,-1.7147,-1.6063,-1.5014,-1.4648,-1.384,-1.3185,-1.3688,-1.2505,-1.1409,-1.1929,-1.1632,-1.1335,-1.1409,-1.1558,-1.1706,-1.1929,-1.1855,-1.1552,-1.1111,-1.0962,-1.0576,-0.975,-0.9074,-0.8623,-0.8475,-0.7863,-0.7484,-0.7484,-0.7484,-0.7484,-0.7484,-0.7484,-0.7484,-0.7484,-0.7484,-0.7484,-0.7484,-0.7257,-0.7099,-0.6865,-0.6714,-0.649,-0.6338,-0.6338,-0.6338,-0.6338,-0.6338,-0.6338,-0.6349,-0.6386,-0.6451,-0.6498,-0.6753,-0.6881,-0.6943,-0.7061,-0.7119,-0.7139,-0.7139,-0.7139,-0.7163,-0.7288,-0.7247,-0.7111,-0.7065,-0.6908,-0.6716,-0.6534,-0.6437,-0.6437,-0.6437,-0.6437,-0.6437,-0.6437,-0.6437,-0.6437,-0.6437,-0.6437,-0.6437,-0.6437,-0.6437,-0.6437,-0.6437,-0.6437,-0.6437,-0.6437,-0.6437,-0.6437,-0.6437,-0.5436,-0.4834,-0.4834,-0.3833,-0.323,-0.323,-0.323,-0.3256,-0.3318,-0.3379,-0.3437,-0.3495,-0.3555,-0.3587,-0.3587,-0.3587,-0.3587,-0.3587,-0.3587,-0.3587,-0.3587,-0.3587,-0.3587,-1.7526,-1.5873,-1.4697,-1.4585,-1.4129,-1.3688,-1.376,-1.2806,-1.1929,-1.2003,-1.1558,-1.1186,-1.1335,-1.1409,-1.1484,-1.1706,-1.1174,-1.072,-1.0812,-1.0207,-0.9599,-0.8927,-0.8775,-0.8399,-0.771,-0.7557,-0.7484,-0.7484,-0.7484,-0.7484,-0.7484,-0.7484,-0.7484,-0.7484,-0.7334,-0.7257,-0.7257,-0.7022,-0.6942,-0.6865,-0.6714,-0.649,-0.6338,-0.6338,-0.6338,-0.6338,-0.6338,-0.6338,-0.6264,-0.6281,-0.6363,-0.6474,-0.6519,-0.6695,-0.6929,-0.6949,-0.7034,-0.7139,-0.7139,-0.7139,-0.7143,-0.7166,-0.7095,-0.7063,-0.7108,-0.696,-0.67,-0.6714,-0.6539,-0.6437,-0.6437,-0.6437,-0.6437,-0.6437,-0.6437,-0.6437,-0.6437,-0.6437,-0.6437,-0.6437,-0.6437,-0.6437,-0.6437,-0.6437,-0.6437,-0.6437,-0.6437,-0.6437,-0.6437,-0.5436,-0.4834,-0.4834,-0.3833,-0.323,-0.323,-0.323,-0.3256,-0.3318,-0.3379,-0.3437,-0.3495,-0.3555,-0.3587,-0.3587,-0.3587,-0.3587,-0.3587,-0.3587,-0.3587,-0.3587,-0.3587,-0.3587,-1.7261,-1.5965,-1.5133,-1.4705,-1.4201,-1.3833,-1.3833,-1.2879,-1.2003,-1.2003,-1.1484,-1.1111,-1.1186,-1.126,-1.1335,-1.1484,-1.0881,-1.0207,-0.9981,-0.9367,-0.8689,-0.7944,-0.7868,-0.7791,-0.7561,-0.7326,-0.7176,-0.7334,-0.7253,-0.7176,-0.7334,-0.7253,-0.7253,-0.7334,-0.7099,-0.7022,-0.7022,-0.6868,-0.6637,-0.6563,-0.649,-0.6412,-0.6338,-0.6338,-0.6338,-0.6338,-0.6338,-0.6338,-0.6338,-0.6338,-0.6298,-0.6363,-0.6441,-0.6556,-0.6695,-0.6865,-0.6966,-0.7034,-0.7112,-0.7139,-0.7139,-0.7139,-0.6975,-0.6755,-0.6892,-0.6742,-0.6485,-0.6606,-0.6537,-0.6437,-0.6437,-0.6437,-0.6437,-0.6437,-0.6437,-0.6437,-0.6437,-0.6437,-0.6437,-0.6437,-0.6437,-0.6437,-0.6437,-0.6437,-0.6437,-0.6437,-0.6134,-0.5937,-0.5937,-0.5035,-0.4334,-0.4334,-0.3632,-0.323,-0.323,-0.323,-0.3241,-0.3268,-0.336,-0.3424,-0.3448,-0.3538,-0.3587,-0.3587,-0.3587,-0.3587,-0.3587,-0.3587,-0.3587,-0.3587,-0.3587,-0.3587,-1.716,-1.6188,-1.5621,-1.4776,-1.4274,-1.3977,-1.3833,-1.2959,-1.2157,-1.2003,-1.1484,-1.1111,-1.1111,-1.1111,-1.1186,-1.1335,-1.0513,-0.9685,-0.9301,-0.8461,-0.7778,-0.7257,-0.718,-0.718,-0.7407,-0.7096,-0.6942,-0.7103,-0.7019,-0.6942,-0.7103,-0.7019,-0.6942,-0.7103,-0.6945,-0.6788,-0.6788,-0.6637,-0.6412,-0.6338,-0.6338,-0.6338,-0.6338,-0.6338,-0.6338,-0.6338,-0.6338,-0.6338,-0.6338,-0.6338,-0.6338,-0.6271,-0.6376,-0.6441,-0.6502,-0.6729,-0.6861,-0.6946,-0.7051,-0.7109,-0.7051,-0.7054,-0.677,-0.6609,-0.6656,-0.6507,-0.6246,-0.6361,-0.6415,-0.6437,-0.6437,-0.6437,-0.6437,-0.6437,-0.6437,-0.6437,-0.6437,-0.6437,-0.6437,-0.6437,-0.6437,-0.6437,-0.6437,-0.6437,-0.6337,-0.6234,-0.5837,-0.5536,-0.5434,-0.4533,-0.4033,-0.4033,-0.3531,-0.323,-0.323,-0.323,-0.323,-0.323,-0.3345,-0.3413,-0.3413,-0.3525,-0.3587,-0.3587,-0.3587,-0.3587,-0.3587,-0.3587,-0.3587,-0.3587,-0.3587,-0.3587,-1.7784,-1.6608,-1.5621,-1.4776,-1.4569,-1.4425,-1.3905,-1.3331,-1.2673,-1.215,-1.1484,-1.1111,-1.1111,-1.1111,-1.1111,-1.1111,-0.983,-0.8851,-0.8998,-0.7706,-0.6795,-0.7184,-0.7022,-0.7022,-0.7184,-0.7022,-0.6942,-0.6942,-0.6942,-0.6942,-0.6942,-0.6942,-0.6942,-0.6942,-0.6714,-0.6637,-0.6637,-0.6412,-0.6338,-0.6338,-0.6338,-0.6338,-0.6338,-0.6338,-0.6338,-0.6338,-0.6338,-0.6338,-0.6338,-0.6338,-0.6338,-0.6338,-0.6271,-0.6356,-0.6474,-0.6488,-0.6678,-0.6929,-0.6939,-0.7027,-0.7051,-0.6881,-0.6618,-0.6379,-0.6338,-0.6188,-0.6121,-0.6244,-0.6352,-0.6437,-0.6437,-0.6437,-0.6437,-0.6437,-0.6437,-0.6437,-0.6437,-0.6437,-0.6437,-0.6437,-0.6437,-0.6437,-0.6437,-0.6437,-0.6237,-0.5737,-0.5636,-0.5434,-0.4935,-0.4334,-0.4033,-0.4033,-0.3531,-0.323,-0.323,-0.323,-0.323,-0.323,-0.3345,-0.3413,-0.3413,-0.3525,-0.3587,-0.3587,-0.3587,-0.3587,-0.3587,-0.3587,-0.3587,-0.3587,-0.3587,-0.3587,-1.8172,-1.7181,-1.6315,-1.5551,-1.4991,-1.4569,-1.4346,-1.355,-1.2826,-1.2599,-1.1781,-1.1111,-1.1111,-1.1111,-1.0962,-1.0443,-0.9382,-0.8551,-0.8089,-0.7173,-0.6641,-0.6795,-0.6714,-0.6791,-0.7019,-0.6718,-0.6563,-0.6714,-0.6563,-0.6328,-0.5928,-0.5777,-0.5467,-0.5076,-0.5392,-0.5864,-0.6412,-0.6338,-0.6338,-0.6338,-0.6338,-0.6338,-0.6338,-0.6338,-0.6338,-0.6338,-0.6338,-0.6338,-0.6338,-0.6338,-0.6338,-0.6338,-0.6338,-0.6291,-0.6346,-0.6437,-0.6603,-0.6797,-0.6721,-0.676,-0.6881,-0.6612,-0.6435,-0.6195,-0.6239,-0.6121,-0.601,-0.6211,-0.6298,-0.6344,-0.6418,-0.6437,-0.6437,-0.6437,-0.6437,-0.6437,-0.6437,-0.6437,-0.6437,-0.6437,-0.6437,-0.6437,-0.6437,-0.6137,-0.5834,-0.5636,-0.5035,-0.4535,-0.4334,-0.3831,-0.3531,-0.3531,-0.3331,-0.323,-0.323,-0.323,-0.323,-0.323,-0.3345,-0.3413,-0.3413,-0.3525,-0.3587,-0.3587,-0.3587,-0.3587,-0.3587,-0.3587,-0.3587,-0.3587,-0.3587,-0.3587,-1.8359,-1.7628,-1.7001,-1.6044,-1.5409,-1.4919,-1.4641,-1.3695,-1.29,-1.29,-1.1929,-1.1111,-1.1111,-1.1111,-1.0812,-0.9992,-0.9236,-0.8399,-0.7633,-0.6945,-0.649,-0.6563,-0.6563,-0.6563,-0.6788,-0.6251,-0.5944,-0.6015,-0.5705,-0.5237,-0.4841,-0.4688,-0.4377,-0.3988,-0.438,-0.4846,-0.5473,-0.5476,-0.5631,-0.5867,-0.5867,-0.6025,-0.6338,-0.6338,-0.6338,-0.6338,-0.6338,-0.6338,-0.6338,-0.6338,-0.6338,-0.6338,-0.6338,-0.6338,-0.6349,-0.6366,-0.6495,-0.6644,-0.6544,-0.6602,-0.6643,-0.6419,-0.6169,-0.61,-0.6096,-0.5968,-0.5945,-0.6151,-0.6236,-0.6295,-0.6407,-0.6437,-0.6437,-0.6437,-0.6437,-0.6437,-0.6437,-0.6437,-0.6437,-0.6437,-0.6437,-0.6337,-0.6137,-0.5834,-0.5436,-0.5135,-0.4433,-0.3932,-0.3732,-0.343,-0.323,-0.323,-0.323,-0.323,-0.323,-0.323,-0.323,-0.323,-0.3345,-0.3413,-0.3413,-0.3525,-0.3587,-0.3587,-0.3587,-0.3587,-0.3587,-0.3587,-0.3587,-0.3587,-0.3587,-0.3587,0.0,0.0,0.0,-1.6175,-1.5833,-1.5551,-1.4776,-1.3695,-1.29,-1.29,-1.1929,-1.1111,-1.1123,-1.1123,-1.0824,-1.0003,-0.9236,-0.8399,-0.7633,-0.6795,-0.6338,-0.6563,-0.6412,-0.6412,-0.6563,-0.5625,-0.5004,-0.5004,-0.43,-0.383,-0.3752,-0.3752,-0.3752,-0.3752,-0.3752,-0.3752,-0.383,-0.383,-0.4222,-0.5004,-0.5004,-0.5473,-0.6338,-0.6338,-0.6338,-0.6338,-0.6338,-0.6338,-0.6338,-0.6338,-0.6338,-0.6338,-0.6338,-0.6338,-0.6338,-0.6338,-0.6349,-0.6495,-0.6321,-0.6379,-0.6516,-0.6219,-0.6083,-0.5997,-0.5822,-0.5812,-0.5923,-0.6045,-0.6168,-0.629,-0.6404,-0.6437,-0.6437,-0.6437,-0.6437,-0.6437,-0.6437,-0.6437,-0.6437,-0.6437,-0.6437,-0.6234,-0.5737,-0.5534,-0.5236,-0.4133,-0.4033,-0.3833,-0.323,-0.323,-0.323,-0.323,-0.323,-0.323,-0.323,-0.323,-0.3232,-0.3233,-0.3346,-0.3413,-0.3414,-0.3526,-0.3587,-0.3587,-0.3587,-0.3587,-0.3587,-0.3587,-0.3587,-0.3587,-0.3587,-0.3587,-1.8987,0.0,0.0,0.0,0.0,0.0,-1.4641,-1.4057,-1.3404,-1.2966,-1.2298,-1.1695,-1.1453,-1.1413,-1.1106,-1.0324,-0.9336,-0.8399,-0.7633,-0.6795,-0.6338,-0.6412,-0.6338,-0.6338,-0.6412,-0.6103,-0.5709,-0.5082,-0.4768,-0.4146,-0.2899,-0.2273,-0.2273,-0.2821,-0.2821,-0.3132,-0.383,-0.4377,-0.4768,-0.5004,-0.5631,-0.6103,-0.6338,-0.6338,-0.6338,-0.6338,-0.6338,-0.6338,-0.6338,-0.6338,-0.6338,-0.6338,-0.6338,-0.6338,-0.6338,-0.6338,-0.6274,-0.6257,-0.6153,-0.6123,-0.6085,-0.5869,-0.5822,-0.5822,-0.5733,-0.5757,-0.5803,-0.592,-0.6043,-0.6181,-0.6385,-0.6437,-0.6437,-0.6437,-0.6437,-0.6437,-0.6437,-0.6437,-0.6437,-0.6437,-0.6137,-0.5737,-0.5636,-0.4935,-0.4334,-0.4033,-0.3632,-0.3331,-0.323,-0.323,-0.323,-0.323,-0.323,-0.323,-0.323,-0.323,-0.3249,-0.3293,-0.3369,-0.3431,-0.3471,-0.3546,-0.3587,-0.3587,-0.3587,-0.3587,-0.3587,-0.3587,-0.3587,-0.3587,-0.3587,-0.3587,-1.9199,-1.8452,-1.7755,-1.7413,0.0,0.0,-1.5196,-1.441,-1.3688,-1.3331,-1.2695,-1.208,-1.1877,-1.1768,-1.1498,-1.0918,-0.9999,-0.8952,-0.7646,-0.6795,-0.6338,-0.6338,-0.6338,-0.6338,-0.6338,-0.5948,-0.5553,-0.5004,-0.438,-0.3368,-0.2041,-0.1571,-0.1492,-0.1962,-0.1962,-0.2431,-0.3287,-0.3756,-0.4302,-0.5004,-0.555,-0.5944,-0.6338,-0.6338,-0.6338,-0.6338,-0.6338,-0.6338,-0.6338,-0.6338,-0.6338,-0.6338,-0.6338,-0.6338,-0.6261,-0.618,-0.6074,-0.601,-0.5825,-0.5791,-0.5834,-0.5616,-0.5692,-0.5733,-0.5733,-0.5733,-0.5757,-0.5871,-0.6029,-0.6195,-0.6331,-0.6401,-0.6437,-0.6437,-0.6437,-0.6437,-0.6437,-0.6437,-0.6437,-0.6437,-0.5934,-0.5536,-0.5336,-0.4533,-0.3932,-0.3732,-0.343,-0.323,-0.323,-0.323,-0.323,-0.323,-0.323,-0.323,-0.323,-0.323,-0.3256,-0.3318,-0.3379,-0.3437,-0.3495,-0.3555,-0.3587,-0.3587,-0.3587,-0.3587,-0.3587,-0.3587,-0.3587,-0.3587,-0.3587,-0.3587,-1.9261,-1.9106,-1.8787,-1.8037,-1.7345,0.0,-1.5833,-1.4792,-1.3965,-1.3885,-1.3255,-1.2639,-1.2588,-1.2346,-1.2043,-1.1733,-1.1036,-0.9818,-0.7893,-0.6949,-0.6412,-0.6338,-0.6338,-0.6338,-0.6338,-0.5631,-0.5082,-0.5004,-0.3522,-0.2353,-0.1649,-0.1492,-0.1414,-0.1414,-0.1335,-0.1649,-0.2511,-0.2588,-0.3444,-0.5004,-0.5082,-0.5553,-0.6338,-0.6338,-0.6338,-0.6338,-0.6338,-0.6338,-0.6338,-0.6338,-0.6338,-0.6338,-0.6338,-0.6261,-0.6257,-0.6018,-0.586,-0.5805,-0.5551,-0.5601,-0.5644,-0.5513,-0.5632,-0.5733,-0.5733,-0.5733,-0.5757,-0.5871,-0.6062,-0.6236,-0.6263,-0.6342,-0.642,-0.6434,-0.6437,-0.6437,-0.6437,-0.6437,-0.6337,-0.6337,-0.5837,-0.5336,-0.4834,-0.4334,-0.3732,-0.323,-0.323,-0.323,-0.323,-0.323,-0.323,-0.323,-0.323,-0.323,-0.323,-0.323,-0.3259,-0.3327,-0.3383,-0.344,-0.3504,-0.3559,-0.3587,-0.3587,-0.3587,-0.3587,-0.3587,-0.3587,-0.3587,-0.3587,-0.3587,-0.3587,-1.9713,-1.8937,-1.8037,-1.7276,-1.6594,0.0,-1.4991,-1.4863,-1.4774,-1.4313,-1.4273,-1.4258,-1.3947,-1.3884,-1.3662,-1.305,-1.2111,-1.0695,-0.8751,-0.7787,-0.7026,-0.6416,-0.6338,-0.6338,-0.6338,-0.618,-0.5786,-0.5082,-0.4066,-0.3443,-0.3287,-0.2665,-0.2276,-0.2276,-0.1649,-0.1649,-0.2511,-0.321,-0.4066,-0.5004,-0.5709,-0.6103,-0.6338,-0.6338,-0.6338,-0.6338,-0.6338,-0.6338,-0.6338,-0.6338,-0.6338,-0.6338,-0.6338,-0.618,-0.5941,-0.5941,-0.5705,-0.5416,-0.5468,-0.5516,-0.5474,-0.5513,-0.5632,-0.5733,-0.5733,-0.5733,-0.5757,-0.5871,-0.5937,-0.6021,-0.6219,-0.6285,-0.6325,-0.6415,-0.6437,-0.6437,-0.6437,-0.6437,-0.6237,-0.5837,-0.5334,-0.4935,-0.4834,-0.4033,-0.3331,-0.323,-0.323,-0.323,-0.323,-0.323,-0.323,-0.323,-0.323,-0.323,-0.323,-0.323,-0.3278,-0.3388,-0.3406,-0.3461,-0.3565,-0.358,-0.3587,-0.3587,-0.3587,-0.3587,-0.3587,-0.3587,-0.3587,-0.3587,-0.3587,-0.3587,-1.982,-1.9213,-1.8452,-1.8104,-1.7413,0.0,0.0,-1.5836,-1.5585,-1.5078,-1.5002,-1.4959,-1.4794,-1.4629,-1.4275,-1.347,-1.2711,-1.1666,-0.9751,-0.8688,-0.7787,-0.7026,-0.6872,-0.6721,-0.6338,-0.6338,-0.5944,-0.5082,-0.4613,-0.4222,-0.383,-0.3365,-0.2978,-0.2511,-0.2508,-0.2741,-0.3132,-0.3988,-0.4846,-0.5631,-0.6103,-0.6338,-0.6338,-0.6338,-0.6338,-0.6338,-0.6338,-0.6338,-0.6338,-0.6338,-0.6257,-0.6099,-0.6099,-0.6022,-0.586,-0.5709,-0.5476,-0.5329,-0.5241,-0.53,-0.5379,-0.5439,-0.5586,-0.5733,-0.5733,-0.5733,-0.5744,-0.5803,-0.5858,-0.5945,-0.613,-0.6222,-0.6295,-0.641,-0.6437,-0.6437,-0.6437,-0.6437,-0.6237,-0.5737,-0.5133,-0.4734,-0.4433,-0.3732,-0.323,-0.323,-0.323,-0.323,-0.323,-0.323,-0.323,-0.323,-0.323,-0.323,-0.323,-0.323,-0.327,-0.3361,-0.3395,-0.3451,-0.3538,-0.3571,-0.3587,-0.3587,-0.3587,-0.3587,-0.3587,-0.3587,-0.3587,-0.3587,-0.3587,-0.3587,-1.9965,-1.9489,-1.9075,-1.8931,-1.8512,-1.8046,0.0,0.0,0.0,-1.6097,-1.5732,-1.5491,-1.5491,-1.5308,-1.4795,-1.3818,-1.3407,-1.258,-1.093,-0.9869,-0.8899,-0.7868,-0.7561,-0.7253,-0.6567,-0.6416,-0.6022,-0.5318,-0.5237,-0.4924,-0.4222,-0.4064,-0.3677,-0.2978,-0.3521,-0.3908,-0.4064,-0.4691,-0.5473,-0.6338,-0.6338,-0.6338,-0.6338,-0.6338,-0.6338,-0.6338,-0.6338,-0.6261,-0.6257,-0.6257,-0.6103,-0.5864,-0.5864,-0.5864,-0.5709,-0.5398,-0.5243,-0.5246,-0.5093,-0.5156,-0.5339,-0.5363,-0.5534,-0.5733,-0.5733,-0.5733,-0.5733,-0.5733,-0.5801,-0.5899,-0.6021,-0.6143,-0.6263,-0.6377,-0.642,-0.6337,-0.6237,-0.6237,-0.6034,-0.5434,-0.4935,-0.4535,-0.4033,-0.3531,-0.323,-0.323,-0.323,-0.323,-0.323,-0.323,-0.323,-0.323,-0.323,-0.323,-0.323,-0.323,-0.3256,-0.3318,-0.3379,-0.3437,-0.3495,-0.3555,-0.3587,-0.3587,-0.3587,-0.3587,-0.3587,-0.3587,-0.3587,-0.3587,-0.3587,-0.3587,-2.0255,-1.9727,-1.8931,-1.8307,-1.84,-1.8405,-1.7664,0.0,-1.7321,-1.7277,0.0,-1.6511,-1.6511,0.0,0.0,-1.5131,-1.4545,-1.368,-1.2344,-1.1569,-1.0545,-0.8799,-0.794,-0.7484,-0.7407,-0.6721,-0.6261,-0.618,-0.618,-0.6022,-0.5705,-0.516,-0.4768,-0.4453,-0.4064,-0.4144,-0.4846,-0.4924,-0.5473,-0.6338,-0.6338,-0.6338,-0.6338,-0.6338,-0.6338,-0.6338,-0.6338,-0.618,-0.5941,-0.5941,-0.5789,-0.5637,-0.5864,-0.5709,-0.5398,-0.5321,-0.5168,-0.5015,-0.5018,-0.5099,-0.5224,-0.5333,-0.5534,-0.5733,-0.5733,-0.5733,-0.5733,-0.5733,-0.5744,-0.5779,-0.5893,-0.6013,-0.6138,-0.626,-0.6363,-0.6237,-0.5837,-0.5737,-0.5436,-0.4332,-0.4133,-0.4033,-0.4033,-0.3531,-0.323,-0.323,-0.323,-0.323,-0.323,-0.323,-0.323,-0.323,-0.323,-0.323,-0.323,-0.323,-0.3256,-0.3318,-0.3379,-0.3437,-0.3495,-0.3555,-0.3587,-0.3587,-0.3587,-0.3587,-0.3587,-0.3587,-0.3587,-0.3587,-0.3587,-0.3587,-2.0369,-1.9758,-1.8998,-1.8721,-1.8998,-1.9043,-1.7979,-1.7965,-1.7891,-1.7006,0.0,0.0,0.0,0.0,0.0,0.0,-1.471,-1.3789,-1.2811,-1.2008,-1.0964,-0.9565,-0.8922,-0.8165,-0.7099,-0.6791,-0.6486,-0.6099,-0.6099,-0.6099,-0.6099,-0.5709,-0.5237,-0.4688,-0.4921,-0.4924,-0.4844,-0.5315,-0.5786,-0.6338,-0.6338,-0.6338,-0.6338,-0.6338,-0.6338,-0.6338,-0.6563,-0.656,-0.6479,-0.671,-0.6714,-0.6563,-0.6637,-0.6325,-0.578,-0.5705,-0.5631,-0.5556,-0.5556,-0.5404,-0.5219,-0.5412,-0.5591,-0.5733,-0.5733,-0.5733,-0.5733,-0.5733,-0.5733,-0.576,-0.5874,-0.5942,-0.6029,-0.6222,-0.6306,-0.6158,-0.5722,-0.5636,-0.5236,-0.4234,-0.4033,-0.3932,-0.3632,-0.3331,-0.323,-0.323,-0.323,-0.323,-0.323,-0.323,-0.323,-0.323,-0.323,-0.323,-0.323,-0.323,-0.3241,-0.3267,-0.336,-0.3454,-0.3545,-0.3574,-0.3587,-0.3587,-0.3587,-0.3587,-0.3587,-0.3587,-0.3587,-0.3587,-0.3587,-0.3587,-2.042,-1.9689,-1.9029,-1.923,-1.9545,-1.9636,-1.8896,-1.8635,-1.8301,-1.722,-1.6722,0.0,0.0,0.0,-1.6206,-1.5703,0.0,-1.3913,-1.2962,-1.2095,-1.1272,-1.0181,-0.9533,-0.8618,-0.7326,-0.6942,-0.6633,-0.6321,-0.6018,-0.5867,-0.6025,-0.5867,-0.555,-0.4924,-0.5547,-0.5625,-0.4999,-0.5705,-0.6177,-0.6486,-0.6567,-0.6721,-0.6795,-0.6795,-0.6795,-0.6795,-0.7019,-0.7019,-0.7022,-0.733,-0.7334,-0.7103,-0.7103,-0.6942,-0.6626,-0.6321,-0.617,-0.617,-0.617,-0.5975,-0.5834,-0.5945,-0.6037,-0.5994,-0.5994,-0.5819,-0.5733,-0.5733,-0.5733,-0.5752,-0.5836,-0.588,-0.5956,-0.6168,-0.6147,-0.5907,-0.5515,-0.5236,-0.4935,-0.3932,-0.3732,-0.3632,-0.323,-0.323,-0.323,-0.323,-0.323,-0.323,-0.323,-0.323,-0.323,-0.323,-0.323,-0.323,-0.323,-0.323,-0.3244,-0.3278,-0.3364,-0.3465,-0.3582,-0.3587,-0.3587,-0.3587,-0.3587,-0.3587,-0.3587,-0.3587,-0.3587,-0.3587,-0.3587,-0.3587,-2.042,-1.963,-1.8977,-1.9634,-1.9808,-2.005,-2.0558,-1.9591,-1.8621,-1.8559,-1.7204,-1.6087,-1.6087,-1.6087,-1.598,-1.5652,-1.5286,0.0,0.0,-1.2205,-1.1618,-1.0576,-0.9458,-0.8703,-0.8623,-0.7403,-0.6788,-0.7165,-0.6173,-0.5559,-0.5321,-0.5479,-0.5479,-0.5321,-0.5705,-0.586,-0.586,-0.618,-0.6486,-0.6865,-0.7249,-0.7629,-0.8008,-0.8008,-0.8008,-0.8003,-0.7633,-0.733,-0.718,-0.7184,-0.7099,-0.6942,-0.6942,-0.7246,-0.7706,-0.7092,-0.6865,-0.6865,-0.6865,-0.7073,-0.7342,-0.7353,-0.7062,-0.6779,-0.6779,-0.6257,-0.5733,-0.5733,-0.5733,-0.5735,-0.5738,-0.582,-0.5934,-0.6062,-0.5797,-0.5417,-0.4916,-0.4435,-0.3932,-0.3331,-0.323,-0.323,-0.323,-0.323,-0.323,-0.323,-0.323,-0.323,-0.323,-0.323,-0.323,-0.323,-0.323,-0.323,-0.323,-0.323,-0.3281,-0.3399,-0.341,-0.3465,-0.3582,-0.3587,-0.3587,-0.3587,-0.3587,-0.3587,-0.3587,-0.3587,-0.3587,-0.3587,-0.3587,-0.3587,0.0,0.0,-1.9525,-1.9748,-2.006,-2.0054,-1.9184,-1.8756,-1.8238,-1.6944,-1.6402,-1.6087,-1.5914,-1.5824,-1.5876,-1.5934,-1.5343,-1.4564,0.0,-1.2081,-1.0783,-1.0165,-0.9544,-0.8861,-0.8165,-0.7787,-0.7488,-0.7253,-0.6872,-0.6718,-0.6788,-0.6718,-0.6405,-0.5935,-0.6479,-0.656,-0.6089,-0.6637,-0.7026,-0.7326,-0.7407,-0.7557,-0.7706,-0.7706,-0.7706,-0.7706,-0.7868,-0.7872,-0.7795,-0.8097,-0.8169,-0.8089,-0.8089,-0.8241,-0.8318,-0.7706,-0.7476,-0.7476,-0.7015,-0.7156,-0.7432,-0.7432,-0.7144,-0.6779,-0.6779,-0.6257,-0.5733,-0.5733,-0.5733,-0.5733,-0.5733,-0.5763,-0.5729,-0.5568,-0.54,-0.5122,-0.4334,-0.4097,-0.3833,-0.3331,-0.323,-0.323,-0.323,-0.323,-0.323,-0.323,-0.323,-0.323,-0.323,-0.323,-0.323,-0.323,-0.323,-0.323,-0.323,-0.323,-0.3266,-0.3347,-0.339,-0.3447,-0.3523,-0.3565,-0.3587,-0.3587,-0.3587,-0.3587,-0.3587,-0.3587,-0.3587,-0.3587,-0.3587,-0.3587,-2.0541,-1.9905,0.0,-1.9527,-1.9474,0.0,-1.8309,-1.7977,-1.7585,-1.6296,-1.5989,-1.5839,-1.5665,-1.5575,-1.5665,-1.5839,-1.5333,-1.4689,0.0,-1.1827,-1.0218,-0.9922,-0.9392,-0.8937,-0.8546,-0.8246,-0.7868,-0.7633,-0.733,-0.7176,-0.7249,-0.7176,-0.6868,-0.6472,-0.6945,-0.7022,-0.6553,-0.7022,-0.7411,-0.7714,-0.7868,-0.8016,-0.8174,-0.8174,-0.8174,-0.8174,-0.825,-0.8327,-0.8327,-0.8627,-0.8703,-0.8703,-0.8703,-0.8703,-0.8623,-0.8241,-0.8089,-0.8089,-0.7706,-0.7791,-0.809,-0.809,-0.7824,-0.757,-0.757,-0.6871,-0.6091,-0.6138,-0.5941,-0.5744,-0.5782,-0.5581,-0.5399,-0.5235,-0.4969,-0.4591,-0.4001,-0.3781,-0.3632,-0.323,-0.323,-0.323,-0.323,-0.323,-0.323,-0.323,-0.323,-0.323,-0.323,-0.323,-0.323,-0.323,-0.323,-0.323,-0.323,-0.323,-0.3256,-0.3318,-0.3379,-0.3437,-0.3495,-0.3555,-0.3587,-0.3587,-0.3587,-0.3587,-0.3587,-0.3587,-0.3587,-0.3587,-0.3587,-0.3587]},{"header":{"parameterUnit":"m.s-1","parameterCategory":1,"la1":30.6,"la2":29.2853,"lo1":-89.7004,"lo2":-87.6739,"dy":0.0162,"dx":0.0183,"nx":112,"ny":82,"refTime":"2023-07-12T06:00:00:Z","depth":0,"parameterNumber":3,"parameterNumberName":"V-component_of_WINDS"},"data":[0.0,0.0,0.0,0.0,0.0,0.0,0.0,0.0,0.0,0.0,0.0,0.0,0.0,0.0,0.0,0.0,0.0,0.0,0.0,0.0,0.0,0.0,0.0,0.0,0.0,0.0,0.0,0.0,0.0,0.0,0.0,0.0,0.0,0.0,0.0,0.0,0.0,0.0,0.0,0.0,0.0,0.0,0.0,0.0,0.0,0.0,0.0,0.0,0.0,0.0,0.0,0.0,0.0,0.0,0.0,0.0,0.0,0.0,0.0,0.0,0.0,0.0,0.0,0.0,0.0,0.0,0.0,0.0,0.0,0.0,0.0,0.0,0.0,0.0,0.0,0.0,0.0,0.0,0.0,0.0,0.0,0.0,0.0,0.0,0.0,0.0,0.0,0.0,0.0,0.0,-3.4218,-3.3198,-3.2185,-3.1977,-3.2864,-3.2586,-3.2873,-3.3882,0.0,0.0,0.0,0.0,0.0,0.0,0.0,0.0,0.0,0.0,0.0,0.0,0.0,0.0,0.0,0.0,0.0,0.0,0.0,0.0,0.0,0.0,0.0,0.0,0.0,0.0,0.0,0.0,0.0,0.0,0.0,0.0,0.0,0.0,0.0,0.0,0.0,0.0,0.0,0.0,0.0,0.0,0.0,0.0,0.0,0.0,0.0,0.0,0.0,0.0,0.0,0.0,0.0,0.0,0.0,0.0,0.0,0.0,0.0,0.0,0.0,0.0,0.0,0.0,0.0,0.0,0.0,0.0,0.0,0.0,0.0,0.0,0.0,0.0,0.0,0.0,0.0,0.0,0.0,0.0,0.0,0.0,0.0,0.0,0.0,0.0,0.0,0.0,0.0,0.0,0.0,0.0,0.0,0.0,0.0,0.0,0.0,0.0,0.0,0.0,0.0,0.0,0.0,0.0,-3.3764,-3.2656,-3.2382,-3.2104,-3.1807,-3.216,-3.2641,-3.3303,0.0,0.0,0.0,0.0,0.0,0.0,0.0,0.0,0.0,0.0,0.0,0.0,0.0,0.0,0.0,0.0,0.0,0.0,0.0,0.0,0.0,0.0,0.0,0.0,0.0,0.0,0.0,0.0,0.0,0.0,0.0,0.0,0.0,0.0,0.0,0.0,0.0,0.0,0.0,0.0,0.0,0.0,0.0,0.0,0.0,0.0,0.0,0.0,0.0,0.0,0.0,0.0,0.0,0.0,0.0,0.0,0.0,0.0,0.0,0.0,0.0,0.0,0.0,0.0,0.0,0.0,0.0,0.0,0.0,0.0,0.0,0.0,0.0,0.0,0.0,0.0,0.0,0.0,0.0,0.0,0.0,0.0,0.0,0.0,0.0,0.0,0.0,0.0,0.0,0.0,0.0,0.0,0.0,0.0,0.0,0.0,0.0,0.0,0.0,0.0,0.0,0.0,0.0,-3.3214,-3.2461,-3.1992,-3.1595,-3.1422,-3.1495,-3.2048,-3.2641,-3.3198,-3.3764,0.0,0.0,0.0,0.0,0.0,0.0,0.0,0.0,0.0,0.0,0.0,0.0,0.0,0.0,0.0,0.0,0.0,0.0,0.0,0.0,0.0,0.0,0.0,0.0,0.0,0.0,0.0,0.0,0.0,0.0,0.0,0.0,0.0,0.0,0.0,0.0,0.0,0.0,0.0,0.0,0.0,0.0,0.0,0.0,0.0,0.0,0.0,0.0,0.0,0.0,0.0,0.0,0.0,0.0,0.0,0.0,0.0,0.0,0.0,0.0,0.0,0.0,0.0,0.0,0.0,0.0,0.0,0.0,0.0,0.0,0.0,0.0,0.0,0.0,0.0,0.0,0.0,0.0,0.0,0.0,0.0,0.0,0.0,0.0,0.0,0.0,0.0,0.0,0.0,0.0,0.0,0.0,0.0,0.0,0.0,0.0,0.0,0.0,0.0,0.0,0.0,0.0,-3.217,-3.148,-3.148,-3.097,-3.0807,-3.1263,-3.1959,-3.2592,-3.3002,-3.3914,0.0,0.0,0.0,0.0,0.0,0.0,0.0,0.0,0.0,0.0,0.0,0.0,0.0,0.0,0.0,0.0,0.0,0.0,0.0,0.0,0.0,0.0,0.0,0.0,0.0,0.0,0.0,0.0,0.0,0.0,0.0,0.0,0.0,0.0,0.0,0.0,0.0,0.0,0.0,0.0,0.0,0.0,0.0,0.0,0.0,0.0,0.0,0.0,0.0,0.0,0.0,0.0,0.0,0.0,0.0,0.0,0.0,0.0,0.0,0.0,0.0,0.0,0.0,0.0,0.0,0.0,0.0,0.0,0.0,0.0,0.0,0.0,0.0,0.0,0.0,0.0,0.0,0.0,0.0,0.0,0.0,0.0,0.0,0.0,0.0,0.0,0.0,0.0,0.0,0.0,0.0,0.0,0.0,0.0,0.0,0.0,0.0,0.0,0.0,0.0,0.0,0.0,-3.217,-3.148,-3.148,-3.097,-3.0642,-3.0628,-3.1783,-3.25,-3.2484,-3.4376,0.0,0.0,0.0,0.0,0.0,0.0,0.0,0.0,0.0,0.0,0.0,0.0,0.0,0.0,0.0,0.0,0.0,0.0,0.0,0.0,0.0,0.0,0.0,0.0,0.0,0.0,0.0,0.0,0.0,0.0,0.0,0.0,0.0,0.0,0.0,0.0,0.0,0.0,0.0,0.0,0.0,0.0,0.0,0.0,0.0,0.0,0.0,0.0,0.0,0.0,0.0,0.0,0.0,0.0,0.0,0.0,0.0,0.0,0.0,0.0,0.0,0.0,0.0,0.0,0.0,0.0,0.0,0.0,0.0,0.0,0.0,0.0,0.0,0.0,0.0,0.0,0.0,0.0,0.0,0.0,0.0,0.0,0.0,0.0,0.0,0.0,0.0,0.0,0.0,0.0,0.0,0.0,0.0,0.0,0.0,0.0,0.0,0.0,0.0,0.0,0.0,0.0,-3.1407,-3.0925,-3.0925,-3.0747,-3.0727,-3.1134,-3.196,-3.2792,-3.3712,0.0,0.0,0.0,0.0,0.0,0.0,0.0,0.0,0.0,0.0,0.0,0.0,0.0,0.0,0.0,0.0,0.0,0.0,0.0,0.0,0.0,0.0,0.0,0.0,0.0,0.0,0.0,0.0,0.0,0.0,0.0,0.0,0.0,0.0,0.0,0.0,0.0,0.0,0.0,0.0,0.0,0.0,0.0,0.0,0.0,0.0,0.0,0.0,0.0,0.0,0.0,0.0,0.0,0.0,0.0,0.0,0.0,0.0,0.0,0.0,0.0,0.0,0.0,0.0,0.0,0.0,0.0,0.0,0.0,0.0,0.0,0.0,0.0,0.0,0.0,0.0,0.0,0.0,0.0,0.0,0.0,0.0,0.0,0.0,0.0,0.0,0.0,0.0,0.0,0.0,0.0,0.0,0.0,0.0,0.0,0.0,0.0,0.0,0.0,0.0,0.0,0.0,-3.1895,-3.147,-3.1192,-3.1192,-3.1192,-3.1366,-3.1801,-3.2596,-3.3576,-3.457,0.0,0.0,0.0,0.0,0.0,0.0,0.0,0.0,0.0,0.0,0.0,0.0,0.0,0.0,0.0,0.0,0.0,0.0,0.0,0.0,0.0,0.0,0.0,0.0,0.0,0.0,0.0,0.0,0.0,0.0,0.0,0.0,0.0,0.0,0.0,0.0,0.0,0.0,0.0,0.0,0.0,0.0,0.0,0.0,0.0,0.0,0.0,0.0,0.0,0.0,0.0,0.0,0.0,0.0,0.0,0.0,0.0,0.0,0.0,0.0,0.0,0.0,0.0,0.0,0.0,0.0,0.0,0.0,0.0,0.0,0.0,0.0,0.0,0.0,0.0,0.0,0.0,0.0,0.0,0.0,0.0,0.0,0.0,0.0,0.0,0.0,0.0,0.0,0.0,0.0,0.0,0.0,0.0,0.0,0.0,0.0,0.0,0.0,0.0,0.0,0.0,0.0,-3.2511,-3.2467,-3.2513,-3.2513,-3.2513,-3.2513,-3.2527,-3.3865,-3.4668,0.0,0.0,0.0,0.0,0.0,0.0,0.0,0.0,0.0,0.0,0.0,0.0,0.0,0.0,0.0,0.0,0.0,0.0,0.0,0.0,0.0,0.0,0.0,0.0,0.0,0.0,0.0,0.0,0.0,0.0,0.0,0.0,0.0,0.0,0.0,0.0,0.0,0.0,0.0,0.0,0.0,0.0,0.0,0.0,0.0,0.0,0.0,0.0,0.0,0.0,0.0,0.0,0.0,0.0,0.0,0.0,0.0,0.0,0.0,0.0,0.0,0.0,0.0,0.0,0.0,0.0,0.0,0.0,0.0,0.0,0.0,0.0,0.0,0.0,0.0,0.0,0.0,0.0,0.0,0.0,0.0,0.0,0.0,0.0,0.0,0.0,0.0,0.0,0.0,0.0,0.0,0.0,0.0,0.0,0.0,0.0,0.0,0.0,0.0,0.0,0.0,0.0,0.0,-3.2911,-3.2842,-3.2849,-3.2849,-3.2849,-3.304,-3.3524,-3.437,-3.5294,-3.631,0.0,0.0,0.0,0.0,0.0,0.0,0.0,0.0,0.0,0.0,0.0,0.0,0.0,0.0,0.0,0.0,0.0,0.0,0.0,0.0,0.0,0.0,0.0,0.0,0.0,0.0,0.0,0.0,0.0,0.0,0.0,0.0,0.0,0.0,0.0,0.0,0.0,0.0,0.0,0.0,0.0,0.0,0.0,0.0,0.0,0.0,0.0,0.0,0.0,0.0,0.0,0.0,0.0,0.0,0.0,0.0,0.0,0.0,0.0,0.0,0.0,0.0,0.0,0.0,0.0,0.0,0.0,0.0,0.0,0.0,0.0,0.0,0.0,0.0,0.0,0.0,0.0,0.0,0.0,0.0,0.0,0.0,0.0,0.0,0.0,0.0,0.0,0.0,0.0,0.0,0.0,0.0,0.0,0.0,0.0,0.0,0.0,0.0,0.0,0.0,0.0,0.0,-3.3484,-3.3593,-3.3741,-3.3741,-3.3741,-3.3903,-3.4316,-3.5007,-3.5892,-3.704,0.0,0.0,0.0,0.0,0.0,0.0,0.0,0.0,0.0,0.0,0.0,0.0,0.0,0.0,0.0,0.0,0.0,0.0,0.0,0.0,0.0,0.0,0.0,0.0,0.0,0.0,0.0,0.0,0.0,0.0,0.0,0.0,0.0,0.0,0.0,0.0,0.0,0.0,0.0,0.0,0.0,0.0,0.0,0.0,0.0,0.0,0.0,0.0,0.0,0.0,0.0,0.0,0.0,0.0,0.0,0.0,0.0,0.0,0.0,0.0,0.0,0.0,0.0,0.0,0.0,0.0,0.0,0.0,0.0,0.0,0.0,0.0,0.0,0.0,0.0,0.0,0.0,0.0,0.0,0.0,0.0,0.0,0.0,0.0,0.0,0.0,0.0,0.0,0.0,0.0,0.0,0.0,0.0,0.0,0.0,0.0,0.0,0.0,0.0,0.0,0.0,0.0,-3.4258,-3.4646,-3.4935,-3.4935,-3.4935,-3.5001,-3.5052,-3.5816,-3.6554,-3.7175,0.0,0.0,0.0,0.0,0.0,0.0,0.0,0.0,0.0,0.0,0.0,0.0,0.0,0.0,0.0,0.0,0.0,0.0,0.0,0.0,0.0,0.0,0.0,0.0,0.0,0.0,0.0,0.0,0.0,0.0,0.0,0.0,0.0,0.0,0.0,0.0,0.0,0.0,0.0,0.0,0.0,0.0,0.0,0.0,0.0,0.0,0.0,0.0,0.0,0.0,0.0,0.0,0.0,0.0,0.0,0.0,0.0,0.0,0.0,0.0,-3.8504,-3.856,0.0,0.0,0.0,0.0,0.0,0.0,0.0,0.0,0.0,0.0,0.0,0.0,0.0,0.0,0.0,0.0,0.0,0.0,0.0,0.0,0.0,0.0,0.0,0.0,0.0,0.0,0.0,0.0,0.0,0.0,0.0,0.0,0.0,0.0,0.0,0.0,0.0,0.0,0.0,0.0,-3.5215,-3.5285,-3.5359,-3.5359,-3.5359,-3.5539,-3.6054,-3.6707,-3.7413,-3.7994,-3.8717,0.0,0.0,0.0,0.0,0.0,0.0,0.0,0.0,0.0,0.0,0.0,0.0,0.0,0.0,0.0,0.0,0.0,0.0,0.0,0.0,0.0,0.0,0.0,0.0,0.0,0.0,0.0,0.0,0.0,0.0,0.0,0.0,0.0,0.0,0.0,0.0,0.0,0.0,0.0,0.0,0.0,0.0,0.0,0.0,0.0,0.0,0.0,0.0,0.0,0.0,0.0,0.0,0.0,0.0,0.0,0.0,0.0,0.0,0.0,-3.8391,-3.8391,0.0,0.0,0.0,0.0,0.0,0.0,0.0,0.0,0.0,0.0,0.0,0.0,0.0,0.0,0.0,0.0,0.0,0.0,0.0,0.0,0.0,0.0,0.0,0.0,0.0,0.0,0.0,0.0,0.0,0.0,0.0,0.0,0.0,0.0,0.0,0.0,0.0,0.0,0.0,0.0,-3.5504,-3.5504,-3.5619,-3.591,-3.591,-3.6196,-3.6845,-3.7488,-3.7937,-3.8278,-3.8952,0.0,0.0,0.0,0.0,0.0,0.0,0.0,0.0,0.0,0.0,0.0,0.0,0.0,0.0,0.0,0.0,0.0,0.0,0.0,0.0,0.0,0.0,0.0,0.0,0.0,0.0,0.0,0.0,0.0,0.0,0.0,0.0,0.0,0.0,0.0,0.0,0.0,0.0,0.0,0.0,0.0,0.0,0.0,0.0,0.0,0.0,0.0,0.0,0.0,0.0,0.0,0.0,0.0,-3.8205,-3.8221,-3.8221,-3.8221,-3.8221,-3.8221,-3.8335,-3.8391,-3.8391,-3.8391,0.0,0.0,0.0,0.0,0.0,0.0,0.0,0.0,0.0,0.0,0.0,0.0,0.0,0.0,0.0,0.0,0.0,0.0,0.0,0.0,0.0,0.0,-3.9272,-3.9272,-3.9272,-3.9272,-3.9272,0.0,0.0,0.0,0.0,0.0,0.0,0.0,0.0,0.0,0.0,0.0,-3.5861,-3.5861,-3.6022,-3.6538,-3.6538,-3.6829,-3.7472,-3.7994,-3.8351,-3.8463,-3.8969,-3.9272,0.0,0.0,0.0,0.0,0.0,0.0,0.0,0.0,0.0,0.0,0.0,0.0,0.0,0.0,0.0,0.0,0.0,0.0,0.0,0.0,0.0,0.0,0.0,0.0,0.0,0.0,0.0,0.0,0.0,0.0,0.0,0.0,-4.0171,-4.0138,0.0,0.0,0.0,0.0,0.0,0.0,0.0,0.0,0.0,0.0,0.0,0.0,0.0,-3.7637,-3.7131,-3.7943,-3.796,-3.7251,-3.746,-3.7535,-3.7535,-3.7535,-3.7535,-3.7535,-3.8148,0.0,-3.8391,-3.8391,0.0,0.0,0.0,0.0,0.0,0.0,0.0,0.0,0.0,0.0,0.0,0.0,0.0,0.0,0.0,0.0,0.0,0.0,0.0,0.0,0.0,0.0,-3.9272,-3.9272,-3.9272,-3.9272,-3.9272,-3.9272,-3.9272,-3.9272,-3.9272,-3.9094,0.0,0.0,0.0,0.0,0.0,0.0,-3.7131,-3.7131,-3.7191,-3.7251,-3.7251,-3.7546,-3.8108,-3.8222,-3.8535,-3.9148,-3.9272,-3.9272,-3.9272,-3.9272,0.0,0.0,0.0,0.0,0.0,0.0,0.0,0.0,0.0,0.0,0.0,0.0,0.0,0.0,0.0,0.0,0.0,0.0,0.0,0.0,0.0,0.0,0.0,0.0,0.0,0.0,0.0,0.0,0.0,-4.0271,-3.9969,-3.9627,-3.9082,-3.8463,0.0,0.0,0.0,0.0,0.0,0.0,0.0,0.0,0.0,-3.6024,-3.6384,-3.6446,-3.6134,-3.6707,-3.6829,-3.6538,-3.6615,-3.6753,-3.6829,-3.7131,-3.7282,-3.7417,-3.8091,-3.8391,-3.8391,-3.8391,-3.8391,-3.8391,0.0,0.0,0.0,0.0,-3.8655,-3.8952,-3.9007,-3.9348,-3.9783,-3.9833,0.0,0.0,0.0,0.0,0.0,0.0,0.0,-3.9556,-3.9362,-3.9272,-3.9272,-3.9272,-3.9272,-3.9272,-3.9272,-3.9272,-3.9272,-3.9272,-3.9272,-3.9094,-3.8407,-3.8278,0.0,0.0,0.0,-3.7429,-3.7429,-3.7429,-3.7531,-3.7879,-3.7879,-3.8181,-3.8843,-3.8843,-3.8969,-3.9272,-3.9272,-3.9272,-3.9272,-3.9272,-3.9272,0.0,0.0,0.0,0.0,0.0,0.0,0.0,0.0,0.0,0.0,0.0,0.0,0.0,0.0,0.0,0.0,0.0,0.0,0.0,0.0,0.0,0.0,0.0,0.0,0.0,0.0,0.0,0.0,-3.9969,-3.9696,-3.9259,-3.8518,-3.7895,0.0,0.0,0.0,0.0,0.0,0.0,-3.5688,-3.5479,-3.527,-3.5008,-3.5385,-3.5449,-3.527,-3.5706,-3.5946,-3.5837,-3.5915,-3.6119,-3.6446,-3.6753,-3.7087,-3.7417,-3.8091,-3.8391,-3.8391,-3.8391,-3.8391,-3.8391,-3.8391,-3.8391,-3.8391,-3.8391,-3.8504,-3.8672,-3.9007,-3.9295,-3.961,-3.9609,-3.9696,-3.9782,-3.9415,0.0,0.0,0.0,0.0,-3.9272,-3.9272,-3.9272,-3.9272,-3.9272,-3.9272,-3.9272,-3.9272,-3.9272,-3.9272,-3.9272,-3.9272,-3.9148,-3.8645,-3.8535,0.0,-3.7953,-3.7895,-3.7895,-3.7895,-3.7895,-3.8067,-3.8535,-3.8535,-3.8772,-3.9272,-3.9272,-3.9272,-3.9272,-3.9272,-3.9272,-3.9272,-3.9272,-3.9272,-3.9272,0.0,0.0,0.0,0.0,0.0,0.0,0.0,0.0,0.0,0.0,0.0,0.0,0.0,0.0,0.0,0.0,0.0,0.0,0.0,0.0,0.0,0.0,0.0,0.0,0.0,0.0,0.0,0.0,0.0,-3.9206,-3.8141,0.0,0.0,0.0,0.0,-3.6492,-3.6163,-3.5894,-3.5688,-3.5365,-3.5285,-3.54,-3.54,-3.527,-3.4957,-3.5676,-3.5788,-3.5175,-3.532,-3.5755,-3.6384,-3.6446,-3.6768,-3.7417,-3.8091,-3.8391,-3.8391,-3.8391,-3.8391,-3.8391,-3.8391,-3.8391,-3.8391,-3.8391,-3.8504,-3.8616,-3.875,-3.8914,-3.9077,-3.9255,-3.9325,-3.9325,-3.9325,-3.9272,0.0,0.0,-3.9272,-3.9272,-3.9272,-3.9272,-3.9272,-3.9272,-3.9272,-3.9272,-3.9272,-3.9272,-3.9272,-3.9272,-3.9272,-3.9272,-3.9272,0.0,-3.9218,-3.9202,-3.9202,-3.9202,-3.9202,-3.9202,-3.9218,-3.9272,-3.9272,-3.9272,-3.9272,-3.9272,-3.9272,-3.9272,-3.9272,-3.9272,-3.9272,-3.9272,-3.9272,-3.9272,-3.9325,0.0,0.0,0.0,0.0,0.0,0.0,0.0,0.0,0.0,0.0,0.0,0.0,0.0,0.0,0.0,0.0,0.0,0.0,0.0,0.0,0.0,0.0,0.0,0.0,0.0,0.0,0.0,0.0,-3.8684,-3.7911,0.0,-3.6831,-3.6616,-3.6492,-3.6492,-3.5752,-3.5285,-3.5219,-3.4438,-3.4045,-3.4249,-3.4385,-3.4399,-3.4264,-3.4758,-3.4824,-3.4438,-3.4505,-3.4942,-3.577,-3.6056,-3.6631,-3.7417,-3.8091,-3.8391,-3.8391,-3.8391,-3.8391,-3.8391,-3.8391,-3.8391,-3.8391,-3.8504,-3.856,-3.8616,-3.886,-3.8969,-3.9023,-3.9218,-3.9272,-3.9272,-3.9272,-3.9272,-3.9272,-3.9272,-3.9272,-3.9272,-3.9272,-3.9272,-3.9272,-3.9272,-3.9272,-3.9272,-3.9272,-3.9272,-3.9272,-3.9272,-3.9272,-3.9148,-3.8717,-3.9023,-3.9148,-3.8717,-3.9023,-3.9272,-3.9272,-3.9272,-3.9272,-3.9272,-3.9272,-3.9272,-3.9272,-3.9272,-3.9272,-3.9272,-3.9272,-3.9272,-3.9272,-3.9272,-3.9504,-3.9868,-4.0186,-4.0383,0.0,0.0,0.0,0.0,0.0,0.0,0.0,0.0,0.0,0.0,0.0,0.0,0.0,0.0,0.0,0.0,0.0,0.0,0.0,0.0,0.0,0.0,0.0,0.0,0.0,-3.9627,-3.9011,-3.8407,-3.7796,-3.7178,-3.6554,-3.6492,-3.6414,-3.6226,-3.5494,-3.489,-3.461,-3.3839,-3.3466,-3.3466,-3.3675,-3.3827,-3.3896,-3.4157,-3.4264,-3.4196,-3.4196,-3.4773,-3.577,-3.6056,-3.6753,-3.7786,-3.8221,-3.8391,-3.8391,-3.8391,-3.8391,-3.8391,-3.8391,-3.8391,-3.8408,-3.856,-3.8616,-3.8727,-3.8985,-3.9094,-3.9148,-3.9451,-3.9415,-3.9325,-3.9504,-3.9415,-3.9272,-3.9272,-3.9272,-3.9272,-3.9272,-3.9272,-3.9272,-3.9272,-3.9272,-3.9272,-3.9272,-3.9272,-3.9272,-3.9272,-3.9272,-3.9148,-3.8717,-3.9023,-3.9148,-3.8701,-3.9023,-3.9272,-3.9272,-3.9272,-3.9272,-3.9272,-3.9272,-3.9272,-3.9272,-3.9272,-3.9272,-3.9272,-3.9468,-3.9556,-3.9556,-3.9556,-3.9731,-4.0136,-4.0638,-4.092,-4.0908,0.0,0.0,0.0,0.0,0.0,0.0,0.0,0.0,0.0,0.0,0.0,0.0,0.0,0.0,0.0,0.0,0.0,0.0,0.0,0.0,0.0,0.0,0.0,-4.0355,-3.9782,-3.9119,-3.839,-3.7738,-3.7118,-3.6554,-3.6492,-3.6289,-3.5752,-3.5365,-3.489,-3.4138,-3.3785,-3.3466,-3.3326,-3.3466,-3.3675,-3.3882,-3.4074,-3.4196,-3.4414,-3.4414,-3.5088,-3.6384,-3.6384,-3.7131,-3.8391,-3.8391,-3.8391,-3.8391,-3.8391,-3.8391,-3.8391,-3.8391,-3.8391,-3.8391,-3.856,-3.8711,-3.8914,-3.9202,-3.9325,-3.9415,-3.9868,-3.9731,-3.9415,-3.9868,-3.9679,-3.9325,-3.9325,-3.9325,-3.9325,-3.9325,-3.9325,-3.9272,-3.9272,-3.9272,-3.9272,-3.9272,-3.9272,-3.9272,-3.9272,-3.9272,-3.9272,-3.9272,-3.9272,-3.9272,-3.9272,-3.9272,0.0,-3.9272,-3.9272,-3.9272,-3.9272,-3.9272,-3.9272,-3.9272,-3.9325,-3.9325,-3.9325,-3.9782,-4.0053,-4.0053,-4.0053,-4.0053,-4.0053,-4.0638,-4.1286,-4.1924,0.0,0.0,0.0,0.0,0.0,0.0,0.0,0.0,0.0,0.0,0.0,0.0,0.0,0.0,0.0,0.0,0.0,0.0,0.0,0.0,0.0,-4.084,-4.0745,-4.0355,-3.9401,-3.8613,-3.8351,-3.7401,-3.6662,-3.6492,-3.6492,-3.6429,-3.6289,-3.5479,-3.4876,-3.4677,-3.3854,-3.3396,-3.3536,-3.3675,-3.3882,-3.4059,-3.421,-3.4346,-3.4414,-3.4414,-3.4839,-3.5706,-3.6197,-3.689,-3.7727,-3.8205,-3.8391,-3.8391,-3.8391,-3.8391,-3.8391,-3.8391,-3.8391,-3.8448,-3.8655,-3.9152,-3.9749,-4.022,-4.0368,-4.0417,-4.0563,-4.0514,-4.0319,-4.0053,-4.0153,-4.0319,-3.9919,-3.9817,-3.9817,-3.9817,-3.9556,-3.9272,-3.9272,-3.9272,-3.9272,-3.9272,-3.9272,-3.9272,-3.9272,-3.9272,-3.9272,-3.9272,-3.9272,-3.9272,-3.9272,-3.9272,-3.9272,-3.9272,-3.9272,-3.9272,-3.9272,-3.9272,-3.9272,-3.9272,-3.9592,-3.9817,-3.9817,-4.0302,-4.0577,-4.0638,-4.0621,-4.0903,-4.1446,-4.1682,-4.2098,0.0,0.0,0.0,0.0,0.0,0.0,0.0,0.0,0.0,0.0,0.0,0.0,0.0,0.0,0.0,0.0,0.0,0.0,0.0,0.0,0.0,0.0,-4.0888,-4.0793,-4.0502,-3.9885,-3.9156,-3.8446,-3.778,-3.6993,-3.6153,-3.6061,-3.5892,-3.5339,-3.4733,-3.4273,-3.4095,-3.3885,-3.3778,-3.3725,-3.4172,-3.4399,-3.4346,-3.4414,-3.4414,-3.4414,-3.4654,-3.5154,-3.5834,-3.6508,-3.7207,-3.7844,-3.8221,-3.8391,-3.8391,-3.8391,-3.8391,0.0,0.0,0.0,0.0,0.0,-3.9697,-4.04,-4.0707,-4.0802,-4.0849,-4.1036,-4.0943,-4.0802,-4.0672,-4.0689,-4.0754,-4.04,-4.0351,-4.0302,-4.0053,-3.9969,-3.9799,-3.9415,-3.9468,-3.9556,-3.9325,-3.9272,-3.9272,-3.9272,-3.9451,0.0,-3.9592,-3.9415,-3.9272,-3.9272,-3.9272,-3.9362,-3.954,-3.9592,-3.9696,-3.9901,-3.9952,-3.9952,-3.9952,-4.017,0.0,0.0,0.0,-4.1157,-4.1258,-4.1303,0.0,0.0,0.0,-4.236,-4.2882,0.0,0.0,0.0,-4.2691,-4.2638,0.0,0.0,0.0,0.0,0.0,0.0,0.0,0.0,0.0,0.0,0.0,0.0,0.0,0.0,0.0,0.0,-4.0896,-4.078,-4.0607,-4.0491,-3.9934,-3.8537,-3.8267,-3.7399,-3.5595,-3.5368,-3.4926,-3.388,-3.3713,-3.3514,-3.3092,-3.3862,0.0,0.0,0.0,-3.5008,-3.4817,-3.4668,-3.4601,-3.4654,-3.5219,-3.5834,-3.6446,-3.7087,-3.7727,-3.8278,-3.8391,-3.8391,-3.8391,-3.8391,-3.8448,-3.8488,-3.8488,-3.8655,-3.8914,-3.968,-4.0334,-4.0896,-4.0943,0.0,0.0,-4.1428,-4.1311,-4.1036,-4.1383,-4.1248,-4.0943,-4.0896,-4.0896,-4.0784,-4.0285,-4.0497,-4.0563,-3.9661,-3.9782,-3.9969,-3.9556,-3.9468,-3.9468,-3.9468,-3.9782,-4.0103,-4.0103,-3.9731,-3.9468,-3.9468,-3.9468,-3.9609,-4.0053,-4.0103,-4.0252,-4.0754,0.0,0.0,-4.0802,-4.0849,-4.0896,-4.0896,-4.1338,-4.1692,-4.1839,-4.1966,-4.2032,-4.2121,-4.2121,-4.2342,-4.2882,-4.2882,-4.2936,-4.3027,-4.2602,-4.2798,0.0,0.0,0.0,0.0,0.0,0.0,0.0,0.0,0.0,0.0,0.0,0.0,0.0,0.0,0.0,-4.1445,-4.0893,-4.0376,-3.9968,-3.9359,-3.8704,-3.7789,-3.6683,-3.5631,-3.4793,-3.466,-3.4614,-3.4358,-3.3955,-3.3878,-3.4358,-3.4114,-3.4218,-3.4684,-3.5245,-3.5499,-3.5449,-3.5834,-3.6009,-3.6009,-3.6134,0.0,-3.6446,-3.7087,-3.7476,-3.7594,-3.8164,-3.8391,-3.8391,-3.8391,-3.8694,-3.9189,-3.9189,-3.9645,-4.0285,-4.078,-4.1185,-4.1445,-4.1856,-4.2002,-4.2002,-4.2103,-4.2086,-4.1959,-4.1622,-4.1727,0.0,-4.149,-4.1338,-4.1338,-4.1248,-4.1019,-4.0754,-4.0563,-4.0563,-4.0611,-4.0514,-4.0514,-4.0514,-4.0514,-4.0611,-4.0659,-4.0659,-4.0563,-4.0514,-4.0514,-4.0514,-4.0563,-4.0642,-4.0659,-4.0707,-4.0802,-4.0802,-4.0802,-4.0802,-4.1174,-4.1338,-4.1338,-4.2026,-4.2432,-4.257,-4.2652,-4.2711,-4.2711,-4.2711,-4.2788,-4.2882,-4.2882,-4.3226,-4.386,-4.3764,-4.3815,0.0,0.0,0.0,0.0,0.0,0.0,0.0,0.0,0.0,0.0,0.0,-4.1105,-4.2327,0.0,-4.1769,-4.1321,-4.0433,-3.9729,-3.9469,-3.8563,-3.7797,-3.7417,-3.6793,-3.5873,-3.4691,-3.4435,-3.4182,-3.3717,-3.3621,-3.3709,-3.4044,-3.4729,-3.5186,-3.5175,-3.6044,-3.6337,-3.6024,-3.6259,-3.6384,-3.6384,-3.6768,-3.689,-3.689,-3.7594,-3.7902,-3.7902,-3.8278,-3.8504,-3.8711,-3.9061,-3.9594,-4.0235,-4.03,-4.059,-4.0984,-4.1276,-4.1604,-4.1959,-4.2187,-4.2287,-4.2287,-4.2287,-4.2287,-4.2246,-4.2002,-4.2103,-4.2228,-4.1959,-4.1899,-4.1856,-4.1578,-4.1534,-4.1401,-4.0943,-4.099,-4.1082,-4.0849,-4.0802,-4.0802,-4.0802,-4.099,-4.1157,-4.1157,-4.1356,-4.1356,-4.0896,-4.0802,-4.0896,-4.1111,-4.1157,-4.1265,-4.1534,-4.1552,-4.1552,-4.1552,-4.1831,-4.2019,-4.2019,-4.245,-4.2745,-4.2802,-4.2862,-4.2882,-4.2882,-4.2882,-4.2882,-4.2882,-4.2882,-4.3299,-4.4095,-4.4512,-4.491,0.0,0.0,0.0,0.0,0.0,0.0,0.0,-3.935,-3.9593,-4.0701,-4.0905,-4.1214,-4.2359,-4.1996,-4.1379,-4.0945,-3.9931,-3.9153,-3.8965,-3.7939,-3.7202,-3.7057,-3.698,-3.6307,-3.4768,-3.4377,-3.3912,-3.3224,-3.347,-3.366,-3.3798,-3.5357,-3.6103,-3.5737,-3.6896,-3.7222,-3.6616,-3.6707,-3.6814,-3.6829,-3.7342,-3.7594,-3.7594,-3.8148,-3.8448,-3.8504,-3.86,-3.8805,-3.9169,-3.9902,-4.0497,-4.1019,-4.1366,-4.1499,-4.1499,-4.1622,-4.1917,-4.2287,-4.2287,-4.2287,-4.2287,-4.2287,-4.2287,-4.2287,-4.2287,-4.2287,-4.2287,-4.2287,-4.2287,-4.2187,-4.177,-4.1959,-4.2103,-4.1265,-4.1401,-4.1534,-4.1174,-4.1082,-4.1082,-4.1082,-4.1401,-4.1666,-4.1666,-4.2002,-4.2002,-4.122,-4.1082,-4.122,-4.1622,-4.1666,-4.1813,-4.2246,-4.2287,-4.2328,-4.2346,-4.2445,-4.2503,-4.2544,-4.2724,-4.2783,-4.2822,-4.2862,-4.2882,-4.2882,-4.2957,-4.2957,-4.2882,-4.2957,-4.3447,-4.4349,-4.5001,-4.5725,-4.0469,-4.0422,-4.0438,-4.0506,-4.0298,-4.0041,0.0,-3.9513,-3.9444,-4.0224,-4.021,-4.0304,-4.1137,-4.1229,-4.1003,-4.0528,-3.9788,-3.8994,-3.814,-3.7411,-3.6754,-3.6198,-3.5717,-3.5141,-3.4316,-3.4322,-3.4302,-3.4076,-3.4265,-3.4614,-3.5214,-3.5727,-3.61,-3.6353,-3.7326,-3.7653,-3.7282,-3.7902,-3.8148,-3.8148,-3.8278,-3.8278,-3.8278,-3.8391,-3.86,-3.8969,-3.9312,-3.9506,-3.961,-4.048,-4.0926,-4.1082,-4.1856,-4.2187,-4.2187,-4.2187,-4.2246,-4.2287,-4.2287,-4.2287,-4.2287,-4.2287,-4.2287,-4.2287,-4.2287,-4.2287,-4.2287,-4.2287,-4.2287,-4.2287,-4.2246,-4.2246,-4.2287,-4.2145,-4.2187,-4.2205,-4.2145,-4.2145,-4.2145,-4.2145,-4.2187,-4.2187,-4.2187,-4.2287,-4.2287,-4.2145,-4.2145,-4.2145,-4.2187,-4.2187,-4.2228,-4.2287,-4.2287,-4.2346,-4.2463,-4.2503,-4.2584,-4.2763,-4.2783,-4.2822,-4.29,-4.29,-4.2882,-4.2882,-4.3178,-4.3213,-4.2882,-4.3213,-4.3962,-4.5164,-4.5254,-4.5725,-4.0684,-4.0649,-4.0615,-4.059,-4.0469,-4.0252,-3.9962,-3.975,-3.9739,-4.0207,-4.0193,-4.032,-4.0997,-4.0726,-4.0331,-4.0145,-3.9634,-3.9085,-3.838,-3.8244,-3.8021,-3.7585,-3.7166,-3.6595,-3.5623,-3.5893,-3.5808,-3.5186,-3.5521,-3.5669,-3.5521,-3.6313,-3.6716,-3.6476,-3.761,-3.796,-3.7417,-3.8091,-3.8391,-3.8391,-3.8391,-3.8391,-3.8408,-3.8655,-3.8969,-3.9365,-3.9799,-4.002,-4.0054,-4.096,-4.1346,-4.1391,-4.2061,-4.2287,-4.2287,-4.2287,-4.2287,-4.2287,-4.2287,-4.2287,-4.2287,-4.2287,-4.2287,-4.2287,-4.2287,-4.2287,-4.2287,-4.2287,-4.2287,-4.2287,-4.2287,-4.2287,-4.2287,-4.2287,-4.2287,-4.2287,-4.2287,-4.2287,-4.2287,-4.2287,-4.2287,-4.2287,-4.2287,-4.2287,-4.2287,-4.2287,-4.2287,-4.2346,-4.2405,-4.2405,-4.2427,-4.249,-4.249,-4.249,-4.2548,-4.2645,-4.2724,-4.2783,-4.2842,-4.2862,-4.2882,-4.3087,-4.3178,-4.3178,-4.3523,-4.3623,-4.349,-4.3623,-4.4472,-4.5919,-4.5919,-4.6525,-4.0837,-4.0801,-4.0734,-4.0696,-4.0596,-4.0425,-4.012,-3.9983,-3.9962,-4.015,-4.0122,-4.0188,-4.0492,-4.0246,-4.0007,-3.9913,-3.9853,-3.9604,-3.9099,-3.9292,-3.9258,-3.8711,-3.8659,-3.8328,-3.7334,-3.7466,-3.7266,-3.6481,-3.6837,-3.6842,-3.6366,-3.7292,-3.7578,-3.7058,-3.8157,-3.8399,-3.7637,-3.8246,-3.856,-3.856,-3.856,-3.86,-3.875,-3.9185,-3.954,-3.9833,-4.0271,-4.0453,-4.0534,-4.129,-4.1604,-4.1648,-4.2121,-4.2287,-4.2287,-4.2287,-4.2287,-4.2287,-4.2287,-4.2287,-4.2287,-4.2287,-4.2287,-4.2287,-4.2287,-4.2287,-4.2287,-4.2287,-4.2287,-4.2287,-4.2287,-4.2287,-4.2287,-4.2287,-4.2287,-4.2287,-4.2287,-4.2287,-4.2287,-4.2287,-4.2287,-4.2287,-4.2287,-4.2287,-4.2287,-4.2287,-4.2328,-4.2387,-4.2445,-4.2463,-4.2544,-4.2609,-4.2609,-4.2609,-4.2649,-4.2745,-4.286,-4.2938,-4.3032,-4.3087,-4.3178,-4.3406,-4.3523,-4.3523,-4.3881,-4.4004,-4.3912,-4.4004,-4.4861,-4.6401,-4.6401,-4.7122,-4.0967,-4.089,-4.08,-4.0887,-4.0682,-4.0496,-4.0492,-4.0176,-3.9892,-3.9911,-3.9708,-3.9439,-3.923,-3.9788,-4.0193,-3.9945,-4.0543,-4.0839,-4.0257,-4.0348,-4.0052,-3.8929,-3.9467,-3.9721,-3.918,-3.8606,-3.8218,-3.8063,-3.8188,-3.8318,-3.8414,-3.8739,-3.8794,-3.8446,-3.9172,-3.9119,-3.827,-3.8733,-3.8969,-3.8969,-3.8969,-3.9169,-3.961,-4.007,-4.0255,-4.0288,-4.068,-4.0871,-4.0935,-4.138,-4.1604,-4.1648,-4.2121,-4.2287,-4.2287,-4.2287,-4.2287,-4.2287,-4.2287,-4.2287,-4.2287,-4.2287,-4.2287,-4.2287,-4.2287,-4.2287,-4.2287,-4.2287,-4.2287,-4.2287,-4.2287,-4.2287,-4.2287,-4.2287,-4.2287,-4.2287,-4.2287,-4.2287,-4.2287,-4.2287,-4.2287,-4.2287,-4.2287,-4.2287,-4.2287,-4.2287,-4.2405,-4.2463,-4.2328,-4.2405,-4.2544,-4.2609,-4.2609,-4.2649,-4.2783,-4.2783,-4.2975,-4.3371,-4.3371,-4.3523,-4.3849,-4.3881,-4.3881,-4.3881,-4.4213,-4.4213,-4.3912,-4.4213,-4.5073,-4.6401,-4.6401,-4.7274,-4.1046,-4.0992,-4.094,-4.0909,-4.0762,-4.0622,-4.0629,-4.0457,-4.025,-4.0063,-4.0298,-4.0486,-4.0214,-4.0654,-4.1059,-4.0989,-4.1493,-4.1714,-4.1216,-4.1686,-4.1707,-4.0596,-4.06,-4.0498,-3.9963,-3.9765,-3.9429,-3.8877,-3.8917,-3.8887,-3.8502,-3.8794,-3.8865,-3.8518,-3.9226,-3.9332,-3.8756,-3.9206,-3.9418,-3.9418,-3.9418,-3.9627,-4.007,-4.0238,-4.0453,-4.0697,-4.084,-4.0888,-4.0935,-4.1426,-4.1604,-4.1648,-4.2121,-4.2287,-4.2328,-4.2494,-4.2573,-4.2534,-4.2351,-4.2287,-4.2287,-4.2287,-4.2287,-4.2287,-4.2287,-4.2287,-4.2328,-4.2534,-4.2573,-4.2573,-4.2573,-4.2573,-4.2534,-4.2351,-4.2287,-4.2287,-4.2287,-4.2287,-4.2287,-4.2287,-4.2287,-4.2287,-4.2287,-4.2287,-4.2391,-4.2711,-4.2609,-4.2544,-4.2627,-4.2667,-4.2706,-4.2786,-4.3014,-4.3142,-4.3178,-4.3406,-4.3609,-4.3721,-4.3721,-4.3786,-4.3912,-4.4125,-4.4242,-4.4242,-4.4557,-4.4681,-4.4557,-4.4681,-4.5549,-4.7043,-4.7043,-4.783,-4.1072,-4.1055,-4.1022,-4.0983,-4.087,-4.0762,-4.0762,-4.0684,-4.0516,-4.0335,-4.0842,-4.1242,-4.0965,-4.1567,-4.2052,-4.1935,-4.2369,-4.2606,-4.2287,-4.2741,-4.277,-4.1803,-4.1639,-4.1303,-4.0549,-4.0468,-4.0204,-3.9575,-3.9627,-3.9489,-3.9226,-3.9401,-3.9454,-3.9209,-3.9765,-3.9833,-3.9329,-3.9679,-3.9833,-3.9833,-3.9986,-4.0204,-4.0485,-4.0485,-4.0648,-4.0888,-4.0888,-4.0888,-4.0918,-4.1318,-4.1587,-4.1788,-4.2169,-4.2472,-4.2631,-4.2806,-4.2882,-4.2826,-4.267,-4.2631,-4.2631,-4.2631,-4.2631,-4.2591,-4.2472,-4.2512,-4.2631,-4.2673,-4.2788,-4.2882,-4.2882,-4.2882,-4.2844,-4.267,-4.2631,-4.2631,-4.2631,-4.2631,-4.2631,-4.2631,-4.2631,-4.2631,-4.2631,-4.2652,-4.2808,-4.3141,-4.3032,-4.2939,-4.3124,-4.316,-4.3196,-4.3249,-4.3474,-4.359,-4.359,-4.3786,-4.3943,-4.4065,-4.4095,-4.4125,-4.4242,-4.4457,-4.4584,-4.4584,-4.4802,-4.4895,-4.4895,-4.5217,-4.607,-4.7397,-4.7719,-4.8464,-4.1016,-4.1052,-4.1091,-4.1094,-4.1007,-4.0903,-4.0903,-4.0818,-4.071,-4.0715,-4.1228,-4.1643,-4.1437,-4.2309,-4.2997,-4.2813,-4.3158,-4.3461,-4.3411,-4.3481,-4.3214,-4.2498,-4.248,-4.2062,-4.0926,-4.0849,-4.0659,-4.0221,-4.0121,-4.0221,-4.0485,-4.0485,-4.0485,-4.0485,-4.0776,-4.0583,-3.9952,-4.0205,-4.0355,-4.0355,-4.0728,-4.0888,-4.0888,-4.0888,-4.0888,-4.0888,-4.0888,-4.0935,-4.0965,-4.1163,-4.1578,-4.2074,-4.2338,-4.275,-4.3214,-4.3214,-4.3196,-4.3232,-4.3251,-4.3232,-4.3214,-4.3214,-4.3214,-4.3123,-4.2826,-4.2957,-4.3123,-4.2826,-4.2995,-4.3196,-4.3196,-4.3196,-4.3214,-4.3196,-4.3214,-4.3214,-4.3214,-4.3214,-4.3214,-4.3214,-4.3214,-4.3214,-4.3214,-4.3284,-4.3422,-4.3505,-4.3568,-4.3666,-4.3786,-4.3818,-4.3818,-4.3881,-4.3912,-4.3943,-4.3943,-4.3943,-4.4095,-4.4402,-4.443,-4.4584,-4.4895,-4.4895,-4.4895,-4.4895,-4.4895,-4.4895,-4.4895,-4.5767,-4.6601,-4.7416,-4.8287,-4.9121,-4.091,-4.1045,-4.1025,-4.1023,-4.1035,-4.1041,-4.1045,-4.0944,-4.0846,-4.0857,-4.1299,-4.1886,-4.246,-4.2517,-4.2825,-4.3802,-4.3372,-4.3028,-4.3406,-4.3446,-4.3196,-4.2541,-4.244,-4.2139,-4.1393,-4.1303,-4.1258,-4.1139,-4.0483,-4.0171,-4.0337,-4.0436,-4.0436,-4.0337,-4.068,-4.0728,-4.0337,-4.0631,-4.0745,-4.0745,-4.0823,-4.0888,-4.0888,-4.0888,-4.0888,-4.0888,-4.0888,-4.1134,-4.149,-4.1692,-4.2098,-4.2619,-4.2902,-4.3087,-4.3232,-4.3426,-4.3495,-4.3529,-4.373,-4.3529,-4.3214,-4.3214,-4.3214,-4.316,-4.3087,-4.3123,-4.3232,-4.3338,-4.3442,-4.3495,-4.3495,-4.3495,-4.3461,-4.3232,-4.3214,-4.3214,-4.3214,-4.3214,-4.3214,-4.3214,-4.3214,-4.3214,-4.3214,-4.3355,-4.3572,-4.3812,-4.4076,-4.4106,-4.3912,-4.3818,-4.3818,-4.3881,-4.4125,-4.427,-4.427,-4.4484,-4.4681,-4.4777,-4.4777,-4.4802,-4.4895,-4.4895,-4.4895,-4.4895,-4.4895,-4.4895,-4.4895,-4.5767,-4.6601,-4.7416,-4.8287,-4.9121,-4.0348,-4.0738,-4.0996,-4.1007,-4.1045,-4.1093,-4.1093,-4.1046,-4.0994,-4.1,-4.141,-4.1947,-4.2429,-4.2412,-4.255,-4.3302,-4.2986,-4.2754,-4.3008,-4.3208,-4.3178,-4.2788,-4.2729,-4.2476,-4.1846,-4.1803,-4.1717,-4.1525,-4.0832,-4.0451,-4.0597,-4.0517,-4.0331,-3.9927,-4.0229,-4.0151,-3.9684,-3.9824,-3.9871,-3.9871,-3.9871,-4.0181,-4.0676,-4.0676,-4.0986,-4.1463,-4.1463,-4.1666,-4.1955,-4.2098,-4.2483,-4.2978,-4.3123,-4.3338,-4.3563,-4.373,-4.3763,-4.3795,-4.3942,-4.3795,-4.3529,-4.3529,-4.3529,-4.3529,-4.3391,-4.3479,-4.3563,-4.3597,-4.3679,-4.3763,-4.3763,-4.3763,-4.373,-4.3597,-4.3529,-4.3529,-4.3529,-4.3529,-4.3529,-4.3529,-4.3597,-4.3682,-4.3682,-4.3886,-4.4095,-4.4289,-4.4503,-4.4557,-4.4374,-4.4318,-4.4318,-4.4346,-4.4503,-4.461,-4.461,-4.4802,-4.4895,-4.4895,-4.4895,-4.4895,-4.4895,-4.4895,-4.4895,-4.4895,-4.4895,-4.4895,-4.4895,-4.6127,-4.6961,-4.7434,-4.8647,-4.9462,-3.9629,-4.0247,-4.0842,-4.0968,-4.1039,-4.1093,-4.1094,-4.1084,-4.1094,-4.1106,-4.1431,-4.1763,-4.188,-4.1971,-4.2071,-4.2186,-4.2314,-4.2409,-4.2493,-4.2821,-4.3087,-4.3123,-4.3104,-4.288,-4.2338,-4.2279,-4.2062,-4.1558,-4.1073,-4.0834,-4.0834,-4.0556,-4.0038,-3.9303,-3.9439,-3.925,-3.8594,-3.8594,-3.8594,-3.8594,-3.8666,-3.9216,-4.0235,-4.0278,-4.0937,-4.2037,-4.2037,-4.2154,-4.2426,-4.2426,-4.2755,-4.33,-4.33,-4.3609,-4.4005,-4.4005,-4.4005,-4.4005,-4.4005,-4.4005,-4.4005,-4.4005,-4.4005,-4.3974,-4.373,-4.3828,-4.3955,-4.373,-4.3828,-4.4005,-4.4005,-4.4005,-4.4005,-4.4005,-4.4005,-4.4005,-4.4005,-4.4005,-4.4005,-4.4005,-4.4177,-4.4285,-4.4285,-4.4524,-4.4712,-4.4712,-4.4796,-4.4895,-4.4895,-4.4895,-4.4895,-4.4895,-4.4895,-4.4895,-4.4895,-4.4895,-4.4895,-4.4895,-4.4895,-4.4895,-4.4895,-4.4895,-4.4895,-4.4895,-4.4895,-4.4952,-4.5085,-4.6639,-4.7453,-4.7605,-4.9159,-4.9898,-3.9318,-3.9799,-4.0089,-4.0749,-4.0967,-4.1018,-4.1021,-4.1054,-4.1101,-4.1091,-4.0993,-4.1105,-4.1783,-4.1212,-4.0993,-4.204,-4.1693,-4.1597,-4.2452,-4.2525,-4.2622,-4.3123,-4.3031,-4.2882,-4.2806,-4.2768,-4.2459,-4.1715,-4.1234,-4.068,-3.9963,-3.9688,-3.9316,-3.8773,-3.8665,-3.8642,-3.8594,-3.8594,-3.8594,-3.8594,-3.8955,-3.9221,-3.9427,-3.9757,-4.0366,-4.1234,-4.1234,-4.189,-4.2959,-4.2959,-4.3318,-4.3841,-4.3841,-4.3923,-4.4005,-4.4005,-4.4005,-4.4005,-4.4005,-4.4005,-4.4005,-4.4005,-4.4005,-4.4005,-4.3923,-4.3955,-4.4005,-4.3923,-4.3955,-4.4005,-4.4005,-4.4005,-4.4005,-4.4005,-4.4005,-4.4005,-4.4005,-4.4005,-4.4005,-4.4005,-4.4177,-4.4285,-4.4285,-4.4524,-4.4712,-4.4712,-4.4796,-4.4895,-4.4895,-4.4895,-4.4895,-4.4895,-4.4895,-4.4895,-4.4895,-4.4895,-4.4895,-4.4895,-4.4895,-4.4895,-4.4895,-4.4895,-4.4895,-4.4895,-4.4895,-4.5255,-4.5975,-4.6923,-4.7757,-4.8496,-4.9443,-4.9898,-3.8174,-3.8741,-3.9271,-4.0071,-4.031,-4.0447,-4.0901,-4.1015,-4.1062,-4.1081,-4.0897,-4.0822,-4.1197,-4.0745,-4.0482,-4.1062,-4.0999,-4.1067,-4.1577,-4.165,-4.1735,-4.2022,-4.1832,-4.1651,-4.1651,-4.1651,-4.1542,-4.1198,-4.0757,-4.0255,-3.9786,-3.8981,-3.8442,-3.8338,-3.7878,-3.7735,-3.8023,-3.8023,-3.8023,-3.8023,-3.8205,-3.8652,-3.9274,-3.9461,-4.0095,-4.1071,-4.147,-4.2086,-4.2784,-4.3259,-4.3664,-4.3942,-4.3974,-4.4005,-4.4005,-4.4005,-4.4005,-4.4005,-4.4005,-4.4005,-4.4005,-4.4005,-4.4005,-4.4005,-4.4005,-4.4005,-4.4005,-4.4005,-4.4005,-4.4005,-4.4005,-4.4005,-4.4005,-4.4005,-4.4067,-4.4147,-4.4147,-4.4207,-4.4248,-4.4248,-4.4411,-4.4496,-4.4496,-4.4667,-4.4796,-4.4796,-4.4846,-4.4895,-4.4895,-4.4895,-4.4895,-4.4895,-4.4895,-4.4895,-4.4895,-4.4895,-4.4895,-4.4895,-4.4895,-4.4895,-4.4895,-4.4895,-4.4895,-4.4895,-4.535,-4.5786,-4.6203,-4.7453,-4.8287,-4.8704,-4.9519,-4.9898,-3.7152,-3.7706,-3.841,-3.9213,-3.9422,-3.9653,-4.0516,-4.0722,-4.0791,-4.105,-4.0898,-4.0694,-4.0694,-4.0476,-4.0272,-4.0196,-4.0426,-4.0693,-4.0798,-4.0828,-4.0882,-4.1001,-4.0702,-4.051,-4.051,-4.051,-4.0491,-4.0451,-3.995,-3.9621,-3.9498,-3.828,-3.7732,-3.7968,-3.7351,-3.717,-3.7505,-3.7505,-3.7505,-3.7505,-3.7578,-3.8133,-3.9059,-3.9127,-3.9768,-4.0891,-4.1515,-4.193,-4.2216,-4.3162,-4.3592,-4.3656,-4.3918,-4.4005,-4.4005,-4.4005,-4.4005,-4.4005,-4.4005,-4.4005,-4.4005,-4.4005,-4.4005,-4.4005,-4.4005,-4.4005,-4.4005,-4.4005,-4.4005,-4.4005,-4.4005,-4.4005,-4.4005,-4.4005,-4.4147,-4.4285,-4.4285,-4.4401,-4.4515,-4.4515,-4.4605,-4.4712,-4.4712,-4.4796,-4.4895,-4.4895,-4.4895,-4.4895,-4.4895,-4.4895,-4.4895,-4.4895,-4.4895,-4.4895,-4.4895,-4.4895,-4.4895,-4.4895,-4.4895,-4.4895,-4.4895,-4.5085,-4.5179,-4.5179,-4.6013,-4.6544,-4.6733,-4.806,-4.878,-4.8969,-4.9622,-4.9906,-3.7,-3.7269,-3.7508,-3.8318,-3.8525,-3.8747,-3.9615,-3.9821,-4.0058,-4.0925,-4.0898,-4.0694,-4.0694,-4.0476,-4.0253,-4.0137,-4.0153,-4.0293,-4.0753,-4.0495,-4.0496,-4.1038,-4.0753,-4.051,-4.051,-4.051,-4.0255,-3.9654,-3.894,-3.854,-3.851,-3.7762,-3.7392,-3.7539,-3.7468,-3.7469,-3.7505,-3.7505,-3.7505,-3.7505,-3.7879,-3.8104,-3.821,-3.8593,-3.9208,-4.001,-4.0084,-4.0588,0.0,-4.2313,-4.2741,-4.2891,-4.3695,-4.4005,-4.4005,-4.4005,-4.4005,-4.4005,-4.4005,-4.4005,-4.4005,-4.4005,-4.4005,-4.4005,-4.4005,-4.4005,-4.4005,-4.4005,-4.4005,-4.4005,-4.4005,-4.4005,-4.4005,-4.4005,-4.4147,-4.4285,-4.4285,-4.4401,-4.4515,-4.4515,-4.4605,-4.4712,-4.4712,-4.4796,-4.4895,-4.4895,-4.4895,-4.4895,-4.4895,-4.4895,-4.4895,-4.4895,-4.4895,-4.4895,-4.4895,-4.4895,-4.4895,-4.4895,-4.4895,-4.4895,-4.4895,-4.5653,-4.607,-4.607,-4.6885,-4.7681,-4.8458,-4.8609,-4.9064,-4.9784,-4.994,-5.0005,-3.6341,-3.6442,-3.6653,-3.7436,-3.7662,-3.7909,-3.8721,-3.8945,-3.9231,-4.014,-4.0102,-4.0075,-4.0597,-4.0476,-4.0253,-4.0176,-4.0137,-4.015,-4.0302,-4.0021,-3.9805,-3.9841,-3.9551,-3.9298,-3.915,-3.9115,-3.9039,-3.8846,-3.8597,-3.851,-3.8588,-3.8041,-3.7756,-3.7879,-3.7879,-3.8,-3.8219,-3.8219,-3.8219,-3.8219,-3.8401,-3.8451,-3.8483,-3.8627,-3.8872,-3.9203,-3.968,-4.0129,0.0,-4.1446,-4.2168,-4.273,-4.312,-4.3578,-4.4005,-4.4005,-4.4005,-4.4005,-4.4005,-4.4005,-4.4005,-4.4005,-4.4005,-4.4005,-4.4005,-4.4005,-4.4005,-4.4005,-4.4005,-4.4005,-4.4005,-4.4097,-4.4177,-4.4177,-4.4383,-4.4551,-4.4551,-4.4659,-4.4738,-4.4738,-4.477,-4.4821,-4.4821,-4.487,-4.4895,-4.4895,-4.4895,-4.5085,-4.5615,-4.5672,-4.5862,-4.6354,-4.5501,-4.4895,-4.4895,-4.4895,-4.4895,-4.4895,-4.5388,-4.5672,-4.5672,-4.6468,-4.6923,-4.6923,-4.7738,-4.8344,-4.8685,-4.9178,-4.9603,-4.9978,-5.0005,-5.0031,-3.5916,-3.5935,-3.6111,-3.6619,-3.6787,-3.7033,-3.7864,-3.8085,-3.8355,-3.9176,-3.9374,-3.9579,-4.014,-4.0271,-4.0272,0.0,-4.0137,-4.0036,-3.987,-3.9556,-3.9234,-3.8915,-3.8628,-3.8401,-3.8225,-3.8241,-3.8322,-3.8415,-3.851,-3.8609,-3.8707,-3.8387,-3.8238,-3.8285,-3.8285,-3.8401,-3.8707,-3.8707,-3.8707,-3.8707,-3.8707,-3.8707,-3.8707,-3.8707,-3.8707,-3.8726,-3.9294,-3.9564,0.0,-4.0597,-4.1354,-4.2026,-4.2581,-4.315,-4.367,-4.3912,-4.4005,-4.4005,-4.4005,-4.4048,-4.4121,-4.4121,-4.4181,-4.4221,-4.4221,-4.414,-4.4005,-4.4005,-4.4005,-4.4005,-4.4005,-4.4116,-4.4226,-4.4285,-4.4468,-4.4659,-4.4685,-4.4815,-4.4895,-4.4895,-4.4895,-4.4895,-4.4895,-4.4895,-4.499,-4.5255,-4.5274,-4.5596,-4.6449,-4.6544,-4.6771,-4.734,-4.6335,-4.5634,-4.5634,-4.5634,-4.5634,-4.5634,-4.6222,-4.6544,-4.6544,-4.734,-4.7776,-4.7776,-4.8609,-4.9045,-4.9045,-4.9614,-4.9933,-5.0005,-5.0031,-5.0082,-3.5919,-3.5908,-3.5895,-3.5918,-3.5899,-3.6144,-3.7006,-3.7206,-3.7429,-3.8159,-3.8888,-3.9348,-3.923,-3.9804,-4.0253,-4.0117,-4.0117,-3.9954,-3.9575,-3.9216,-3.8915,-3.8646,-3.8387,-3.8192,-3.8192,-3.8322,-3.8415,-3.8491,-3.8609,-3.8707,-3.8707,-3.8707,-3.8707,-3.8707,-3.8707,-3.8707,-3.8707,-3.8707,-3.8707,-3.8707,-3.8707,-3.8707,-3.8707,-3.8707,-3.8707,-3.8707,-3.8707,-3.8768,0.0,-3.9748,-4.0141,-4.0396,-4.2136,-4.2816,-4.2909,-4.3708,-4.4005,-4.4005,-4.4005,-4.4162,-4.4402,-4.4402,-4.4572,-4.4776,-4.4776,-4.443,-4.4005,-4.4005,-4.4005,-4.4005,-4.4005,-4.4005,-4.4036,-4.4255,-4.4401,-4.4542,-4.4685,-4.4815,-4.4895,-4.4895,-4.4895,-4.4895,-4.4895,-4.4895,-4.5198,-4.6051,-4.6184,-4.6468,-4.7283,-4.7378,-4.7378,-4.7397,-4.7378,-4.7359,-4.7359,-4.7359,-4.7359,-4.7359,-4.7378,-4.7378,-4.7378,-4.8211,-4.8685,-4.8685,-4.9462,-4.9879,-4.9879,-4.9898,-4.9933,-5.0005,-5.0082,-5.0182,-3.5976,-3.5976,-3.5956,-3.5908,-3.5898,-3.595,-3.613,-3.6168,-3.6397,-3.7172,-3.7467,-3.7891,-3.9003,-3.9325,-3.9585,-4.0081,-3.9975,-3.9762,-3.967,-3.9268,-3.8915,-3.87,-3.8401,-3.8225,-3.8274,-3.8307,-3.8368,-3.851,-3.8541,-3.8609,-3.8707,-3.8707,-3.8707,-3.8707,-3.8707,-3.8707,-3.8707,-3.8707,-3.8707,-3.8707,-3.8707,-3.8707,-3.8707,-3.8707,-3.8707,-3.8707,-3.8707,-3.875,-3.8899,-3.9187,-3.97,-4.0391,-4.094,-4.1832,-4.2835,-4.3095,-4.3522,-4.4005,-4.4005,-4.4181,-4.4383,-4.4383,-4.4572,-4.48,-4.48,-4.4676,-4.4565,-4.4565,-4.4565,-4.4565,-4.4565,-4.4599,-4.4695,-4.4719,-4.4821,-4.4895,-4.4846,-4.487,-4.4943,-4.508,-4.5103,-4.5129,-4.5239,-4.5241,-4.5547,-4.6407,-4.6541,-4.7057,-4.8452,-4.8624,-4.8834,-4.9389,-4.9465,-4.8891,-4.7517,-4.7397,-4.7397,-4.7397,-4.7946,-4.8287,-4.8287,-4.9064,-4.9519,-4.9519,-4.9924,-5.0038,-4.9898,-5.0038,-5.0169,-5.0272,-5.0259,-5.0329,-3.5848,-3.5862,-3.5851,-3.5774,-3.5798,-3.5786,-3.5655,-3.5628,-3.5796,-3.625,-3.6537,-3.7094,-3.8393,-3.8831,-3.9242,-3.9925,-3.987,-3.9628,-3.9364,-3.9082,-3.8799,-3.8554,-3.8322,-3.8241,-3.8322,-3.8354,-3.8401,-3.8559,-3.8559,-3.8609,-3.8707,-3.8707,-3.8707,-3.8707,-3.8707,-3.8707,-3.8707,-3.8707,-3.8707,-3.8707,-3.8707,-3.8707,-3.8707,-3.8707,-3.8707,-3.8707,-3.8707,-3.878,0.0,-3.9007,-3.9445,-4.0112,-4.0517,-4.1461,-4.266,-4.296,-4.3596,-4.4308,-4.4308,-4.4484,-4.4701,-4.4701,-4.4872,-4.5096,-4.5096,-4.4962,-4.48,-4.48,-4.48,-4.48,-4.48,-4.4849,-4.4938,-4.4976,-4.5042,-4.5087,-4.5087,-4.5087,-4.5132,-4.5258,-4.5279,-4.53,-4.5381,-4.54,-4.5803,-4.6972,-4.7145,-4.7758,-4.9426,-4.9637,-4.9829,-5.0347,-5.0404,-4.9896,-4.8634,-4.8514,-4.8514,-4.8514,-4.9028,-4.9333,-4.9333,-4.9809,-5.0076,-5.0076,-5.0217,-5.0221,-5.013,-5.0298,-5.0425,-5.0425,-5.0467,-5.0486,0.0,-3.5612,-3.5669,-3.5548,-3.5593,-3.5669,-3.5519,-3.5534,0.0,-3.5405,-3.6031,-3.6799,-3.7538,-3.8344,-3.909,-3.9675,-3.9781,-3.9532,-3.8847,-3.87,-3.8566,-3.8241,-3.8192,-3.8274,-3.8382,-3.8415,-3.8496,-3.8658,-3.8707,-3.8707,-3.8707,-3.8707,-3.8707,-3.8707,-3.8707,-3.8707,-3.8707,-3.8707,-3.8707,-3.8707,-3.8707,-3.8707,-3.8707,-3.8738,-3.8738,-3.8738,-3.875,-3.8822,-3.8979,-3.9219,-3.9408,-3.9607,-4.0617,-4.1499,-4.2295,-4.3128,-4.3961,-4.4724,-4.4781,-4.4985,-4.5201,-4.5222,-4.54,-4.5586,-4.5586,-4.5243,-4.4868,-4.4868,-4.4849,-4.4849,-4.4849,-4.4849,-4.4896,-4.5096,-4.5137,-4.518,-4.5362,-4.54,-4.54,-4.5419,-4.54,-4.5419,-4.5438,-4.5438,-4.5975,-4.7607,-4.7894,-4.8528,-5.0139,-5.0408,-5.0446,-5.0446,-5.0446,-5.0446,-5.0446,-5.0425,-5.0404,-5.0404,-5.0404,-5.0404,-5.0404,-5.0385,-5.0425,-5.0425,-5.0406,-5.0449,-5.0529,-5.0638,-5.064,-5.0528,-5.0728,-5.0641,-3.4754,0.0,-3.562,-3.5591,-3.5601,-3.5592,0.0,-3.5432,-3.5405,-3.5266,-3.5407,-3.5935,-3.7167,-3.7718,-3.8347,-3.9402,-3.9489,-3.932,-3.9036,-3.8707,-3.8415,-3.8307,-3.8225,-3.8274,-3.8446,-3.8415,-3.8496,-3.8658,-3.8707,-3.8707,-3.8707,-3.8707,-3.8707,-3.8707,-3.8707,-3.8707,-3.8707,-3.8707,-3.8707,-3.8707,-3.8707,-3.8707,-3.8707,-3.8892,-3.9007,-3.9017,-3.9234,-3.9389,-3.9526,-3.9566,-3.9641,-3.975,-4.0003,-4.0631,-4.148,-4.2276,-4.309,-4.3905,-4.4573,-4.4985,-4.5222,-4.5438,-4.555,-4.5586,-4.5586,-4.5513,-4.5419,-4.5419,-4.5438,-4.5495,-4.5495,-4.5475,-4.5493,-4.5475,-4.5495,-4.5476,-4.5419,-4.54,-4.5419,-4.5528,-4.5545,-4.558,-4.5692,-4.5708,-4.6074,-4.7121,-4.7854,-4.8665,-4.9727,-5.0402,-5.0789,-5.0789,-5.0789,-5.0789,-5.0789,-5.0548,-5.0404,-5.0404,-5.0404,-5.0404,-5.0404,-5.0449,-5.047,-5.047,-5.0529,-5.0638,-5.0813,-5.0723,-5.0755,-5.087,-5.084,-5.084,-3.4508,-3.4831,-3.5177,-3.512,-3.5132,-3.5147,-3.5026,-3.4994,-3.4977,-3.4889,-3.487,-3.5382,-3.703,-3.7452,-3.8002,-3.9293,-3.9439,-3.9261,-3.8884,-3.8585,-3.8368,-3.8307,-3.8307,-3.8336,-3.8446,-3.8446,-3.8528,-3.8707,-3.8792,-3.8881,-3.8881,-3.9007,-3.9073,-3.9073,-3.9073,-3.895,-3.8707,-3.8707,-3.875,-3.8881,-3.875,-3.8822,-3.9073,-3.9101,-3.9183,-3.9298,-3.9445,-3.9566,-3.9717,-3.9835,-3.9922,-3.9983,-4.0082,-4.0654,-4.1475,-4.1914,-4.283,-4.3937,-4.4395,-4.4917,-4.5419,-4.555,-4.5586,-4.5586,-4.5586,-4.5586,-4.5622,-4.564,-4.5657,-4.5709,-4.5706,-4.5703,-4.57,-4.5687,-4.5687,-4.5671,-4.5596,-4.558,-4.5613,-4.5677,-4.5692,-4.5708,-4.58,-4.58,-4.609,-4.696,-4.7831,-4.8701,-4.9591,-5.0403,-5.0906,-5.0906,-5.0906,-5.0906,-5.0906,-5.0735,-5.0625,-5.0625,-5.0625,-5.0625,-5.0625,-5.0661,-5.0696,-5.0728,-5.0835,-5.094,-5.103,-5.1011,-5.1011,-5.1062,-5.1035,-5.1011,-3.4435,-3.4473,-3.4561,-3.451,-3.4598,-3.4641,-3.4532,-3.4508,-3.4508,-3.4508,-3.4508,-3.508,-3.6988,-3.7351,-3.7797,-3.922,-3.9383,-3.9173,-3.8585,-3.8446,-3.8382,-3.8322,-3.8368,-3.8415,-3.8446,-3.8478,-3.8559,-3.8707,-3.895,-3.9101,-3.9101,-3.935,-3.9502,-3.9502,-3.9502,-3.9272,-3.884,-3.8822,-3.8921,-3.9156,-3.8921,-3.9045,-3.9483,-3.9298,-3.935,-3.9556,-3.9614,0.0,-3.9829,-4.0061,-4.0195,-4.0269,-4.0441,-4.095,-4.1623,-4.1758,-4.2777,-4.4143,-4.4412,-4.497,-4.5586,-4.5586,-4.5586,-4.5586,-4.5586,-4.5586,-4.5603,-4.5693,-4.5709,-4.5706,-4.57,-4.5715,-4.5731,-4.5781,-4.5795,-4.581,-4.58,-4.58,-4.58,-4.58,-4.58,-4.58,-4.58,-4.58,-4.6051,-4.6786,-4.7637,-4.8527,-4.9397,-5.021,-5.077,-5.0906,-5.0906,-5.0906,-5.0906,-5.0906,-5.0906,-5.0906,-5.0906,-5.0906,-5.0921,-5.0937,-5.0961,-5.103,-5.115,-5.122,-5.122,-5.1265,-5.1239,-5.1128,-5.1248,-5.1152,-3.4105,-3.391,-3.4018,-3.442,-3.451,-3.4532,-3.4489,-3.4508,-3.4508,-3.4508,-3.4508,-3.5036,-3.6731,-3.7073,-3.7526,-3.8931,-3.8979,-3.8762,-3.8541,-3.851,-3.8478,-3.8478,-3.8415,-3.8465,-3.8627,-3.8559,-3.8559,-3.8707,-3.895,-3.9101,-3.9101,-3.935,-3.9502,-3.9502,-3.9502,-3.9477,-3.9376,-3.9376,-3.9401,-3.9452,-3.9401,-3.9427,-3.9526,-3.9693,-3.9785,-3.9851,0.0,-4.0271,-4.0289,-4.0392,-4.0438,-4.0457,-4.0489,-4.0566,-4.0777,-4.1527,-4.2431,-4.3489,-4.4913,-4.549,-4.5586,-4.5586,-4.5586,-4.5586,-4.5586,-4.5586,-4.5603,-4.5693,-4.5706,-4.57,-4.57,-4.5742,-4.5786,-4.58,-4.58,-4.58,-4.58,-4.58,-4.58,-4.58,-4.58,-4.58,-4.58,-4.58,-4.5838,-4.5974,-4.6728,-4.7618,-4.8488,-4.9359,-5.0152,-5.0828,-5.0906,-5.0906,-5.0906,-5.0906,-5.0906,-5.0906,-5.0906,-5.0937,-5.0976,-5.1043,-5.1105,-5.1161,-5.1239,-5.1292,-5.1292,-5.1292,-5.1292,-5.1256,-5.1292,-5.1265,-3.349,-3.339,-3.356,-3.3795,-3.3993,-3.4136,-3.4136,-3.4136,-3.4136,-3.4136,-3.4464,-3.5182,-3.6584,-3.7206,-3.7846,-3.8924,-3.8881,-3.8658,-3.8609,-3.8609,-3.859,-3.851,-3.8528,-3.8578,-3.8609,-3.8609,-3.8683,-3.8892,-3.9165,-3.9376,-3.9508,-3.9804,-3.9933,-3.9933,-3.9933,-3.9933,-3.9933,-3.9933,-3.9848,-3.9717,-3.9575,-3.9647,-3.9933,-3.9914,-3.9977,-4.0139,0.0,-4.0415,-4.0449,-4.0492,-4.0489,-4.0489,-4.0489,-4.0489,-4.0604,-4.1489,-4.2354,-4.3278,-4.447,-4.5201,-4.5586,-4.5586,-4.5586,-4.5586,-4.5586,-4.5586,-4.5603,-4.5693,-4.5687,-4.5715,-4.5731,-4.5776,-4.58,-4.58,-4.58,-4.58,-4.58,-4.58,-4.58,-4.58,-4.58,-4.58,-4.58,-4.58,-4.58,-4.58,-4.6535,-4.7231,-4.7657,-4.8875,-4.9842,-5.021,-5.0654,-5.0906,-5.0906,-5.0906,-5.0906,-5.0906,-5.0917,-5.0961,-5.1004,-5.1105,-5.1161,-5.1211,-5.1276,-5.13,-5.13,-5.13,-5.13,-5.13,-5.13,-5.13,-3.3312,-3.3145,-3.3184,-3.3184,-3.3494,-3.3807,-3.3807,-3.3807,-3.3807,-3.3807,-3.4302,-3.5119,-3.6456,-3.7511,-3.8349,-3.8924,-3.8822,-3.8707,-3.8707,-3.8707,-3.8658,-3.8559,-3.8658,-3.8658,-3.8559,-3.8658,-3.8792,-3.9073,-3.935,-3.9623,-3.9892,-4.0157,-4.0215,-4.0005,-4.0005,-3.9909,-3.9699,-3.9699,-3.9795,-3.9996,-3.9804,-3.9892,-4.0291,-4.0098,-4.0118,-4.0307,-4.0362,-4.0432,-4.0502,-4.0492,-4.0489,-4.0489,-4.0489,-4.0489,-4.0604,-4.1489,-4.2354,-4.322,-4.4028,-4.4874,-4.5586,-4.5586,-4.5586,-4.5586,-4.5586,-4.5586,-4.5603,-4.5693,-4.5687,-4.5715,-4.5781,-4.5791,-4.58,-4.58,-4.58,-4.58,-4.58,-4.58,-4.58,-4.58,-4.58,-4.58,-4.58,-4.58,-4.58,-4.58,-4.6361,-4.6864,-4.7076,-4.8275,-4.9243,-4.9668,-5.0248,-5.0693,-5.0902,-5.0921,-5.0937,-5.0952,-5.099,-5.103,-5.103,-5.1139,-5.1211,-5.1211,-5.1276,-5.13,-5.13,-5.13,-5.13,-5.13,-5.13,-5.13,-3.4118,-3.3384,-3.2827,-3.2827,-3.3332,-3.3807,-3.3807,-3.3807,-3.3807,-3.3807,-3.3844,-3.4465,-3.6345,-3.7976,-3.8961,-3.8762,-3.8707,-3.8707,-3.8707,-3.8707,-3.8707,-3.8707,-3.8707,-3.8707,-3.8707,-3.8707,-3.8792,-3.9073,-3.935,-3.9623,-3.9892,-4.0157,-3.9928,-3.9126,-3.9088,-3.8706,-3.7903,-3.7884,-3.8706,-4.0272,-4.0253,-4.0253,-4.031,-4.0291,-4.0291,-4.0307,-4.0362,-4.0432,-4.0502,-4.0492,-4.0489,-4.0489,-4.0489,-4.0489,-4.0604,-4.1489,-4.2354,-4.322,-4.4028,-4.4874,-4.5586,-4.5586,-4.5586,-4.5586,-4.5586,-4.5586,-4.5603,-4.5693,-4.5687,-4.5715,-4.5781,-4.5791,-4.58,-4.58,-4.58,-4.58,-4.58,-4.58,-4.58,-4.58,-4.58,-4.58,-4.58,-4.58,-4.58,-4.58,-4.5838,-4.6187,-4.6999,-4.7212,-4.7908,-4.9533,-4.9745,-5.0104,-5.0932,-5.099,-5.1017,-5.1081,-5.1093,-5.1093,-5.1093,-5.1161,-5.1211,-5.1211,-5.1276,-5.13,-5.13,-5.13,-5.13,-5.13,-5.13,-5.13,-3.3687,-3.3104,-3.2719,-3.2816,-3.3111,-3.3379,-3.3465,-3.3494,-3.355,-3.3815,-3.4238,-3.5083,-3.6878,-3.8095,-3.884,-3.8738,-3.8707,-3.8707,-3.8707,-3.8707,-3.8707,-3.8707,-3.8707,-3.8707,-3.8707,-3.8851,-3.8841,-3.8558,-3.8785,-3.8807,-3.8537,-3.8631,-3.8534,-3.819,-3.819,-3.8037,-3.7693,-3.7693,-3.8037,-3.8686,-3.8686,-3.8686,-3.8686,-3.8741,-3.8776,-3.8829,-3.9416,-3.9695,-3.98,-4.0296,-4.0489,-4.0489,-4.0489,-4.0489,-4.0527,-4.0873,-4.1546,-4.2412,-4.3258,-4.4105,-4.4874,-4.5413,-4.5586,-4.5586,-4.5586,-4.5586,-4.5603,-4.5687,-4.57,-4.5715,-4.5781,-4.5791,-4.58,-4.58,-4.58,-4.58,-4.58,-4.58,-4.58,-4.58,-4.58,-4.58,-4.58,-4.58,-4.58,-4.58,-4.58,-4.5916,-4.6245,-4.6748,-4.7347,-4.8005,-4.9049,-5.0051,-5.0859,-5.1017,-5.1081,-5.1105,-5.1139,-5.1161,-5.1161,-5.123,-5.1256,-5.1256,-5.1292,-5.13,-5.13,-5.13,-5.13,-5.13,-5.13,-5.13,-3.3654,-3.302,-3.2521,-3.2672,-3.2848,-3.3019,-3.3214,-3.3302,-3.3437,-3.3815,-3.4724,-3.5771,-3.6909,-3.7991,-3.8707,-3.8707,-3.8707,-3.8707,-3.8707,-3.8707,-3.8615,-3.834,-3.8322,-3.8212,-3.7973,-3.8163,-3.8167,-3.7845,-3.8037,-3.8059,-3.7731,-3.7693,-3.7578,-3.733,-3.733,-3.7196,-3.691,-3.691,-3.691,-3.691,-3.691,-3.7196,-3.7693,-3.7783,-3.7836,-3.7942,-3.853,-3.8981,-3.9335,-3.9892,-4.0258,-4.0489,-4.0489,-4.0489,-4.0489,-4.0489,-4.1046,-4.1893,-4.2489,-4.3393,-4.4393,-4.4989,-4.5374,-4.5586,-4.5586,-4.5603,-4.5637,-4.5684,-4.5715,-4.5731,-4.5795,-4.5805,-4.58,-4.58,-4.58,-4.58,-4.58,-4.58,-4.58,-4.58,-4.58,-4.58,-4.58,-4.58,-4.58,-4.58,-4.58,-4.58,-4.58,-4.6322,-4.6786,-4.7076,-4.8662,-4.9935,-5.0535,-5.0901,-5.1117,-5.1161,-5.1211,-5.123,-5.123,-5.1284,-5.13,-5.13,-5.13,-5.13,-5.13,-5.13,-5.13,-5.13,-5.13,-5.13,-3.4318,-3.335,-3.2318,-3.2318,-3.2521,-3.2781,-3.3124,-3.3302,-3.3504,-3.3842,-3.5165,-3.6285,-3.6285,-3.7606,-3.8689,-3.8689,-3.8689,-3.8689,-3.8689,-3.8689,-3.8377,-3.7569,-3.7477,-3.7165,-3.6376,-3.6481,-3.6714,-3.6963,-3.7168,-3.7394,-3.7674,-3.7674,-3.7311,-3.6528,-3.6489,-3.6069,-3.5209,-3.5209,-3.5209,-3.5209,-3.5209,-3.6069,-3.7674,-3.7745,-3.7797,-3.7885,-3.7878,-3.8424,-3.9277,-3.9277,-3.9758,-4.0489,-4.0489,-4.0489,-4.0489,-4.0489,-4.1046,-4.1797,-4.1797,-4.2893,-4.4297,-4.4297,-4.4893,-4.5586,-4.5586,-4.564,-4.569,-4.57,-4.575,-4.5795,-4.58,-4.58,-4.58,-4.58,-4.58,-4.58,-4.58,-4.58,-4.58,-4.58,-4.58,-4.58,-4.58,-4.58,-4.58,-4.58,-4.58,-4.58,-4.58,-4.58,-4.6129,-4.6999,-4.8643,-4.9727,-4.9889,-5.0639,-5.115,-5.1292,-5.13,-5.13,-5.13,-5.13,-5.13,-5.13,-5.13,-5.13,-5.13,-5.13,-5.13,-5.13,-5.13,-5.13,-3.4812,-3.4041,-3.3262,-3.2847,-3.2834,-3.3006,-3.3397,-3.3379,-3.3332,-3.3643,-3.4715,-3.5551,-3.5404,-3.6285,-3.7019,-3.7019,-3.7019,-3.7019,-3.7019,-3.7019,-3.6909,-3.667,-3.6652,-3.656,-3.6321,-3.663,-3.6649,-3.6118,-3.6481,-3.6497,-3.5974,-3.5935,-3.584,-3.5592,-3.5592,-3.5458,-3.5209,-3.5209,-3.5226,-3.5277,-3.5277,-3.5509,-3.5935,-3.6001,-3.6048,-3.6121,-3.6757,-3.7204,-3.7565,-3.8796,-3.9758,-4.0489,-4.0489,-4.0489,-4.0489,-4.0489,-4.0662,-4.0969,-4.1585,-4.2527,-4.3547,-4.4124,-4.4927,-4.5657,-4.5657,-4.5671,-4.5719,-4.575,-4.5781,-4.5795,-4.58,-4.58,-4.58,-4.58,-4.58,-4.58,-4.58,-4.58,-4.58,-4.58,-4.58,-4.58,-4.58,-4.58,-4.58,-4.58,-4.58,-4.58,-4.58,-4.58,-4.6129,-4.6999,-4.7603,-4.8451,-4.9711,-5.0087,-5.0539,-5.1191,-5.1265,-5.13,-5.13,-5.13,-5.13,-5.13,-5.13,-5.13,-5.13,-5.13,-5.13,-5.13,-5.13,-5.13,-3.4977,-3.4197,-3.3341,-3.2991,-3.2993,-3.3129,-3.3386,-3.3494,-3.3588,-3.3671,-3.4495,-3.5192,-3.511,-3.5734,-3.6303,-3.6303,-3.6303,-3.6303,-3.6303,-3.6303,-3.6174,-3.5826,-3.5883,-3.5809,-3.5495,-3.5909,-3.5953,-3.5426,-3.576,-3.5763,-3.5229,-3.5209,-3.5209,-3.5209,-3.5209,-3.5209,-3.5209,-3.5209,-3.5226,-3.5312,-3.5312,-3.5277,-3.5239,-3.53,-3.533,-3.5388,-3.6306,-3.6699,-3.6853,-3.8584,-3.9585,-4.0046,-4.0373,-4.0489,-4.0489,-4.0489,-4.0489,-4.0566,-4.1104,-4.1854,-4.272,-4.3547,-4.441,-4.5214,-4.5596,-4.5687,-4.5715,-4.5781,-4.5795,-4.5791,-4.58,-4.58,-4.58,-4.58,-4.58,-4.58,-4.58,-4.58,-4.58,-4.58,-4.58,-4.58,-4.58,-4.58,-4.58,-4.58,-4.58,-4.58,-4.58,-4.5808,-4.6035,-4.6557,-4.6991,-4.768,-4.8751,-4.9206,-4.98,-5.0674,-5.0758,-5.095,-5.13,-5.13,-5.13,-5.13,-5.13,-5.13,-5.13,-5.13,-5.13,-5.13,-5.13,-5.13,-3.4925,-3.3981,-3.2973,-3.2934,-3.3086,-3.322,-3.322,-3.3689,-3.4049,-3.3815,-3.443,-3.5018,-3.5073,-3.5625,-3.6064,-3.6064,-3.6064,-3.6064,-3.6064,-3.6064,-3.5789,-3.5028,-3.514,-3.4996,-3.432,-3.463,-3.4908,-3.4908,-3.5089,-3.5209,-3.5209,-3.5209,-3.5209,-3.5209,-3.5209,-3.5209,-3.5209,-3.5209,-3.5226,-3.5312,-3.5293,-3.5289,-3.5315,-3.5364,-3.5412,-3.5451,-3.6262,-3.6642,-3.6834,-3.8411,-3.9161,-3.9373,-4.0104,-4.0431,-4.0489,-4.0489,-4.0489,-4.0489,-4.0489,-4.1066,-4.1931,-4.272,-4.3585,-4.4468,-4.5327,-4.5629,-4.5715,-4.5781,-4.5791,-4.58,-4.58,-4.58,-4.58,-4.58,-4.58,-4.58,-4.58,-4.58,-4.58,-4.58,-4.58,-4.58,-4.58,-4.58,-4.58,-4.58,-4.58,-4.58,-4.58,-4.5867,-4.5905,-4.5905,-4.6663,-4.7252,-4.7397,-4.8117,-4.9,-4.9937,-4.9995,-5.0385,-5.1261,-5.13,-5.13,-5.13,-5.13,-5.13,-5.13,-5.13,-5.13,-5.13,-5.13,-5.13,-3.5137,-3.451,-3.3687,-3.3045,-3.3208,-3.3473,-3.325,-3.3716,-3.4074,-3.3643,-3.3962,-3.4301,-3.4215,-3.4318,-3.4393,-3.4339,-3.4339,-3.4339,-3.4339,-3.4339,-3.4347,-3.4351,-3.4433,-3.4437,-3.4439,-3.4713,-3.4908,-3.4908,-3.5089,-3.5209,-3.5209,-3.5209,-3.5209,-3.5209,-3.5209,-3.5209,-3.5209,-3.5209,-3.5226,-3.5312,-3.5304,-3.5335,-3.5379,-3.5379,-3.5427,-3.5493,-3.5685,-3.6122,-3.6738,-3.7103,-3.8065,-3.9315,-3.9488,-3.9931,-4.0489,-4.0489,-4.0489,-4.0489,-4.0489,-4.1066,-4.1835,-4.2027,-4.3121,-4.4421,-4.4614,-4.5198,-4.5781,-4.58,-4.5791,-4.58,-4.58,-4.58,-4.58,-4.58,-4.58,-4.58,-4.58,-4.58,-4.58,-4.58,-4.58,-4.58,-4.58,-4.58,-4.58,-4.58,-4.58,-4.58,-4.58,-4.5867,-4.5905,-4.5905,-4.6162,-4.6649,-4.7339,-4.7626,-4.8409,-4.9917,-4.9995,-5.0385,-5.1261,-5.13,-5.13,-5.13,-5.13,-5.13,-5.13,-5.13,-5.13,-5.13,-5.13,-5.13,-3.5029,-3.4532,-3.3919,-3.308,-3.3238,-3.353,-3.325,-3.3698,-3.4099,-3.378,-3.3895,-3.4074,-3.3998,-3.3972,-3.3921,-3.3842,-3.386,-3.3868,-3.3972,-3.3998,-3.408,-3.4302,-3.4458,-3.4588,-3.4674,-3.4908,-3.5054,-3.5054,-3.5141,-3.5209,-3.5209,-3.5209,-3.5209,-3.5209,-3.5209,-3.5209,-3.5209,-3.5226,-3.5277,-3.5304,-3.5335,-3.5379,-3.5446,-3.5446,-3.546,-3.5493,-3.5493,-3.5738,-3.6161,-3.6546,-3.7238,-3.8142,-3.8969,-3.9546,-3.9969,-4.0354,-4.0489,-4.0489,-4.0489,-4.0796,-4.1258,-4.1662,-4.2694,-4.3843,-4.4318,-4.5079,-4.5795,-4.581,-4.5805,-4.58,-4.58,-4.58,-4.58,-4.58,-4.58,-4.58,-4.58,-4.58,-4.58,-4.58,-4.58,-4.58,-4.58,-4.58,-4.58,-4.58,-4.58,-4.58,-4.58,-4.5893,-4.5953,-4.5953,-4.6075,-4.6322,-4.6789,-4.687,-4.7423,-4.8729,-4.9196,-4.98,-5.0638,-5.1086,-5.13,-5.13,-5.13,-5.13,-5.13,-5.13,-5.13,-5.13,-5.13,-5.13,-3.4771,-3.4252,-3.3723,-3.3094,-3.3208,-3.3473,-3.325,-3.3671,-3.4099,-3.3921,-3.4023,-3.4124,-3.4099,-3.4049,-3.3998,-3.3921,-3.3947,-3.403,-3.4197,-3.4245,-3.4325,-3.4569,-3.4773,-3.4908,-3.4964,-3.5107,-3.5209,-3.5209,-3.5209,-3.5209,-3.5209,-3.5209,-3.5209,-3.5209,-3.5209,-3.5209,-3.5209,-3.5277,-3.5289,-3.5315,-3.5364,-3.5446,-3.5493,-3.5493,-3.5493,-3.5493,-3.5493,-3.5493,-3.5551,-3.6219,-3.6584,-3.6853,-3.8296,-3.9027,-3.9373,-4.0046,-4.0373,-4.0489,-4.0489,-4.0489,-4.0623,-4.1335,-4.2175,-4.3069,-4.3987,-4.4882,-4.5621,-4.5766,-4.58,-4.58,-4.58,-4.58,-4.58,-4.58,-4.58,-4.58,-4.58,-4.58,-4.58,-4.58,-4.58,-4.58,-4.58,-4.58,-4.58,-4.58,-4.58,-4.58,-4.58,-4.5929,-4.5997,-4.5997,-4.613,-4.6196,-4.6196,-4.6196,-4.6566,-4.7443,-4.8319,-4.9157,-4.9976,-5.0833,-5.13,-5.13,-5.13,-5.13,-5.13,-5.13,-5.13,-5.13,-5.13,-5.13,-3.4582,-3.3846,-3.3009,-3.2952,-3.3086,-3.325,-3.322,-3.3578,-3.3921,-3.3895,-3.4049,-3.4173,-3.4124,-3.4099,-3.4074,-3.3998,-3.4136,-3.426,-3.4293,-3.4458,-3.4612,-3.4831,-3.487,-3.4982,-3.5141,-3.5174,-3.5209,-3.5209,-3.5209,-3.5209,-3.5209,-3.5209,-3.5209,-3.5209,-3.5261,-3.5277,-3.5277,-3.5304,-3.53,-3.5315,-3.5364,-3.5446,-3.5493,-3.5493,-3.5493,-3.5493,-3.5493,-3.5493,-3.5526,-3.5622,-3.6084,-3.6719,-3.6969,-3.7969,-3.9296,-3.9411,-3.9892,-4.0489,-4.0489,-4.0489,-4.0508,-4.0642,-4.1289,-4.2206,-4.305,-4.3944,-4.4834,-4.5602,-4.5805,-4.58,-4.58,-4.58,-4.58,-4.58,-4.58,-4.58,-4.58,-4.58,-4.58,-4.58,-4.58,-4.58,-4.58,-4.58,-4.58,-4.58,-4.58,-4.58,-4.58,-4.5929,-4.5997,-4.5997,-4.613,-4.6196,-4.6196,-4.6196,-4.6566,-4.7443,-4.8319,-4.9157,-4.9976,-5.0833,-5.13,-5.13,-5.13,-5.13,-5.13,-5.13,-5.13,-5.13,-5.13,-5.13,-3.4059,-3.3283,-3.2639,-3.2834,-3.3055,-3.319,-3.319,-3.355,-3.3895,-3.3895,-3.4074,-3.4197,-3.4173,-3.4148,-3.4124,-3.4074,-3.425,-3.4458,-3.4524,-3.4655,-3.4851,-3.5108,-3.5126,-3.5143,-3.5193,-3.5223,-3.5273,-3.5261,-3.5258,-3.5273,-3.5261,-3.5258,-3.5258,-3.5261,-3.5289,-3.5304,-3.5304,-3.5335,-3.5379,-3.5412,-3.5446,-3.546,-3.5493,-3.5493,-3.5493,-3.5493,-3.5493,-3.5493,-3.5493,-3.5493,-3.5718,-3.6084,-3.6526,-3.718,-3.7969,-3.8931,-3.9508,-3.9892,-4.0335,-4.0489,-4.0489,-4.0489,-4.1131,-4.2058,-4.2907,-4.3801,-4.4728,-4.5559,-4.5786,-4.58,-4.58,-4.58,-4.58,-4.58,-4.58,-4.58,-4.58,-4.58,-4.58,-4.58,-4.58,-4.58,-4.58,-4.58,-4.58,-4.58,-4.5822,-4.5867,-4.5867,-4.5975,-4.6066,-4.6066,-4.6146,-4.6196,-4.6196,-4.6196,-4.6352,-4.6741,-4.8047,-4.8962,-4.9313,-5.0599,-5.13,-5.13,-5.13,-5.13,-5.13,-5.13,-5.13,-5.13,-5.13,-5.13,-3.3497,-3.2827,-3.2386,-3.2802,-3.3024,-3.3129,-3.319,-3.3541,-3.386,-3.3895,-3.4074,-3.4197,-3.4197,-3.4197,-3.4173,-3.4124,-3.4386,-3.4628,-3.4713,-3.4907,-3.5086,-3.5277,-3.5293,-3.5293,-3.5226,-3.527,-3.53,-3.5308,-3.5285,-3.53,-3.5308,-3.5285,-3.53,-3.5308,-3.532,-3.533,-3.533,-3.5379,-3.546,-3.5493,-3.5493,-3.5493,-3.5493,-3.5493,-3.5493,-3.5493,-3.5493,-3.5493,-3.5493,-3.5493,-3.5493,-3.5565,-3.6161,-3.6526,-3.6873,-3.8161,-3.8911,-3.9392,-3.9988,-4.0315,-4.0504,-4.0523,-4.1007,-4.1726,-4.2628,-4.354,-4.4446,-4.5258,-4.5645,-4.58,-4.58,-4.58,-4.58,-4.58,-4.58,-4.58,-4.58,-4.58,-4.58,-4.58,-4.58,-4.58,-4.58,-4.58,-4.5814,-4.5808,-4.588,-4.5917,-4.591,-4.6027,-4.6093,-4.6093,-4.6154,-4.6196,-4.6196,-4.6196,-4.6196,-4.6196,-4.7832,-4.8806,-4.8806,-5.0404,-5.13,-5.13,-5.13,-5.13,-5.13,-5.13,-5.13,-5.13,-5.13,-5.13,-3.2926,-3.2595,-3.2386,-3.2802,-3.2916,-3.2979,-3.316,-3.3415,-3.3671,-3.3842,-3.4074,-3.4197,-3.4197,-3.4197,-3.4197,-3.4197,-3.4567,-3.4851,-3.4793,-3.5122,-3.5369,-3.5312,-3.5304,-3.5304,-3.5312,-3.5304,-3.53,-3.53,-3.53,-3.53,-3.53,-3.53,-3.53,-3.53,-3.5364,-3.5379,-3.5379,-3.546,-3.5493,-3.5493,-3.5493,-3.5493,-3.5493,-3.5493,-3.5493,-3.5493,-3.5493,-3.5493,-3.5493,-3.5493,-3.5493,-3.5493,-3.5565,-3.6045,-3.6719,-3.6796,-3.7873,-3.9296,-3.9354,-3.9854,-4.0504,-4.0573,-4.0636,-4.0853,-4.1788,-4.2679,-4.3556,-4.4427,-4.52,-4.58,-4.58,-4.58,-4.58,-4.58,-4.58,-4.58,-4.58,-4.58,-4.58,-4.58,-4.58,-4.58,-4.58,-4.58,-4.5827,-4.5893,-4.5905,-4.591,-4.5986,-4.6066,-4.6093,-4.6093,-4.6154,-4.6196,-4.6196,-4.6196,-4.6196,-4.6196,-4.7832,-4.8806,-4.8806,-5.0404,-5.13,-5.13,-5.13,-5.13,-5.13,-5.13,-5.13,-5.13,-5.13,-5.13,-3.1794,-3.1809,-3.202,-3.242,-3.2705,-3.2916,-3.2993,-3.3327,-3.3633,-3.3698,-3.3972,-3.4197,-3.4197,-3.4197,-3.4245,-3.4427,-3.4711,-3.4945,-3.5035,-3.5254,-3.5398,-3.5369,-3.5364,-3.535,-3.5285,-3.5383,-3.5412,-3.5364,-3.5412,-3.5435,-3.5425,-3.547,-3.5519,-3.5557,-3.555,-3.5515,-3.546,-3.5493,-3.5493,-3.5493,-3.5493,-3.5493,-3.5493,-3.5493,-3.5493,-3.5493,-3.5493,-3.5493,-3.5493,-3.5493,-3.5493,-3.5493,-3.5493,-3.568,-3.5988,-3.6507,-3.745,-3.8546,-3.9114,-3.986,-4.0573,-4.0598,-4.0626,-4.0841,-4.1743,-4.2215,-4.2763,-4.4194,-4.4813,-4.5142,-4.5664,-4.58,-4.58,-4.58,-4.58,-4.58,-4.58,-4.58,-4.58,-4.58,-4.58,-4.58,-4.58,-4.5841,-4.5861,-4.5905,-4.5975,-4.6047,-4.6066,-4.6111,-4.6154,-4.6154,-4.6189,-4.6196,-4.6196,-4.6196,-4.6196,-4.6196,-4.7832,-4.8806,-4.8806,-5.0404,-5.13,-5.13,-5.13,-5.13,-5.13,-5.13,-5.13,-5.13,-5.13,-5.13,-3.1167,-3.1317,-3.164,-3.2179,-3.2488,-3.2737,-3.2884,-3.3268,-3.3605,-3.3605,-3.3921,-3.4197,-3.4197,-3.4197,-3.4293,-3.4561,-3.4771,-3.4982,-3.5157,-3.532,-3.5446,-3.5412,-3.5412,-3.5412,-3.533,-3.5449,-3.5522,-3.547,-3.5521,-3.5574,-3.557,-3.5611,-3.565,-3.5696,-3.567,-3.5609,-3.5558,-3.5577,-3.5553,-3.5534,-3.5534,-3.5528,-3.5493,-3.5493,-3.5493,-3.5493,-3.5493,-3.5493,-3.5493,-3.5493,-3.5493,-3.5493,-3.5493,-3.5493,-3.5551,-3.6103,-3.6834,-3.768,-3.859,-3.9451,-4.0236,-4.053,-4.0668,-4.0816,-4.1409,-4.1803,-4.2299,-4.3769,-4.4369,-4.4794,-4.5587,-4.58,-4.58,-4.58,-4.58,-4.58,-4.58,-4.58,-4.58,-4.58,-4.58,-4.5814,-4.5841,-4.5861,-4.5929,-4.5964,-4.6037,-4.6102,-4.6138,-4.6162,-4.6196,-4.6196,-4.6196,-4.6196,-4.6196,-4.6196,-4.6196,-4.6196,-4.7832,-4.8806,-4.8806,-5.0404,-5.13,-5.13,-5.13,-5.13,-5.13,-5.13,-5.13,-5.13,-5.13,-5.13,0.0,0.0,0.0,-3.2091,-3.2283,-3.242,-3.2802,-3.3268,-3.3605,-3.3605,-3.3921,-3.4197,-3.4234,-3.4234,-3.433,-3.4599,-3.4771,-3.4982,-3.5157,-3.5369,-3.5493,-3.5412,-3.546,-3.546,-3.5412,-3.5514,-3.5607,-3.5607,-3.566,-3.5693,-3.5702,-3.5702,-3.5702,-3.5702,-3.5702,-3.5702,-3.5693,-3.5693,-3.5669,-3.5607,-3.5607,-3.5558,-3.5493,-3.5493,-3.5493,-3.5493,-3.5493,-3.5493,-3.5493,-3.5493,-3.5493,-3.5493,-3.5493,-3.5493,-3.5493,-3.5493,-3.6007,-3.6834,-3.7775,-3.8637,-3.9466,-4.0403,-4.07,-4.0733,-4.0778,-4.1351,-4.2144,-4.3015,-4.3885,-4.4755,-4.5568,-4.58,-4.58,-4.58,-4.58,-4.58,-4.58,-4.58,-4.58,-4.58,-4.58,-4.5808,-4.5893,-4.5898,-4.5953,-4.6084,-4.6093,-4.613,-4.6196,-4.6196,-4.6196,-4.6196,-4.6196,-4.6196,-4.6196,-4.6196,-4.6215,-4.6235,-4.7852,-4.8806,-4.8826,-5.0424,-5.13,-5.13,-5.13,-5.13,-5.13,-5.13,-5.13,-5.13,-5.13,-5.13,-3.0833,0.0,0.0,0.0,0.0,0.0,-3.2884,-3.3117,-3.3386,-3.3559,-3.3788,-3.4208,-3.4989,-3.5126,-3.5224,-3.5421,-3.5148,-3.4982,-3.5157,-3.5369,-3.5493,-3.546,-3.5493,-3.5493,-3.546,-3.5515,-3.554,-3.5596,-3.562,-3.5697,-3.584,-3.5885,-3.5885,-3.5846,-3.5846,-3.5801,-3.5693,-3.565,-3.562,-3.5607,-3.5553,-3.5515,-3.5493,-3.5493,-3.5493,-3.5493,-3.5493,-3.5493,-3.5493,-3.5493,-3.5493,-3.5493,-3.5493,-3.5493,-3.5493,-3.5493,-3.604,-3.6895,-3.7783,-3.8659,-3.9534,-4.0475,-4.0778,-4.0778,-4.079,-4.0965,-4.1293,-4.2125,-4.2995,-4.3982,-4.5432,-4.58,-4.58,-4.58,-4.58,-4.58,-4.58,-4.58,-4.58,-4.58,-4.5841,-4.5893,-4.5905,-4.5986,-4.6066,-4.6093,-4.6146,-4.6189,-4.6196,-4.6196,-4.6196,-4.6196,-4.6196,-4.6196,-4.6196,-4.6196,-4.6468,-4.7092,-4.8183,-4.906,-4.9644,-5.0716,-5.13,-5.13,-5.13,-5.13,-5.13,-5.13,-5.13,-5.13,-5.13,-5.13,-3.0725,-3.0861,-3.1223,-3.1414,0.0,0.0,-3.2588,-3.2943,-3.325,-3.3415,-3.3954,-3.4592,-3.524,-3.5688,-3.5919,-3.5712,-3.5453,-3.5248,-3.5215,-3.5369,-3.5493,-3.5493,-3.5493,-3.5493,-3.5493,-3.5541,-3.5565,-3.5607,-3.567,-3.5799,-3.5938,-3.5981,-3.5985,-3.5942,-3.5942,-3.5894,-3.5767,-3.5741,-3.5679,-3.5607,-3.5546,-3.5522,-3.5493,-3.5493,-3.5493,-3.5493,-3.5493,-3.5493,-3.5493,-3.5493,-3.5493,-3.5493,-3.5493,-3.5493,-3.5507,-3.5501,-3.5817,-3.6402,-3.7302,-3.8177,-3.9039,-3.9959,-4.05,-4.079,-4.079,-4.079,-4.0965,-4.1777,-4.2899,-4.4078,-4.5045,-4.5548,-4.58,-4.58,-4.58,-4.58,-4.58,-4.58,-4.58,-4.58,-4.5848,-4.5917,-4.5941,-4.6027,-4.6102,-4.6138,-4.6162,-4.6196,-4.6196,-4.6196,-4.6196,-4.6196,-4.6196,-4.6196,-4.6196,-4.6196,-4.6566,-4.7443,-4.8319,-4.9157,-4.9976,-5.0833,-5.13,-5.13,-5.13,-5.13,-5.13,-5.13,-5.13,-5.13,-5.13,-5.13,-3.0824,-3.0576,-3.0658,-3.1083,-3.1452,0.0,-3.2283,-3.2838,-3.3304,-3.3316,-3.4306,-3.5202,-3.5303,-3.6112,-3.6523,-3.5843,-3.5819,-3.5706,-3.524,-3.5339,-3.546,-3.5493,-3.5493,-3.5493,-3.5493,-3.5553,-3.5596,-3.5607,-3.5764,-3.5899,-3.5958,-3.5985,-3.5988,-3.5988,-3.5991,-3.5978,-3.5908,-3.5883,-3.5772,-3.5607,-3.5596,-3.5565,-3.5493,-3.5493,-3.5493,-3.5493,-3.5493,-3.5493,-3.5493,-3.5493,-3.5493,-3.5493,-3.5493,-3.5507,-3.5488,-3.5489,-3.5496,-3.5644,-3.6593,-3.7474,-3.8337,-3.9224,-4.0075,-4.079,-4.079,-4.079,-4.0965,-4.1777,-4.3131,-4.4369,-4.4562,-4.5123,-4.5684,-4.578,-4.58,-4.58,-4.58,-4.58,-4.5814,-4.5814,-4.588,-4.5941,-4.5997,-4.6066,-4.6138,-4.6196,-4.6196,-4.6196,-4.6196,-4.6196,-4.6196,-4.6196,-4.6196,-4.6196,-4.6196,-4.6196,-4.6605,-4.7579,-4.8378,-4.9196,-5.0112,-5.0891,-5.13,-5.13,-5.13,-5.13,-5.13,-5.13,-5.13,-5.13,-5.13,-5.13,-3.1394,-3.1208,-3.1083,-3.149,-3.1877,0.0,-3.2705,-3.3384,-3.3978,-3.4132,-3.4888,-3.5737,-3.6571,-3.6888,-3.7033,-3.7108,-3.6727,-3.6105,-3.5097,-3.5124,-3.5324,-3.5479,-3.5493,-3.5493,-3.5493,-3.5501,-3.5528,-3.5596,-3.5687,-3.5753,-3.5767,-3.5858,-3.5924,-3.5924,-3.5978,-3.5978,-3.5908,-3.5794,-3.5687,-3.5607,-3.554,-3.5515,-3.5493,-3.5493,-3.5493,-3.5493,-3.5493,-3.5493,-3.5493,-3.5493,-3.5493,-3.5493,-3.5493,-3.5501,-3.5502,-3.5502,-3.5521,-3.5705,-3.6586,-3.7467,-3.8342,-3.9224,-4.0075,-4.079,-4.079,-4.079,-4.0965,-4.1777,-4.2241,-4.2841,-4.4253,-4.4717,-4.5007,-4.5645,-4.58,-4.58,-4.58,-4.58,-4.5827,-4.588,-4.5922,-4.5986,-4.5997,-4.6093,-4.6189,-4.6196,-4.6196,-4.6196,-4.6196,-4.6196,-4.6196,-4.6196,-4.6196,-4.6196,-4.6196,-4.6196,-4.6878,-4.8456,-4.8709,-4.9488,-5.0989,-5.1203,-5.13,-5.13,-5.13,-5.13,-5.13,-5.13,-5.13,-5.13,-5.13,-5.13,-3.1719,-3.1199,-3.0861,-3.1044,-3.1414,0.0,0.0,-3.3388,-3.4001,-3.4676,-3.5558,-3.6338,-3.6848,-3.7376,-3.7679,-3.7518,-3.6916,-3.6173,-3.5461,-3.5173,-3.5124,-3.5324,-3.5354,-3.5403,-3.5493,-3.5493,-3.5522,-3.5596,-3.564,-3.5669,-3.5693,-3.576,-3.5833,-3.5908,-3.5869,-3.5833,-3.5801,-3.5696,-3.5609,-3.5553,-3.5515,-3.5493,-3.5493,-3.5493,-3.5493,-3.5493,-3.5493,-3.5493,-3.5493,-3.5493,-3.5488,-3.5495,-3.5495,-3.5509,-3.5496,-3.554,-3.5577,-3.5659,-3.6145,-3.7123,-3.8276,-3.8702,-3.9746,-4.079,-4.079,-4.079,-4.0868,-4.1293,-4.168,-4.2299,-4.3614,-4.4272,-4.4794,-4.5606,-4.58,-4.58,-4.58,-4.58,-4.5827,-4.5893,-4.5944,-4.6007,-4.6037,-4.6138,-4.6196,-4.6196,-4.6196,-4.6196,-4.6196,-4.6196,-4.6196,-4.6196,-4.6196,-4.6196,-4.6196,-4.6196,-4.6761,-4.8066,-4.8553,-4.9352,-5.0599,-5.1067,-5.13,-5.13,-5.13,-5.13,-5.13,-5.13,-5.13,-5.13,-5.13,-5.13,-3.1951,-3.1189,-3.0526,-3.0593,-3.0962,-3.1574,0.0,0.0,0.0,-3.5119,-3.6181,-3.6942,-3.6942,-3.7652,-3.8045,-3.7454,-3.6835,-3.6279,-3.5749,-3.5286,-3.504,-3.5126,-3.5193,-3.5258,-3.5432,-3.5479,-3.5509,-3.5581,-3.5574,-3.5599,-3.5669,-3.5668,-3.5729,-3.5833,-3.5745,-3.5685,-3.5668,-3.563,-3.5558,-3.5493,-3.5493,-3.5493,-3.5493,-3.5493,-3.5493,-3.5493,-3.5493,-3.5507,-3.5488,-3.5488,-3.5515,-3.5515,-3.5515,-3.5515,-3.554,-3.5589,-3.5612,-3.5631,-3.5673,-3.669,-3.7986,-3.816,-3.9379,-4.079,-4.079,-4.079,-4.079,-4.079,-4.1274,-4.197,-4.2841,-4.3711,-4.4562,-4.5374,-4.5684,-4.5814,-4.5827,-4.5827,-4.5835,-4.591,-4.5986,-4.6047,-4.6093,-4.6154,-4.6196,-4.6196,-4.6196,-4.6196,-4.6196,-4.6196,-4.6196,-4.6196,-4.6196,-4.6196,-4.6196,-4.6196,-4.6566,-4.7443,-4.8319,-4.9157,-4.9976,-5.0833,-5.13,-5.13,-5.13,-5.13,-5.13,-5.13,-5.13,-5.13,-5.13,-5.13,-3.2415,-3.157,-3.0593,-3.0925,-3.155,-3.2201,-3.2702,0.0,-3.5513,-3.5621,0.0,-3.7524,-3.7524,0.0,0.0,-3.6985,-3.6926,-3.6589,-3.5348,-3.5342,-3.5315,-3.4965,-3.5089,-3.5209,-3.5226,-3.5403,-3.5507,-3.5501,-3.5501,-3.5509,-3.5521,-3.5585,-3.562,-3.5621,-3.5668,-3.5678,-3.5609,-3.5599,-3.5558,-3.5493,-3.5493,-3.5493,-3.5493,-3.5493,-3.5493,-3.5493,-3.5493,-3.5501,-3.5502,-3.5502,-3.5547,-3.5591,-3.5515,-3.554,-3.5589,-3.5601,-3.5643,-3.5684,-3.5704,-3.6284,-3.7174,-3.7947,-3.9379,-4.079,-4.079,-4.079,-4.079,-4.079,-4.0868,-4.1119,-4.1932,-4.2783,-4.3672,-4.4543,-4.5278,-4.5827,-4.588,-4.5893,-4.5929,-4.6047,-4.6084,-4.6093,-4.6093,-4.6154,-4.6196,-4.6196,-4.6196,-4.6196,-4.6196,-4.6196,-4.6196,-4.6196,-4.6196,-4.6196,-4.6196,-4.6196,-4.6566,-4.7443,-4.8319,-4.9157,-4.9976,-5.0833,-5.13,-5.13,-5.13,-5.13,-5.13,-5.13,-5.13,-5.13,-5.13,-5.13,-3.2597,-3.162,-3.0551,-3.0699,-3.1308,-3.2169,-3.3287,-3.451,-3.5688,-3.6679,0.0,0.0,0.0,0.0,0.0,0.0,-3.7344,-3.6881,-3.5929,-3.5629,-3.531,-3.4783,-3.4812,-3.5018,-3.5289,-3.535,-3.5427,-3.5495,-3.5495,-3.5495,-3.5495,-3.554,-3.5574,-3.5611,-3.5579,-3.5599,-3.559,-3.5562,-3.5528,-3.5493,-3.5493,-3.5493,-3.5493,-3.5493,-3.5493,-3.5493,-3.5412,-3.5393,-3.5388,-3.5345,-3.5364,-3.5412,-3.5379,-3.5416,-3.5489,-3.5521,-3.5553,-3.5584,-3.5584,-3.6161,-3.7135,-3.8508,-3.9785,-4.079,-4.079,-4.079,-4.079,-4.079,-4.079,-4.0984,-4.1796,-4.228,-4.2899,-4.4272,-4.4871,-4.5247,-4.5776,-4.5905,-4.5953,-4.6075,-4.6093,-4.6102,-4.6146,-4.6189,-4.6196,-4.6196,-4.6196,-4.6196,-4.6196,-4.6196,-4.6196,-4.6196,-4.6196,-4.6196,-4.6196,-4.6196,-4.6352,-4.6722,-4.8047,-4.9391,-5.0696,-5.1106,-5.13,-5.13,-5.13,-5.13,-5.13,-5.13,-5.13,-5.13,-5.13,-5.13,-3.268,-3.1663,-3.0601,-3.0775,-3.143,-3.236,-3.3741,-3.4863,-3.5919,-3.714,-3.7559,0.0,0.0,0.0,-3.7721,-3.7679,0.0,-3.7211,-3.6103,-3.5888,-3.5479,-3.4648,-3.467,-3.4889,-3.5223,-3.53,-3.536,-3.5397,-3.5489,-3.5534,-3.5528,-3.5534,-3.5546,-3.5599,-3.5526,-3.5514,-3.5568,-3.5521,-3.5482,-3.5427,-3.5432,-3.5403,-3.5369,-3.5369,-3.5369,-3.5369,-3.5285,-3.5285,-3.5304,-3.5242,-3.5261,-3.5308,-3.5308,-3.53,-3.5321,-3.5397,-3.5443,-3.5443,-3.5443,-3.619,-3.736,-3.8627,-3.9799,-4.0713,-4.0713,-4.0759,-4.079,-4.079,-4.079,-4.0926,-4.1525,-4.1835,-4.2376,-4.3885,-4.444,-4.4867,-4.5743,-4.5953,-4.5986,-4.6102,-4.6138,-4.6146,-4.6196,-4.6196,-4.6196,-4.6196,-4.6196,-4.6196,-4.6196,-4.6196,-4.6196,-4.6196,-4.6196,-4.6196,-4.6196,-4.6196,-4.6391,-4.6878,-4.8105,-4.9547,-5.1222,-5.13,-5.13,-5.13,-5.13,-5.13,-5.13,-5.13,-5.13,-5.13,-5.13,-5.13,-3.268,-3.1722,-3.0817,-3.1421,-3.2324,-3.3205,-3.3879,-3.5343,-3.6545,-3.662,-3.7319,-3.7899,-3.7899,-3.7899,-3.7647,-3.6874,-3.7597,0.0,0.0,-3.5954,-3.6024,-3.4591,-3.4691,-3.4908,-3.4908,-3.5207,-3.533,-3.5216,-3.5463,-3.5604,-3.5601,-3.5596,-3.5596,-3.5601,-3.5521,-3.5496,-3.5496,-3.5501,-3.5427,-3.5315,-3.5239,-3.5138,-3.5034,-3.5034,-3.5034,-3.5015,-3.5157,-3.5242,-3.5293,-3.5312,-3.5289,-3.53,-3.53,-3.5219,-3.5122,-3.5251,-3.5315,-3.5315,-3.5315,-3.6389,-3.777,-3.7827,-3.9054,-4.0511,-4.0511,-4.0654,-4.079,-4.079,-4.079,-4.081,-4.0829,-4.1409,-4.2222,-4.3131,-4.4034,-4.4928,-4.5811,-4.6056,-4.6102,-4.6189,-4.6196,-4.6196,-4.6196,-4.6196,-4.6196,-4.6196,-4.6196,-4.6196,-4.6196,-4.6196,-4.6196,-4.6196,-4.6196,-4.6196,-4.6196,-4.6196,-4.6917,-4.8612,-4.8768,-4.9547,-5.1222,-5.13,-5.13,-5.13,-5.13,-5.13,-5.13,-5.13,-5.13,-5.13,-5.13,-5.13,0.0,0.0,-3.2336,-3.2543,-3.3222,-3.4044,-3.4787,-3.5838,-3.6781,-3.7395,-3.7721,-3.7899,-3.7951,-3.7967,-3.7861,-3.7539,-3.7975,-3.7694,0.0,-3.5336,-3.4997,-3.4592,-3.4708,-3.4888,-3.5018,-3.5124,-3.5229,-3.5258,-3.5354,-3.5383,-3.533,-3.5383,-3.5422,-3.5464,-3.5388,-3.5393,-3.5438,-3.5379,-3.5324,-3.5223,-3.5226,-3.5174,-3.5122,-3.5122,-3.5122,-3.5122,-3.5126,-3.5145,-3.5162,-3.5073,-3.5037,-3.5035,-3.5035,-3.5,-3.4982,-3.5122,-3.5171,-3.5171,-3.5266,-3.6393,-3.7792,-3.7792,-3.9019,-4.0511,-4.0511,-4.0654,-4.079,-4.079,-4.079,-4.079,-4.079,-4.1003,-4.1422,-4.2291,-4.3199,-4.4098,-4.5007,-4.5676,-4.613,-4.6189,-4.6196,-4.6196,-4.6196,-4.6196,-4.6196,-4.6196,-4.6196,-4.6196,-4.6196,-4.6196,-4.6196,-4.6196,-4.6196,-4.6196,-4.6196,-4.6196,-4.6702,-4.7871,-4.8475,-4.9294,-5.0385,-5.0989,-5.13,-5.13,-5.13,-5.13,-5.13,-5.13,-5.13,-5.13,-5.13,-5.13,-3.4186,-3.3792,0.0,-3.3651,-3.4245,0.0,-3.574,-3.6453,-3.7076,-3.7703,-3.7898,-3.8003,-3.8054,-3.807,-3.8054,-3.8003,-3.8189,-3.7772,0.0,-3.5092,-3.4495,-3.4602,-3.4749,-3.4869,-3.4926,-3.5019,-3.5126,-3.5157,-3.5242,-3.5273,-3.5239,-3.5273,-3.5335,-3.535,-3.532,-3.5304,-3.5355,-3.5304,-3.5245,-3.516,-3.5126,-3.5072,-3.5056,-3.5056,-3.5056,-3.5056,-3.5038,-3.502,-3.502,-3.4927,-3.4908,-3.4908,-3.4908,-3.4908,-3.4908,-3.5,-3.5035,-3.5035,-3.5122,-3.6262,-3.7656,-3.7656,-3.8889,-4.0351,-4.0351,-4.0515,-4.0758,-4.1067,-4.0978,-4.0868,-4.1139,-4.1009,-4.1013,-4.1881,-4.2779,-4.3685,-4.4606,-4.5507,-4.6146,-4.6196,-4.6196,-4.6196,-4.6196,-4.6196,-4.6196,-4.6196,-4.6196,-4.6196,-4.6196,-4.6196,-4.6196,-4.6196,-4.6196,-4.6196,-4.6196,-4.6196,-4.6566,-4.7443,-4.8319,-4.9157,-4.9976,-5.0833,-5.13,-5.13,-5.13,-5.13,-5.13,-5.13,-5.13,-5.13,-5.13,-5.13]}]]